[[{"header":{"parameterUnit":"m.s-1","parameterCategory":1,"la1":30.6,"la2":29.2853,"lo1":-89.7004,"lo2":-87.6739,"dy":0.0162,"dx":0.0183,"nx":112,"ny":82,"refTime":"2026-04-08T00:00:00:Z","depth":0,"parameterNumber":2,"parameterNumberName":"U-component_of_WINDS"},"data":[0.0,0.0,0.0,0.0,0.0,0.0,0.0,0.0,0.0,0.0,0.0,0.0,0.0,0.0,0.0,0.0,0.0,0.0,0.0,0.0,0.0,0.0,0.0,0.0,0.0,0.0,0.0,0.0,0.0,0.0,0.0,0.0,0.0,0.0,0.0,0.0,0.0,0.0,0.0,0.0,0.0,0.0,0.0,0.0,0.0,0.0,0.0,0.0,0.0,0.0,0.0,0.0,0.0,0.0,0.0,0.0,0.0,0.0,0.0,0.0,0.0,0.0,0.0,0.0,0.0,0.0,0.0,0.0,0.0,0.0,0.0,0.0,0.0,0.0,0.0,0.0,0.0,0.0,0.0,0.0,0.0,0.0,0.0,0.0,0.0,0.0,0.0,0.0,0.0,0.0,-3.6826,-4.0072,-4.4454,-4.6545,-4.508,-4.3905,-4.1505,-3.7406,0.0,0.0,0.0,0.0,0.0,0.0,0.0,0.0,0.0,0.0,0.0,0.0,0.0,0.0,0.0,0.0,0.0,0.0,0.0,0.0,0.0,0.0,0.0,0.0,0.0,0.0,0.0,0.0,0.0,0.0,0.0,0.0,0.0,0.0,0.0,0.0,0.0,0.0,0.0,0.0,0.0,0.0,0.0,0.0,0.0,0.0,0.0,0.0,0.0,0.0,0.0,0.0,0.0,0.0,0.0,0.0,0.0,0.0,0.0,0.0,0.0,0.0,0.0,0.0,0.0,0.0,0.0,0.0,0.0,0.0,0.0,0.0,0.0,0.0,0.0,0.0,0.0,0.0,0.0,0.0,0.0,0.0,0.0,0.0,0.0,0.0,0.0,0.0,0.0,0.0,0.0,0.0,0.0,0.0,0.0,0.0,0.0,0.0,0.0,0.0,0.0,0.0,0.0,0.0,-3.7851,-4.4028,-4.6031,-4.6831,-4.6562,-4.4452,-4.164,-3.8057,0.0,0.0,0.0,0.0,0.0,0.0,0.0,0.0,0.0,0.0,0.0,0.0,0.0,0.0,0.0,0.0,0.0,0.0,0.0,0.0,0.0,0.0,0.0,0.0,0.0,0.0,0.0,0.0,0.0,0.0,0.0,0.0,0.0,0.0,0.0,0.0,0.0,0.0,0.0,0.0,0.0,0.0,0.0,0.0,0.0,0.0,0.0,0.0,0.0,0.0,0.0,0.0,0.0,0.0,0.0,0.0,0.0,0.0,0.0,0.0,0.0,0.0,0.0,0.0,0.0,0.0,0.0,0.0,0.0,0.0,0.0,0.0,0.0,0.0,0.0,0.0,0.0,0.0,0.0,0.0,0.0,0.0,0.0,0.0,0.0,0.0,0.0,0.0,0.0,0.0,0.0,0.0,0.0,0.0,0.0,0.0,0.0,0.0,0.0,0.0,0.0,0.0,0.0,-3.6808,-4.0469,-4.447,-4.6086,-4.6509,-4.5586,-4.4008,-4.1431,-3.7546,-3.3812,0.0,0.0,0.0,0.0,0.0,0.0,0.0,0.0,0.0,0.0,0.0,0.0,0.0,0.0,0.0,0.0,0.0,0.0,0.0,0.0,0.0,0.0,0.0,0.0,0.0,0.0,0.0,0.0,0.0,0.0,0.0,0.0,0.0,0.0,0.0,0.0,0.0,0.0,0.0,0.0,0.0,0.0,0.0,0.0,0.0,0.0,0.0,0.0,0.0,0.0,0.0,0.0,0.0,0.0,0.0,0.0,0.0,0.0,0.0,0.0,0.0,0.0,0.0,0.0,0.0,0.0,0.0,0.0,0.0,0.0,0.0,0.0,0.0,0.0,0.0,0.0,0.0,0.0,0.0,0.0,0.0,0.0,0.0,0.0,0.0,0.0,0.0,0.0,0.0,0.0,0.0,0.0,0.0,0.0,0.0,0.0,0.0,0.0,0.0,0.0,0.0,0.0,-4.0,-4.2739,-4.4432,-4.5817,-4.5893,-4.4162,-4.2893,-4.0469,-3.6353,-3.2968,0.0,0.0,0.0,0.0,0.0,0.0,0.0,0.0,0.0,0.0,0.0,0.0,0.0,0.0,0.0,0.0,0.0,0.0,0.0,0.0,0.0,0.0,0.0,0.0,0.0,0.0,0.0,0.0,0.0,0.0,0.0,0.0,0.0,0.0,0.0,0.0,0.0,0.0,0.0,0.0,0.0,0.0,0.0,0.0,0.0,0.0,0.0,0.0,0.0,0.0,0.0,0.0,0.0,0.0,0.0,0.0,0.0,0.0,0.0,0.0,0.0,0.0,0.0,0.0,0.0,0.0,0.0,0.0,0.0,0.0,0.0,0.0,0.0,0.0,0.0,0.0,0.0,0.0,0.0,0.0,0.0,0.0,0.0,0.0,0.0,0.0,0.0,0.0,0.0,0.0,0.0,0.0,0.0,0.0,0.0,0.0,0.0,0.0,0.0,0.0,0.0,0.0,-4.0893,-4.3662,-4.5325,-4.5633,-4.5017,-4.3316,-4.0969,-3.8092,-3.459,-3.1166,0.0,0.0,0.0,0.0,0.0,0.0,0.0,0.0,0.0,0.0,0.0,0.0,0.0,0.0,0.0,0.0,0.0,0.0,0.0,0.0,0.0,0.0,0.0,0.0,0.0,0.0,0.0,0.0,0.0,0.0,0.0,0.0,0.0,0.0,0.0,0.0,0.0,0.0,0.0,0.0,0.0,0.0,0.0,0.0,0.0,0.0,0.0,0.0,0.0,0.0,0.0,0.0,0.0,0.0,0.0,0.0,0.0,0.0,0.0,0.0,0.0,0.0,0.0,0.0,0.0,0.0,0.0,0.0,0.0,0.0,0.0,0.0,0.0,0.0,0.0,0.0,0.0,0.0,0.0,0.0,0.0,0.0,0.0,0.0,0.0,0.0,0.0,0.0,0.0,0.0,0.0,0.0,0.0,0.0,0.0,0.0,0.0,0.0,0.0,0.0,0.0,0.0,-4.0534,-4.344,-4.4657,-4.5269,-4.4893,-4.3167,-4.0691,-3.7794,-3.4368,0.0,0.0,0.0,0.0,0.0,0.0,0.0,0.0,0.0,0.0,0.0,0.0,0.0,0.0,0.0,0.0,0.0,0.0,0.0,0.0,0.0,0.0,0.0,0.0,0.0,0.0,0.0,0.0,0.0,0.0,0.0,0.0,0.0,0.0,0.0,0.0,0.0,0.0,0.0,0.0,0.0,0.0,0.0,0.0,0.0,0.0,0.0,0.0,0.0,0.0,0.0,0.0,0.0,0.0,0.0,0.0,0.0,0.0,0.0,0.0,0.0,0.0,0.0,0.0,0.0,0.0,0.0,0.0,0.0,0.0,0.0,0.0,0.0,0.0,0.0,0.0,0.0,0.0,0.0,0.0,0.0,0.0,0.0,0.0,0.0,0.0,0.0,0.0,0.0,0.0,0.0,0.0,0.0,0.0,0.0,0.0,0.0,0.0,0.0,0.0,0.0,0.0,-3.5997,-3.9906,-4.288,-4.4124,-4.5051,-4.4761,-4.274,-4.0185,-3.7116,-3.347,0.0,0.0,0.0,0.0,0.0,0.0,0.0,0.0,0.0,0.0,0.0,0.0,0.0,0.0,0.0,0.0,0.0,0.0,0.0,0.0,0.0,0.0,0.0,0.0,0.0,0.0,0.0,0.0,0.0,0.0,0.0,0.0,0.0,0.0,0.0,0.0,0.0,0.0,0.0,0.0,0.0,0.0,0.0,0.0,0.0,0.0,0.0,0.0,0.0,0.0,0.0,0.0,0.0,0.0,0.0,0.0,0.0,0.0,0.0,0.0,0.0,0.0,0.0,0.0,0.0,0.0,0.0,0.0,0.0,0.0,0.0,0.0,0.0,0.0,0.0,0.0,0.0,0.0,0.0,0.0,0.0,0.0,0.0,0.0,0.0,0.0,0.0,0.0,0.0,0.0,0.0,0.0,0.0,0.0,0.0,0.0,0.0,0.0,0.0,0.0,0.0,0.0,-3.5657,-3.9204,-4.2078,-4.3905,-4.5005,-4.4512,-4.1834,-3.9153,-3.5827,0.0,0.0,0.0,0.0,0.0,0.0,0.0,0.0,0.0,0.0,0.0,0.0,0.0,0.0,0.0,0.0,0.0,0.0,0.0,0.0,0.0,0.0,0.0,0.0,0.0,0.0,0.0,0.0,0.0,0.0,0.0,0.0,0.0,0.0,0.0,0.0,0.0,0.0,0.0,0.0,0.0,0.0,0.0,0.0,0.0,0.0,0.0,0.0,0.0,0.0,0.0,0.0,0.0,0.0,0.0,0.0,0.0,0.0,0.0,0.0,0.0,0.0,0.0,0.0,0.0,0.0,0.0,0.0,0.0,0.0,0.0,0.0,0.0,0.0,0.0,0.0,0.0,0.0,0.0,0.0,0.0,0.0,0.0,0.0,0.0,0.0,0.0,0.0,0.0,0.0,0.0,0.0,0.0,0.0,0.0,0.0,0.0,0.0,0.0,0.0,0.0,0.0,0.0,-3.4597,-3.8628,-4.1651,-4.2851,-4.4409,-4.4526,-4.2425,-3.981,-3.6491,-3.2304,0.0,0.0,0.0,0.0,0.0,0.0,0.0,0.0,0.0,0.0,0.0,0.0,0.0,0.0,0.0,0.0,0.0,0.0,0.0,0.0,0.0,0.0,0.0,0.0,0.0,0.0,0.0,0.0,0.0,0.0,0.0,0.0,0.0,0.0,0.0,0.0,0.0,0.0,0.0,0.0,0.0,0.0,0.0,0.0,0.0,0.0,0.0,0.0,0.0,0.0,0.0,0.0,0.0,0.0,0.0,0.0,0.0,0.0,0.0,0.0,0.0,0.0,0.0,0.0,0.0,0.0,0.0,0.0,0.0,0.0,0.0,0.0,0.0,0.0,0.0,0.0,0.0,0.0,0.0,0.0,0.0,0.0,0.0,0.0,0.0,0.0,0.0,0.0,0.0,0.0,0.0,0.0,0.0,0.0,0.0,0.0,0.0,0.0,0.0,0.0,0.0,0.0,-3.3497,-3.7411,-4.0349,-4.1626,-4.3126,-4.3399,-4.1912,-3.9667,-3.6588,-3.2388,0.0,0.0,0.0,0.0,0.0,0.0,0.0,0.0,0.0,0.0,0.0,0.0,0.0,0.0,0.0,0.0,0.0,0.0,0.0,0.0,0.0,0.0,0.0,0.0,0.0,0.0,0.0,0.0,0.0,0.0,0.0,0.0,0.0,0.0,0.0,0.0,0.0,0.0,0.0,0.0,0.0,0.0,0.0,0.0,0.0,0.0,0.0,0.0,0.0,0.0,0.0,0.0,0.0,0.0,0.0,0.0,0.0,0.0,0.0,0.0,0.0,0.0,0.0,0.0,0.0,0.0,0.0,0.0,0.0,0.0,0.0,0.0,0.0,0.0,0.0,0.0,0.0,0.0,0.0,0.0,0.0,0.0,0.0,0.0,0.0,0.0,0.0,0.0,0.0,0.0,0.0,0.0,0.0,0.0,0.0,0.0,0.0,0.0,0.0,0.0,0.0,0.0,-3.2551,-3.5913,-3.8663,-4.0413,-4.1469,-4.1682,-4.0754,-3.9026,-3.6286,-3.2251,0.0,0.0,0.0,0.0,0.0,0.0,0.0,0.0,0.0,0.0,0.0,0.0,0.0,0.0,0.0,0.0,0.0,0.0,0.0,0.0,0.0,0.0,0.0,0.0,0.0,0.0,0.0,0.0,0.0,0.0,0.0,0.0,0.0,0.0,0.0,0.0,0.0,0.0,0.0,0.0,0.0,0.0,0.0,0.0,0.0,0.0,0.0,0.0,0.0,0.0,0.0,0.0,0.0,0.0,0.0,0.0,0.0,0.0,0.0,0.0,-2.7206,-2.6104,0.0,0.0,0.0,0.0,0.0,0.0,0.0,0.0,0.0,0.0,0.0,0.0,0.0,0.0,0.0,0.0,0.0,0.0,0.0,0.0,0.0,0.0,0.0,0.0,0.0,0.0,0.0,0.0,0.0,0.0,0.0,0.0,0.0,0.0,0.0,0.0,0.0,0.0,0.0,0.0,-3.3165,-3.6142,-3.8515,-4.0258,-4.1282,-4.1472,-4.0537,-3.8826,-3.6369,-3.2834,-2.9555,0.0,0.0,0.0,0.0,0.0,0.0,0.0,0.0,0.0,0.0,0.0,0.0,0.0,0.0,0.0,0.0,0.0,0.0,0.0,0.0,0.0,0.0,0.0,0.0,0.0,0.0,0.0,0.0,0.0,0.0,0.0,0.0,0.0,0.0,0.0,0.0,0.0,0.0,0.0,0.0,0.0,0.0,0.0,0.0,0.0,0.0,0.0,0.0,0.0,0.0,0.0,0.0,0.0,0.0,0.0,0.0,0.0,0.0,0.0,-3.0014,-2.8661,0.0,0.0,0.0,0.0,0.0,0.0,0.0,0.0,0.0,0.0,0.0,0.0,0.0,0.0,0.0,0.0,0.0,0.0,0.0,0.0,0.0,0.0,0.0,0.0,0.0,0.0,0.0,0.0,0.0,0.0,0.0,0.0,0.0,0.0,0.0,0.0,0.0,0.0,0.0,0.0,-3.2794,-3.5524,-3.771,-3.9401,-4.0007,-4.0096,-3.9638,-3.8042,-3.6007,-3.3434,-3.0268,0.0,0.0,0.0,0.0,0.0,0.0,0.0,0.0,0.0,0.0,0.0,0.0,0.0,0.0,0.0,0.0,0.0,0.0,0.0,0.0,0.0,0.0,0.0,0.0,0.0,0.0,0.0,0.0,0.0,0.0,0.0,0.0,0.0,0.0,0.0,0.0,0.0,0.0,0.0,0.0,0.0,0.0,0.0,0.0,0.0,0.0,0.0,0.0,0.0,0.0,0.0,0.0,0.0,-3.2916,-3.3427,-3.4213,-3.4544,-3.4755,-3.4846,-3.3164,-3.1842,-3.0837,-3.0814,0.0,0.0,0.0,0.0,0.0,0.0,0.0,0.0,0.0,0.0,0.0,0.0,0.0,0.0,0.0,0.0,0.0,0.0,0.0,0.0,0.0,0.0,-3.2336,-3.2198,-3.2163,-3.1337,-2.8369,0.0,0.0,0.0,0.0,0.0,0.0,0.0,0.0,0.0,0.0,0.0,-3.2297,-3.4751,-3.6816,-3.8413,-3.8596,-3.8523,-3.8428,-3.7073,-3.5498,-3.3835,-3.0967,-2.8331,0.0,0.0,0.0,0.0,0.0,0.0,0.0,0.0,0.0,0.0,0.0,0.0,0.0,0.0,0.0,0.0,0.0,0.0,0.0,0.0,0.0,0.0,0.0,0.0,0.0,0.0,0.0,0.0,0.0,0.0,0.0,0.0,-2.7255,-2.7315,0.0,0.0,0.0,0.0,0.0,0.0,0.0,0.0,0.0,0.0,0.0,0.0,0.0,-3.3872,-3.371,-3.4881,-3.5398,-3.5205,-3.5167,-3.5257,-3.5477,-3.5733,-3.6131,-3.6582,-3.641,0.0,-3.3039,-3.2338,0.0,0.0,0.0,0.0,0.0,0.0,0.0,0.0,0.0,0.0,0.0,0.0,0.0,0.0,0.0,0.0,0.0,0.0,0.0,0.0,0.0,0.0,-3.4003,-3.3358,-3.3188,-3.3087,-3.2598,-3.1239,-2.9952,-2.9295,-2.7619,-2.607,0.0,0.0,0.0,0.0,0.0,0.0,-3.2799,-3.4809,-3.6442,-3.8023,-3.8168,-3.7914,-3.7277,-3.637,-3.5172,-3.356,-3.1733,-2.9979,-2.8251,-2.6741,0.0,0.0,0.0,0.0,0.0,0.0,0.0,0.0,0.0,0.0,0.0,0.0,0.0,0.0,0.0,0.0,0.0,0.0,0.0,0.0,0.0,0.0,0.0,0.0,0.0,0.0,0.0,0.0,0.0,-2.7679,-2.8843,-2.9175,-2.9235,-2.8992,0.0,0.0,0.0,0.0,0.0,0.0,0.0,0.0,0.0,-3.3214,-3.5153,-3.6336,-3.66,-3.7862,-3.8486,-3.8347,-3.8667,-3.8846,-3.8917,-3.9028,-3.9214,-3.9414,-3.9485,-3.8504,-3.6667,-3.4699,-3.3177,-3.1977,0.0,0.0,0.0,0.0,-2.9515,-2.965,-3.0033,-3.0154,-3.0154,-3.0154,0.0,0.0,0.0,0.0,0.0,0.0,0.0,-3.127,-3.2805,-3.423,-3.5345,-3.5492,-3.5595,-3.5553,-3.5194,-3.4614,-3.361,-3.1779,-3.0023,-2.8657,-2.8087,-2.6242,0.0,0.0,0.0,-2.9555,-3.3057,-3.4519,-3.5824,-3.7435,-3.7184,-3.6791,-3.6486,-3.5304,-3.4302,-3.3605,-3.2072,-3.0648,-2.9476,-2.7928,-2.6132,0.0,0.0,0.0,0.0,0.0,0.0,0.0,0.0,0.0,0.0,0.0,0.0,0.0,0.0,0.0,0.0,0.0,0.0,0.0,0.0,0.0,0.0,0.0,0.0,0.0,0.0,0.0,0.0,-2.9412,-3.0642,-3.142,-3.136,-3.115,0.0,0.0,0.0,0.0,0.0,0.0,-3.2736,-3.4023,-3.522,-3.6207,-3.7494,-3.8422,-3.8901,-4.0068,-4.0666,-4.0666,-4.1145,-4.1422,-4.1422,-4.1422,-4.1422,-4.1422,-4.1422,-4.0636,-3.923,-3.6899,-3.5278,-3.4158,-3.2966,-3.2677,-3.2909,-3.2608,-3.262,-3.2835,-3.327,-3.3277,-3.3152,-3.3152,-3.2203,-3.0929,-3.0204,0.0,0.0,0.0,0.0,-3.2396,-3.421,-3.525,-3.6014,-3.6752,-3.7053,-3.7144,-3.6755,-3.6734,-3.6062,-3.3598,-3.2192,-3.1108,-3.0352,-2.8638,0.0,-2.893,-2.9328,-3.045,-3.316,-3.4358,-3.5433,-3.6651,-3.6228,-3.5717,-3.5329,-3.4235,-3.3494,-3.3282,-3.2138,-3.1048,-3.0066,-2.873,-2.6887,-2.448,0.0,0.0,0.0,0.0,0.0,0.0,0.0,0.0,0.0,0.0,0.0,0.0,0.0,0.0,0.0,0.0,0.0,0.0,0.0,0.0,0.0,0.0,0.0,0.0,0.0,0.0,0.0,0.0,0.0,-3.4144,-3.3724,0.0,0.0,0.0,0.0,-3.4174,-3.5429,-3.6207,-3.6237,-3.7434,-3.8182,-3.8242,-3.9559,-4.0277,-4.0307,-4.0995,-4.1324,-4.1324,-4.1354,-4.1422,-4.1422,-4.1422,-4.1422,-4.1422,-4.1422,-4.0636,-3.9349,-3.8577,-3.7278,-3.5729,-3.5339,-3.4872,-3.4471,-3.4995,-3.5063,-3.4912,-3.5232,-3.4925,-3.4416,-3.4416,-3.2941,-3.1251,-3.1503,-3.0754,0.0,0.0,-3.2603,-3.3391,-3.4202,-3.5021,-3.5705,-3.6093,-3.6457,-3.6818,-3.7095,-3.6961,-3.6378,-3.4873,-3.4068,-3.3205,-3.1829,0.0,-2.9485,-2.9639,-3.0264,-3.1324,-3.2977,-3.4492,-3.5416,-3.556,-3.556,-3.4952,-3.3452,-3.3277,-3.2894,-3.2126,-3.2021,-3.1307,-2.9879,-2.9009,-2.7476,-2.5192,-2.3571,0.0,0.0,0.0,0.0,0.0,0.0,0.0,0.0,0.0,0.0,0.0,0.0,0.0,0.0,0.0,0.0,0.0,0.0,0.0,0.0,0.0,0.0,0.0,0.0,0.0,0.0,0.0,0.0,-3.6267,-3.6926,0.0,-3.7015,-3.6776,-3.6746,-3.6985,-3.8631,-3.9649,-3.9649,-4.1265,-4.2192,-4.2192,-4.309,-4.3539,-4.3539,-4.3778,-4.3898,-4.3898,-4.3898,-4.3688,-4.3269,-4.3269,-4.303,-4.2641,-4.2641,-4.2132,-4.1294,-4.1093,-3.9433,-3.702,-3.665,-3.6561,-3.668,-3.6532,-3.6586,-3.6748,-3.6723,-3.6567,-3.6271,-3.5529,-3.4273,-3.3018,-3.2782,-3.2567,-3.2502,-3.3025,-3.3678,-3.4453,-3.5172,-3.5577,-3.5975,-3.6734,-3.7287,-3.7541,-3.7386,-3.7143,-3.6725,-3.5783,-3.4879,-3.4079,-3.3598,-3.231,-3.1496,-3.2008,-3.1891,-3.23,-3.3857,-3.4062,-3.4288,-3.4787,-3.4021,-3.3234,-3.2686,-3.1762,-3.1093,-3.0801,-3.0341,-2.9828,-2.9315,-2.8083,-2.6767,-2.5502,-2.3491,-2.1989,0.0,0.0,0.0,0.0,0.0,0.0,0.0,0.0,0.0,0.0,0.0,0.0,0.0,0.0,0.0,0.0,0.0,0.0,0.0,0.0,0.0,0.0,0.0,0.0,0.0,-3.5185,-3.702,-3.7878,-3.8766,-3.921,-3.8973,-3.8766,-3.8796,-3.9239,-4.0689,-4.1705,-4.1873,-4.3156,-4.3997,-4.4246,-4.4608,-4.4899,-4.5221,-4.5263,-4.5304,-4.5304,-4.5304,-4.4945,-4.4317,-4.4317,-4.3917,-4.329,-4.329,-4.297,-4.241,-4.241,-4.1048,-3.8933,-3.8655,-3.8629,-3.8711,-3.8326,-3.8258,-3.8202,-3.7858,-3.7734,-3.7524,-3.637,-3.5477,-3.4788,-3.4212,-3.4179,-3.4297,-3.4297,-3.4664,-3.5124,-3.5645,-3.5768,-3.5952,-3.6752,-3.7266,-3.7456,-3.7066,-3.6799,-3.6481,-3.5902,-3.5208,-3.47,-3.4474,-3.3639,-3.3119,-3.3355,-3.3186,-3.341,-3.437,-3.4303,-3.4134,-3.4134,-3.3254,-3.2462,-3.1989,-3.0784,-3.0108,-3.0108,-2.9397,-2.8874,-2.8586,-2.7604,-2.6488,-2.5236,-2.3071,-2.1684,-2.119,0.0,0.0,0.0,0.0,0.0,0.0,0.0,0.0,0.0,0.0,0.0,0.0,0.0,0.0,0.0,0.0,0.0,0.0,0.0,0.0,0.0,0.0,0.0,-3.3945,-3.5999,-3.7713,-3.8977,-3.9151,-3.9411,-4.0087,-3.9555,-3.97,-4.0914,-4.1649,-4.2257,-4.2836,-4.2936,-4.3354,-4.415,-4.3889,-4.414,-4.5,-4.5209,-4.5364,-4.5364,-4.5364,-4.5005,-4.4377,-4.4377,-4.4018,-4.3319,-4.3319,-4.3,-4.244,-4.244,-4.2051,-4.1482,-4.1422,-4.0965,-4.0397,-4.0397,-3.9978,-3.932,-3.8661,-3.8422,-3.8182,-3.6956,-3.6507,-3.6357,-3.5729,-3.5519,-3.5519,-3.5519,-3.5519,-3.5519,-3.5519,-3.5519,-3.5587,-3.591,-3.629,-3.6474,-3.6146,-3.5883,-3.554,-3.515,-3.5177,-3.5057,-3.4421,-3.4418,-3.4303,-3.3592,-3.4066,0.0,-3.4539,-3.5148,-3.5025,-3.3592,-3.3389,-3.278,-3.136,-3.0514,-3.0074,-3.0074,-2.9348,-2.8552,-2.779,-2.7722,-2.6691,-2.4508,-2.2375,-2.1292,-2.1224,0.0,0.0,0.0,0.0,0.0,0.0,0.0,0.0,0.0,0.0,0.0,0.0,0.0,0.0,0.0,0.0,0.0,0.0,0.0,0.0,0.0,-3.1288,-3.2971,-3.4612,-3.6849,-3.8588,-3.9438,-4.0303,-4.0916,-4.1128,-4.0944,-4.0972,-4.1351,-4.1965,-4.2262,-4.2027,-4.2508,-4.2874,-4.3019,-4.3892,-4.4632,-4.5226,-4.6245,-4.6741,-4.6741,-4.6741,-4.6411,-4.5783,-4.5783,-4.5125,-4.4047,-4.4047,-4.3688,-4.306,-4.306,-4.297,-4.2701,-4.1743,-4.0965,-4.0397,-4.0397,-3.9978,-3.9343,-3.92,-3.8811,-3.8332,-3.7973,-3.7225,-3.6447,-3.6267,-3.5878,-3.5519,-3.5519,-3.5519,-3.5519,-3.5519,-3.5519,-3.5554,-3.575,-3.607,-3.6199,-3.5765,-3.5406,-3.4998,-3.4605,-3.4375,-3.4407,-3.4805,-3.5116,-3.5228,-3.5025,-3.516,-3.5295,-3.5295,-3.5013,-3.4641,-3.4235,-3.322,-3.2462,-3.2022,-3.0364,-2.9314,-2.9314,-2.7571,-2.6691,-2.6996,-2.5981,-2.488,-2.3714,-2.3628,-2.3086,0.0,0.0,0.0,0.0,0.0,0.0,0.0,0.0,0.0,0.0,0.0,0.0,0.0,0.0,0.0,0.0,0.0,0.0,0.0,0.0,0.0,0.0,-3.2596,-3.423,-3.5453,-3.7327,-3.8905,-3.9789,-4.054,-4.0974,-4.0974,-4.0974,-4.1055,-4.1327,-4.1679,-4.1889,-4.1828,-4.1712,-4.1991,-4.2667,-4.3257,-4.4056,-4.5049,-4.6123,-4.6668,-4.6668,-4.6668,-4.6343,-4.5723,-4.5723,-4.5027,-4.3867,-4.3991,-4.3686,-4.317,-4.325,-4.329,-4.323,0.0,0.0,0.0,0.0,-4.0157,-3.9798,-3.9529,-3.914,-3.8781,-3.8482,-3.7883,-3.7195,-3.6656,-3.6207,-3.5848,-3.5579,-3.5519,-3.5519,-3.5519,-3.5519,-3.5522,-3.5589,-3.575,-3.5759,-3.5185,-3.4698,-3.42,-3.3836,-3.3531,0.0,-3.4111,-3.4826,-3.5327,-3.5373,-3.5418,-3.5487,-3.5566,-3.5205,-3.4844,-3.4539,-3.3728,-3.297,-3.2361,-3.0838,0.0,0.0,0.0,-2.6708,-2.7131,-2.5744,0.0,0.0,0.0,0.0,0.0,0.0,0.0,0.0,-2.2646,-2.2747,0.0,0.0,0.0,0.0,0.0,0.0,0.0,0.0,0.0,0.0,0.0,0.0,0.0,0.0,0.0,0.0,-3.3571,-3.5303,-3.6531,-3.7738,-3.8846,-3.9949,-4.0134,-4.0161,-4.0161,-4.0161,-4.0372,-4.0874,-4.0927,-4.1161,-4.161,-4.0706,0.0,0.0,0.0,-4.2785,-4.4339,-4.5115,-4.5537,-4.5537,-4.5537,-4.5277,-4.4758,-4.4758,-4.4196,-4.3235,-4.3458,-4.3337,-4.2941,-4.321,-4.329,-4.329,-4.323,-4.288,-4.2231,-4.0876,-4.0397,-4.0307,-3.9649,0.0,0.0,-3.8721,-3.8452,-3.8153,-3.6956,-3.6537,-3.6357,-3.5699,-3.5519,-3.5519,-3.5519,-3.5519,-3.5519,-3.5519,-3.5519,-3.531,-3.4653,-3.4023,-3.3486,-3.3032,-3.2824,-3.2718,-3.2895,-3.3935,-3.4811,-3.4954,-3.5128,-3.5291,-3.5429,-3.5566,-3.5329,-3.4675,-3.4539,0.0,-3.2666,-3.1718,-3.0615,-2.9348,-2.8416,-2.7891,-2.779,-2.664,-2.6251,-2.6793,-2.5625,-2.527,-2.5829,-2.5947,-2.6319,-2.6928,-2.5523,-2.5203,0.0,0.0,0.0,0.0,0.0,0.0,0.0,0.0,0.0,0.0,0.0,0.0,0.0,0.0,0.0,-3.4329,-3.5479,-3.6631,-3.8215,-3.8615,-3.889,-3.9118,-3.955,-3.9804,-3.9804,-3.9804,-3.9855,-3.9956,-3.9982,-3.9829,-3.9524,-3.9295,-3.9265,-3.9573,-4.0552,-4.1388,-4.2127,-4.3302,-4.3929,-4.3929,-4.3929,0.0,-4.3761,-4.3761,-4.3322,-4.2616,-4.3185,-4.3063,-4.2456,-4.305,-4.329,-4.323,-4.2761,-4.25,-4.2231,-4.0876,-4.0397,-4.0307,-3.9649,-3.9373,-3.9409,-3.926,-3.8841,-3.8242,-3.7464,-3.6896,0.0,-3.5699,-3.5519,-3.5519,-3.5519,-3.5519,-3.5519,-3.5519,-3.5519,-3.531,-3.4653,-3.4414,-3.3995,-3.2975,-3.2933,-3.2944,-3.2585,-3.3266,-3.3928,-3.4178,-3.4496,-3.484,-3.5152,-3.5418,-3.5532,-3.5397,-3.4844,-3.437,-3.4121,-3.2307,-3.1089,-3.0784,-2.9499,-2.8484,-2.7824,-2.8146,-2.8112,-2.7587,-2.7943,-2.7875,-2.7384,-2.801,-2.8434,-2.8536,-2.7604,-2.7249,0.0,0.0,0.0,0.0,0.0,0.0,0.0,0.0,0.0,0.0,0.0,-3.0507,-3.1637,0.0,-3.4279,-3.573,-3.6634,-3.7588,-3.8768,-3.912,-3.927,-3.927,-3.9521,-3.9697,-3.9697,-3.9697,-3.9697,-3.9697,-3.9697,-3.9572,-3.9295,-3.907,-3.907,-3.9446,-4.0039,-4.0732,-4.1364,-4.2291,-4.2765,-4.2765,-4.2765,-4.2765,-4.2765,-4.2765,-4.2351,-4.1736,-4.2385,-4.228,-4.1715,-4.2374,-4.2659,-4.2629,-4.2305,-4.2466,-4.2701,-4.1384,-4.0876,-4.0756,-3.9768,-3.9373,-3.9373,-3.9373,-3.92,-3.8781,-3.8093,-3.7674,-3.7225,-3.6267,-3.5998,-3.5908,-3.5579,-3.5519,-3.5519,-3.5519,-3.5519,-3.54,-3.507,-3.4743,-3.4294,-3.3727,-3.3186,-3.2759,-3.2484,-3.2514,-3.2783,-3.3469,-3.3986,-3.4366,-3.4667,-3.5024,-3.5258,-3.5258,-3.4923,-3.4554,-3.4164,-3.2144,-3.0704,-3.0336,-2.9264,-2.8643,-2.859,-2.8643,-2.8643,-2.859,-2.8643,-2.8643,-2.859,-2.8977,-2.9398,-2.9747,-2.9345,-2.9072,0.0,0.0,0.0,0.0,0.0,0.0,0.0,-2.8108,-2.8549,-3.0256,-3.1712,-3.2943,-3.3721,-3.4977,-3.6081,-3.6782,-3.7688,-3.8492,-3.8969,-3.9496,-3.9823,-3.9697,-3.9697,-3.9697,-3.9697,-3.9697,-3.9697,-3.9697,-3.9697,-3.9697,-3.9697,-3.927,-3.9322,-4.0006,-3.998,-4.0304,-4.0971,-4.1345,-4.1544,-4.1544,-4.1544,-4.1544,-4.1544,-4.1544,-4.1205,-4.0609,-4.1169,-4.1163,-4.0802,-4.1394,-4.1603,-4.1603,-4.1603,-4.2017,-4.2522,-4.1564,-4.1232,-4.1062,-3.9785,-3.9373,-3.9373,-3.9373,-3.9373,-3.9254,-3.8601,-3.8392,-3.8153,-3.6985,-3.6567,-3.6357,-3.5818,-3.5609,-3.5519,-3.5519,-3.5519,-3.5519,-3.5519,-3.507,-3.4683,-3.4533,-3.3634,-3.2826,-3.2527,-3.2049,-3.1976,-3.285,-3.3351,-3.3739,-3.3993,-3.4391,-3.4667,-3.4667,-3.4667,-3.4305,-3.3425,-3.1715,-3.0333,-2.9445,-2.8832,-2.8779,-2.9379,-2.8832,-2.8779,-2.9379,-2.8832,-2.8832,-2.9412,-2.9412,-2.9708,-3.03,-3.03,-3.0253,-2.5314,-2.6858,-2.8889,-2.9603,-3.0298,-3.0859,0.0,-3.0934,-3.1411,-3.3093,-3.3972,-3.4901,-3.6433,-3.6885,-3.7337,-3.8466,-3.9094,-3.9521,-3.9597,-4.0074,-4.0249,-3.9747,-3.9697,-3.9697,-3.9697,-3.9697,-3.9697,-3.9697,-3.9697,-3.9697,-3.9697,-3.9647,-3.9622,-3.9749,-3.9725,-3.9776,-3.9903,-3.9929,-3.9929,-3.9929,-3.9929,-3.9929,-3.9929,-3.9929,-3.9625,-3.9039,-3.9207,-3.954,-4.0043,-4.013,-4.013,-4.013,-4.013,-4.0189,-4.0307,-4.0474,-4.0626,-4.0604,-3.9528,-3.9265,-3.9373,-3.9373,-3.9373,-3.9254,-3.8601,-3.8392,-3.8242,-3.7524,-3.6896,-3.6477,-3.6387,-3.5938,-3.5519,-3.5519,-3.5519,-3.5519,-3.5519,-3.5459,-3.522,-3.4623,-3.4384,-3.3873,-3.2706,-3.2467,-3.2315,-3.2142,-3.2465,-3.2841,-3.3108,-3.3495,-3.3751,-3.3751,-3.3751,-3.3205,-3.1855,-3.1533,-3.0826,-2.9486,-2.9325,-2.9303,-2.939,-2.9325,-2.9325,-2.939,-2.9325,-2.9325,-2.939,-2.939,-2.9454,-2.9518,-2.9518,-2.9838,-2.6655,-2.8329,-3.0319,-3.1785,-3.3002,-3.3897,-3.4198,-3.4318,-3.462,-3.5604,-3.6508,-3.7236,-3.7588,-3.7939,-3.8417,-3.922,-3.9546,-3.9923,-4.0551,-4.0576,-4.0425,-4.0199,-3.9597,-3.9346,-3.9672,-3.9396,-3.9346,-3.9672,-3.9697,-3.9697,-3.9697,-3.9697,-3.9697,-3.9697,-3.9697,-3.9697,-3.9697,-3.9697,-3.9697,-3.9697,-3.9697,-3.9521,-3.922,-3.922,-3.8942,-3.8501,-3.8346,-3.8541,-3.9077,-3.9077,-3.9077,-3.9077,-3.9077,-3.9077,-3.9091,-3.9322,-3.9704,-3.9925,-3.9052,-3.9046,-3.9373,-3.9373,-3.9373,-3.9379,-3.908,-3.899,-3.8841,-3.8182,-3.7793,-3.7434,-3.6686,-3.6267,-3.5968,-3.5579,-3.5519,-3.5519,-3.5519,-3.5519,-3.5429,-3.513,-3.4773,-3.4324,-3.3754,-3.3036,-3.2437,-3.2314,-3.2322,-3.2437,-3.2629,-3.2949,-3.313,-3.313,-3.313,-3.2751,-3.1748,-3.1331,-3.0644,-2.9643,-2.9225,-2.8996,-2.8996,-2.8996,-2.8996,-2.8996,-2.8996,-2.8996,-2.8996,-2.936,-2.9556,-2.958,-2.9966,-3.0323,-2.7715,-2.9427,-3.1281,-3.3145,-3.4527,-3.566,-3.6349,-3.647,-3.6543,-3.7166,-3.8015,-3.8517,-3.809,-3.8492,-3.9095,-3.9597,-3.9948,-4.0425,-4.1175,-4.1003,-4.0701,-4.0526,-3.9396,-3.8843,-3.9421,-3.9145,-3.9044,-3.9446,-3.9622,-3.9697,-3.9697,-3.9697,-3.9697,-3.9697,-3.9697,-3.9697,-3.9697,-3.9697,-3.9697,-3.9697,-3.9697,-3.9396,-3.8919,-3.8542,-3.8284,-3.7998,-3.7593,-3.7638,-3.7933,-3.7933,-3.7933,-3.7933,-3.7933,-3.7933,-3.7938,-3.7973,-3.8532,-3.9173,-3.8582,-3.8684,-3.9083,-3.9083,-3.9083,-3.9083,-3.9083,-3.9083,-3.8964,-3.8561,-3.8299,-3.8042,-3.7152,-3.6712,-3.6357,-3.5878,-3.5639,-3.5519,-3.5519,-3.5519,-3.5519,-3.5519,-3.51,-3.4743,-3.4533,-3.3694,-3.2946,-3.2557,-3.24,-3.2264,-3.2135,-3.2327,-3.2465,-3.2465,-3.2465,-3.2187,-3.1482,-3.0988,-3.0341,-2.9452,-2.8922,-2.8576,-2.8391,-2.8415,-2.8415,-2.8415,-2.8415,-2.8415,-2.8391,-2.9076,-2.9391,-2.9421,-3.0099,-3.0407,-2.8061,-2.9949,-3.1725,-3.3221,-3.4592,-3.5713,-3.6595,-3.6577,-3.6653,-3.7394,-3.7817,-3.8015,-3.8015,-3.8492,-3.9095,-3.9597,-4.0601,-4.125,-4.1275,-4.1275,-4.1075,-4.0576,-3.9044,-3.8266,-3.8894,-3.8919,-3.8919,-3.8944,-3.9396,-3.9697,-3.9697,-3.9697,-3.9697,-3.9697,-3.9697,-3.9697,-3.9697,-3.9697,-3.9697,-3.9697,-3.9697,-3.9396,-3.8894,-3.7788,-3.726,-3.7209,-3.6679,-3.6452,-3.6452,-3.6452,-3.6452,-3.6452,-3.6452,-3.6452,-3.6424,-3.633,-3.7183,-3.8434,-3.8166,-3.8159,-3.824,-3.824,-3.824,-3.824,-3.824,-3.824,-3.8277,-3.8464,-3.8179,-3.786,-3.8009,-3.7297,-3.6477,-3.6447,-3.5968,-3.5519,-3.5519,-3.5519,-3.5519,-3.5519,-3.5489,-3.525,-3.4623,-3.4474,-3.3993,-3.2706,-3.2497,-3.2258,-3.1599,-3.1539,-3.1539,-3.1539,-3.1539,-3.1269,-3.058,-3.052,-2.9951,-2.8693,-2.8603,-2.8329,-2.7665,-2.7635,-2.7635,-2.7635,-2.7635,-2.7635,-2.761,-2.8329,-2.8633,-2.8633,-2.9319,-2.9619,-2.7195,-2.912,-3.1048,-3.2471,-3.3825,-3.506,-3.6174,-3.6782,-3.7187,-3.7529,-3.7519,-3.7462,-3.7462,-3.7312,-3.7687,-3.8944,-4.0375,-4.1455,-4.1831,-4.1882,-4.1681,-4.1075,-3.9245,-3.809,-3.8266,-3.7965,-3.8114,-3.8869,-3.9095,-3.9295,-3.9672,-3.9697,-3.9697,-3.9697,-3.9697,-3.9697,-3.9697,-3.9697,-3.9697,-3.9697,-3.8944,-3.8467,-3.8266,-3.7136,-3.6681,-3.6681,-3.648,-3.6405,-3.6405,-3.6405,-3.6405,-3.6405,-3.6405,-3.6405,-3.6427,-3.6506,-3.6781,-3.7103,-3.6877,-3.7081,-3.7389,-3.7007,-3.6866,-3.6866,-3.6866,-3.6866,-3.6944,-3.7319,-3.7595,-3.7775,-3.7696,-3.7747,-3.7524,-3.6686,-3.6327,-3.6028,-3.5609,-3.5519,-3.5519,-3.5519,-3.5519,-3.5429,-3.519,-3.4771,-3.4023,-3.2706,-3.2108,-3.175,-3.154,-3.1511,-3.1511,-3.1511,-3.1511,-3.1421,-3.1182,-3.0761,-3.0313,-2.9894,-2.9475,-2.9172,-2.8933,-2.8933,-2.8933,-2.8933,-2.8933,-2.8933,-2.8933,-2.9564,-2.9864,-2.9894,-3.0552,-3.0853,-2.7699,-2.9522,-3.1287,-3.248,-3.3547,-3.4626,-3.5568,-3.6217,-3.6579,-3.6439,-3.6258,-3.6056,-3.5858,-3.5685,-3.6131,-3.7766,-3.9374,-4.0686,-4.1428,-4.1409,-4.1106,-4.0706,-3.8728,-3.7468,-3.7568,-3.6996,-3.7092,-3.8191,-3.8693,-3.9019,-3.9371,-3.9597,-3.9697,-3.9697,-3.9697,-3.9697,-3.9697,-3.9697,-3.9697,-3.9672,-3.8542,-3.8015,-3.7965,-3.6908,-3.6405,-3.6405,-3.6405,-3.6405,-3.6405,-3.6405,-3.6405,-3.6405,-3.6405,-3.6405,-3.6405,-3.6546,-3.6527,-3.6411,-3.6174,-3.6339,-3.6566,-3.598,-3.5762,-3.5762,-3.5762,-3.5762,-3.5882,-3.6346,-3.6894,-3.7377,-3.742,-3.7711,-3.7701,-3.6665,-3.6255,-3.5929,-3.5344,-3.5261,-3.5326,-3.5359,-3.5424,-3.5519,-3.5519,-3.4921,-3.4234,-3.3335,-3.2467,-3.178,-3.154,-3.1511,-3.1511,-3.1511,-3.1511,-3.1511,-3.1511,-3.1092,-3.0761,-3.0522,-3.0133,-2.9804,-2.9621,-2.9621,-2.9621,-2.9621,-2.9621,-2.9621,-2.9621,-3.0193,-3.0492,-3.0522,-3.1182,-3.1511,-2.953,-3.1127,-3.2374,-3.3053,-3.3659,-3.4195,-3.4804,-3.488,-3.4683,-3.4198,-3.3975,-3.3646,-3.3166,-3.3478,-3.4342,-3.6002,-3.7608,-3.8995,-4.0058,-3.9818,-3.945,-3.9402,-3.758,-3.6384,-3.6688,-3.6064,-3.606,-3.7089,-3.8216,-3.8894,-3.8969,-3.9396,-3.9697,-3.9697,-3.9697,-3.9697,-3.9697,-3.9672,-3.9647,-3.9647,-3.8492,-3.7965,-3.7914,-3.6908,-3.6405,-3.6405,-3.6405,-3.6405,-3.6405,-3.6405,-3.6405,-3.6405,-3.6405,-3.6405,-3.6405,-3.6405,-3.6405,-3.6348,-3.6115,-3.593,-3.5717,-3.5122,-3.4909,-3.4909,-3.4909,-3.4909,-3.4991,-3.5481,-3.6016,-3.661,-3.7095,-3.7177,-3.6982,-3.6382,-3.5745,-3.5172,-3.4738,-3.4765,-3.4935,-3.51,-3.5359,-3.5519,-3.5519,-3.4951,-3.4563,-3.4503,-3.3425,-3.2348,-3.163,-3.154,-3.1511,-3.1511,-3.1511,-3.1511,-3.1511,-3.1511,-3.1241,-3.0582,-3.0552,-3.0283,-2.9741,-2.9711,-2.9711,-2.9711,-2.9711,-2.9711,-2.9711,-3.0283,-3.0552,-3.0582,-3.1182,-3.1511,-3.0368,-3.1643,-3.2611,-3.2514,-3.2336,-3.2292,-3.2588,-3.2608,-3.2415,-3.168,-3.0866,-3.0191,-3.0053,-3.0078,-3.0744,-3.2623,-3.5092,-3.6845,-3.7175,-3.7748,-3.7805,-3.7107,-3.5785,-3.5115,-3.5689,-3.5778,-3.6052,-3.6773,-3.7693,-3.8592,-3.9446,-3.9622,-3.9697,-3.9697,-3.9697,-3.9697,-3.9697,-3.927,-3.9069,-3.9069,-3.7939,-3.7387,-3.7362,-3.6732,-3.6405,-3.6405,-3.6405,-3.6405,-3.6405,-3.6405,-3.6405,-3.6405,-3.6405,-3.6405,-3.6405,-3.6405,-3.6405,-3.6254,-3.5375,-3.5029,-3.4882,-3.3887,-3.3556,-3.3556,-3.3556,-3.3556,-3.3683,-3.4079,-3.4677,-3.5264,-3.5669,-3.6129,-3.6319,-3.5693,-3.5078,-3.4573,-3.4271,-3.4215,-3.4312,-3.4677,-3.5166,-3.5519,-3.5519,-3.537,-3.507,-3.4593,-3.4234,-3.3574,-3.2378,-3.1809,-3.1511,-3.1511,-3.1511,-3.1511,-3.1511,-3.1511,-3.1421,-3.1241,-3.1241,-3.1182,-3.1002,-3.1002,-3.1002,-3.1002,-3.1002,-3.1002,-3.1002,-3.1152,-3.1241,-3.1241,-3.1421,-3.1511,-3.1543,-3.2519,-3.3262,-3.2832,-3.2266,-3.176,-3.16,-3.1151,-3.0506,-2.9367,-2.8215,-2.7413,-2.7634,-2.7635,-2.8273,-3.0383,-3.2801,-3.4582,-3.4999,-3.5703,-3.5909,-3.536,-3.435,-3.3922,-3.4594,-3.4939,-3.546,-3.6288,-3.7613,-3.8668,-3.9295,-3.9572,-3.9697,-3.9697,-3.9697,-3.9697,-3.9697,-3.9145,-3.8919,-3.8919,-3.7713,-3.7186,-3.7161,-3.6656,-3.6405,-3.6405,-3.6405,-3.6405,-3.6405,-3.6405,-3.6405,-3.6405,-3.6405,-3.6405,-3.6405,-3.6405,-3.6405,-3.6254,-3.5102,-3.468,-3.455,-3.3445,-3.3111,-3.3111,-3.3111,-3.3111,-3.3154,-3.3471,-3.3995,-3.4538,-3.48,-3.5264,-3.5506,-3.4935,-3.4528,-3.417,-3.3973,-3.4136,-3.444,-3.4835,-3.5041,-3.5162,-3.5228,-3.5326,-3.5272,-3.4981,-3.4713,-3.4234,-3.3455,-3.2557,-3.1839,-3.154,-3.1511,-3.1511,-3.1511,-3.1511,-3.1511,-3.1511,-3.1511,-3.1511,-3.1511,-3.1511,-3.1511,-3.1511,-3.1511,-3.1511,-3.1511,-3.1511,-3.1511,-3.1511,-3.1511,-3.1511,-3.2871,-3.3555,-3.4023,-3.3476,-3.2715,-3.1876,-3.1169,-2.9973,-2.8635,-2.7051,-2.5706,-2.4977,-2.5381,-2.5529,-2.6356,-2.8549,-3.0535,-3.2078,-3.2944,-3.3458,-3.3775,-3.3775,-3.2966,-3.2746,-3.3363,-3.382,-3.4479,-3.5573,-3.7356,-3.8537,-3.8766,-3.9216,-3.9465,-3.9465,-3.9465,-3.9465,-3.9465,-3.8866,-3.8541,-3.8541,-3.7417,-3.6868,-3.6868,-3.6441,-3.6263,-3.631,-3.631,-3.6358,-3.6405,-3.6405,-3.6405,-3.6405,-3.6405,-3.6405,-3.6405,-3.6405,-3.6405,-3.6254,-3.5177,-3.4776,-3.455,-3.3445,-3.3111,-3.3111,-3.3111,-3.3111,-3.3154,-3.3326,-3.3666,-3.4004,-3.4189,-3.4481,-3.4639,-3.407,-3.3911,-3.382,-3.3709,-3.4137,-3.4604,-3.4988,-3.479,-3.4651,-3.4769,-3.4968,-3.5228,-3.5457,-3.5011,-3.4623,-3.4503,-3.3395,-3.2407,-3.1839,-3.169,-3.163,-3.163,-3.154,-3.1511,-3.1511,-3.1511,-3.1511,-3.1511,-3.1511,-3.1511,-3.1511,-3.1511,-3.1511,-3.1511,-3.1511,-3.1511,-3.1511,-3.16,-3.163,-3.3828,-3.4219,-3.4316,-3.3184,-3.2266,-3.1211,-2.9665,-2.8088,-2.636,-2.4275,-2.2839,-2.1948,-2.2027,-2.2623,-2.3759,-2.557,-2.7609,-2.9158,-2.9674,-3.0429,-3.0926,-3.0926,-3.073,-3.1017,-3.2027,-3.2853,-3.3596,-3.4294,-3.534,-3.661,-3.8117,-3.8243,-3.8291,-3.8291,-3.8291,-3.8291,-3.8291,-3.7345,-3.686,-3.6836,-3.572,-3.5211,-3.5211,-3.5356,-3.5524,-3.5764,-3.5955,-3.6193,-3.6405,-3.6405,-3.6405,-3.6405,-3.6405,-3.6405,-3.6405,-3.6405,-3.6405,-3.6329,-3.5583,-3.5056,-3.455,-3.3445,-3.3111,-3.3111,-3.3111,-3.3111,-3.3111,-3.3154,-3.3197,-3.3283,-3.3326,-3.3368,-3.3428,-3.3284,-3.2878,-3.2606,-3.2916,-3.3318,-3.3637,-3.3716,-3.392,-3.415,-3.4162,-3.4476,-3.4905,-3.5424,-3.54,-3.513,-3.4563,-3.3814,-3.3275,-3.3155,-3.2677,-3.2318,-3.2318,-3.1809,-3.1511,-3.1511,-3.1511,-3.1511,-3.1511,-3.1511,-3.1511,-3.1511,-3.1511,-3.1511,-3.1511,-3.1511,-3.1511,-3.1511,-3.2049,-3.2318,-3.4141,-3.4375,-3.4453,-3.3379,-3.2148,-3.0742,-2.8984,-2.6914,-2.4805,-2.2891,-2.1269,-2.0352,-2.0801,-2.123,-2.2129,-2.4082,-2.6035,-2.7519,-2.8184,-2.9199,-2.9961,-3.0176,-3.0195,-3.0543,-3.1459,-3.2207,-3.2815,-3.3268,-3.4,-3.5035,-3.6534,-3.6588,-3.6588,-3.6588,-3.6588,-3.6588,-3.6588,-3.5567,-3.5057,-3.5033,-3.4013,-3.3476,-3.3525,-3.3944,-3.4458,-3.4993,-3.5404,-3.5883,-3.6405,-3.6405,-3.6405,-3.6405,-3.6405,-3.6405,-3.6405,-3.6405,-3.6405,-3.6329,-3.5683,-3.5332,-3.4981,-3.4198,-3.3545,-3.3111,-3.3111,-3.3111,-3.3111,-3.3111,-3.3111,-3.3111,-3.3111,-3.3111,-3.3111,-3.3111,-3.2953,-3.2938,-3.3357,-3.3468,-3.3529,-3.3715,-3.3564,-3.3522,-3.3854,-3.3962,-3.424,-3.4865,-3.4931,-3.4813,-3.4489,-3.4262,-3.3947,-3.3543,-3.3215,-3.2886,-3.2527,-3.2198,-3.1869,-3.154,-3.1511,-3.1511,-3.1511,-3.1511,-3.1511,-3.1511,-3.1511,-3.1511,-3.1511,-3.1511,-3.1511,-3.1511,-3.2168,-3.2527,-3.4316,-3.4512,-3.459,-3.3555,-3.2012,-3.0234,-2.832,-2.5879,-2.3516,-2.1816,-2.0234,-1.9355,-2.0077,-2.0273,-2.1016,-2.3047,-2.4766,-2.6172,-2.7129,-2.8359,-2.9355,-2.9863,-3.0,-3.0427,-3.1229,-3.1754,-3.214,-3.2428,-3.2784,-3.3572,-3.4869,-3.4925,-3.4925,-3.4925,-3.4925,-3.4925,-3.4925,-3.406,-3.3617,-3.3542,-3.2568,-3.2104,-3.2155,-3.2622,-3.33,-3.4091,-3.4629,-3.5331,-3.6073,-3.6073,-3.6073,-3.6073,-3.6121,-3.6168,-3.6216,-3.6263,-3.6358,-3.6355,-3.5881,-3.5608,-3.5433,-3.5006,-3.4223,-3.342,-3.342,-3.342,-3.3395,-3.3294,-3.3244,-3.3219,-3.3119,-3.3111,-3.3111,-3.3111,-3.324,-3.3454,-3.3836,-3.3643,-3.3487,-3.3657,-3.3224,-3.2966,-3.3357,-3.3354,-3.3487,-3.3957,-3.3997,-3.3997,-3.3997,-3.423,-3.4189,-3.3648,-3.3629,-3.3454,-3.2976,-3.2796,-3.2497,-3.1959,-3.1929,-3.1929,-3.1929,-3.1929,-3.1929,-3.1929,-3.1929,-3.1929,-3.1929,-3.1929,-3.1929,-3.1929,-3.2617,-3.2946,-3.4766,-3.498,-3.4941,-3.3262,-3.1543,-2.9609,-2.7129,-2.4551,-2.2187,-2.0449,-1.9319,-1.8676,-1.8773,-1.9141,-1.998,-2.1777,-2.3164,-2.4473,-2.5693,-2.7031,-2.8144,-2.8945,-2.9394,-3.0117,-3.1348,-3.1524,-3.1584,-3.1623,-3.1328,-3.1903,-3.3685,-3.3741,-3.3741,-3.3741,-3.3741,-3.3741,-3.3741,-3.3172,-3.2861,-3.2861,-3.1955,-3.1507,-3.1486,-3.1679,-3.2196,-3.2951,-3.3499,-3.4213,-3.4969,-3.4969,-3.4969,-3.4969,-3.5211,-3.5476,-3.5716,-3.5955,-3.6193,-3.6405,-3.6355,-3.5956,-3.5483,-3.5433,-3.5006,-3.4575,-3.4575,-3.4575,-3.4474,-3.3972,-3.3822,-3.3696,-3.3219,-3.3111,-3.3111,-3.3111,-3.3111,-3.3154,-3.3154,-3.3172,-3.297,-3.2483,-3.2612,-3.2651,-3.2222,-3.2466,-3.2698,-3.2775,-3.2763,-3.2763,-3.2763,-3.3108,-3.3498,-3.3902,-3.4071,-3.4195,-3.4292,-3.3754,-3.3395,-3.3335,-3.3305,-3.3305,-3.3305,-3.3305,-3.3305,-3.3305,-3.3305,-3.3305,-3.3305,-3.3305,-3.3305,-3.3335,-3.3993,-3.4324,-3.3906,-3.4258,-3.4258,-3.2773,-3.0918,-2.8828,-2.6523,-2.3789,-2.1346,-2.0176,-1.8987,-1.8305,-1.8559,-1.8734,-1.9375,-2.0879,-2.2187,-2.3477,-2.4766,-2.6074,-2.7305,-2.8418,-2.8691,-2.9316,-3.0605,-3.0976,-3.125,-3.1504,-3.1133,-3.1228,-3.196,-3.196,-3.196,-3.196,-3.196,-3.196,-3.196,-3.1495,-3.1273,-3.1252,-3.0625,-3.0201,-2.9917,-3.0323,-3.0831,-3.1359,-3.1869,-3.2577,-3.3327,-3.3327,-3.3327,-3.3327,-3.3796,-3.436,-3.4945,-3.5331,-3.5883,-3.6405,-3.6405,-3.6254,-3.6031,-3.6031,-3.5881,-3.5579,-3.4926,-3.468,-3.4675,-3.4449,-3.4148,-3.3922,-3.4048,-3.3822,-3.3571,-3.3571,-3.3319,-3.3111,-3.3111,-3.3111,-3.3061,-3.2767,-3.2676,-3.2628,-3.2642,-3.2633,-3.2667,-3.2923,-3.2712,-3.2469,-3.2469,-3.25,-3.2747,-3.3346,-3.4042,-3.4443,-3.4502,-3.4264,-3.3903,-3.3514,-3.3484,-3.3484,-3.3484,-3.3484,-3.3484,-3.3484,-3.3484,-3.3484,-3.3484,-3.3484,-3.3484,-3.3514,-3.4204,-3.4503,-3.3086,-3.373,-3.3926,-3.2519,-3.0527,-2.8359,-2.6181,-2.3354,-2.0976,-2.0273,-1.9199,-1.8477,-1.8734,-1.8792,-1.9219,-2.041,-2.1445,-2.2578,-2.3867,-2.5176,-2.6426,-2.7598,-2.7832,-2.8457,-2.9883,-3.0664,-3.125,-3.168,-3.1309,-3.1016,-3.0898,-3.0898,-3.0898,-3.0898,-3.0898,-3.0898,-3.0898,-3.0566,-3.041,-3.0391,-2.9961,-2.9531,-2.9101,-2.953,-2.9802,-3.0068,-3.0608,-3.1206,-3.1847,-3.1847,-3.1847,-3.1898,-3.2476,-3.325,-3.3993,-3.4532,-3.5235,-3.593,-3.593,-3.593,-3.593,-3.6026,-3.6073,-3.6043,-3.5315,-3.5111,-3.5177,-3.4981,-3.4575,-3.4223,-3.4625,-3.4424,-3.4098,-3.3947,-3.3596,-3.3269,-3.3119,-3.3111,-3.3111,-3.3111,-3.2895,-3.271,-3.2823,-3.2643,-3.2536,-3.2659,-3.2372,-3.2031,-3.1874,-3.1849,-3.1988,-3.2417,-3.3248,-3.397,-3.4448,-3.4483,-3.4275,-3.3799,-3.3769,-3.3769,-3.3769,-3.3769,-3.3769,-3.3769,-3.3769,-3.3769,-3.3769,-3.3769,-3.3769,-3.3769,-3.4243,-3.4483,-3.2578,-3.373,-3.4277,-3.2598,-3.0527,-2.8359,-2.6181,-2.3354,-2.1073,-2.0703,-1.992,-1.9277,-1.9277,-1.9277,-1.9607,-2.0468,-2.0957,-2.1658,-2.3032,-2.4323,-2.5458,-2.6309,-2.6777,-2.7695,-2.9414,-3.0742,-3.1699,-3.219,-3.1758,-3.1328,-3.0918,-3.0898,-3.0898,-3.0898,-3.0898,-3.0898,-3.0898,-3.0879,-3.0879,-3.0879,-3.041,-2.9961,-2.9607,-2.947,-2.9447,-2.9533,-2.9848,-3.0318,-3.0836,-3.0836,-3.0836,-3.0888,-3.1432,-3.2095,-3.2851,-3.34,-3.4115,-3.4823,-3.4823,-3.4823,-3.4872,-3.5114,-3.538,-3.5668,-3.5908,-3.6168,-3.6279,-3.5633,-3.5107,-3.468,-3.468,-3.4726,-3.4575,-3.4022,-3.3897,-3.3746,-3.3194,-3.3111,-3.3111,-3.3111,-3.3111,-3.2893,-3.2315,-3.2215,-3.2014,-3.1502,-3.1427,-3.1226,-3.0683,-3.0939,-3.1229,-3.1209,-3.1599,-3.2506,-3.4264,-3.4399,-3.4399,-3.4399,-3.4399,-3.4399,-3.4399,-3.4399,-3.4399,-3.4399,-3.4399,-3.4399,-3.4399,-3.4399,-3.4399,-3.4399,-3.4399,-3.4399,-3.0351,-3.1328,-3.1758,-3.0312,-2.8769,-2.7051,-2.4902,-2.2711,-2.0976,-2.0273,-1.9668,-1.9297,-1.9297,-1.9043,-1.9121,-1.998,-2.0234,-2.0996,-2.2934,-2.4004,-2.5176,-2.6641,-2.7969,-2.9219,-3.0371,-3.084,-3.1387,-3.2109,-3.1504,-3.1035,-3.0898,-3.0898,-3.0898,-3.0898,-3.0898,-3.0898,-3.0898,-3.0898,-3.0898,-3.0898,-3.0742,-3.0293,-2.9626,-2.9545,-2.9238,-2.8708,-2.8814,-2.892,-2.9079,-2.9079,-2.9079,-2.9132,-2.9691,-3.0401,-3.1154,-3.1717,-3.2426,-3.3105,-3.3105,-3.3105,-3.3178,-3.3648,-3.4239,-3.4848,-3.5331,-3.593,-3.6279,-3.5658,-3.568,-3.5755,-3.5332,-3.5232,-3.5182,-3.5031,-3.4449,-3.3847,-3.3671,-3.3345,-3.3111,-3.3111,-3.3111,-3.3061,-3.2842,-3.2792,-3.2742,-3.2566,-3.2215,-3.1888,-3.1738,-3.159,-3.1621,-3.1928,-3.1873,-3.2165,-3.3101,-3.315,-3.315,-3.315,-3.315,-3.315,-3.315,-3.315,-3.315,-3.315,-3.315,-3.315,-3.315,-3.315,-3.315,-3.315,-3.315,-3.315,-2.8189,-2.9238,-2.959,-2.8281,-2.7109,-2.5801,-2.3965,-2.2344,-2.1034,-2.0489,-2.0078,-1.9727,-1.9551,-1.9297,-1.926,-1.9824,-2.0059,-2.0801,-2.2656,-2.3926,-2.5371,-2.7266,-2.8867,-3.0019,-3.0566,-3.0937,-3.1348,-3.1894,-3.1426,-3.1055,-3.0898,-3.0898,-3.0898,-3.0898,-3.0898,-3.0898,-3.0898,-3.0898,-3.0898,-3.0898,-3.0898,-3.0508,-2.9805,-2.9805,-2.9336,-2.8535,-2.8535,-2.8437,0.0,-2.8301,-2.8301,-2.8335,-2.8761,-2.9375,-3.0068,-3.0557,-3.1154,-3.1746,-3.1746,-3.1746,-3.1796,-3.2426,-3.33,-3.4239,-3.4848,-3.5667,-3.6329,-3.5956,-3.6107,-3.6329,-3.5956,-3.5855,-3.5805,-3.5533,-3.4981,-3.4399,-3.3997,-3.3621,-3.3319,-3.3162,-3.3111,-3.3111,-3.3111,-3.3111,-3.3111,-3.3111,-3.2767,-3.2466,-3.224,-3.1996,-3.1924,-3.1979,-3.1766,-3.1695,-3.1825,-3.2036,-3.2191,-3.2191,-3.2191,-3.2191,-3.2191,-3.2191,-3.2191,-3.2191,-3.2191,-3.2191,-3.2191,-3.2191,-3.2191,-3.2191,-3.2191,-3.2327,0.0,-2.7208,-2.7668,-2.6462,-2.5509,-2.4602,-2.3315,-2.2026,0.0,-2.1071,-2.078,-2.0352,-1.9963,-1.9828,-1.9809,-1.9848,-2.0216,-2.0956,-2.2318,-2.4134,-2.6113,-2.8184,-2.9531,-3.0293,-3.0293,-3.1035,-3.1523,-3.1523,-3.1484,-3.1309,-3.0918,-3.0898,-3.0898,-3.0898,-3.0898,-3.0898,-3.0898,-3.0898,-3.0898,-3.0898,-3.0898,-3.0644,-3.0195,-3.0195,-2.9746,-2.8965,-2.8965,-2.873,-2.834,-2.834,-2.832,-2.8301,-2.8568,-2.8973,-2.9481,-2.9743,-3.0214,-3.063,-3.063,-3.063,-3.0733,-3.133,-3.2376,-3.3598,-3.436,-3.5404,-3.631,-3.631,-3.631,-3.631,-3.631,-3.631,-3.6185,-3.5637,-3.5487,-3.5232,-3.4248,-3.3972,-3.3796,-3.3294,-3.3194,-3.3194,-3.3194,-3.3194,-3.3194,-3.3144,-3.3187,-3.2918,-3.234,-3.2265,-3.2064,-3.1562,-3.1461,-3.126,-3.0758,-3.1175,-3.1421,-3.1368,-3.1368,-3.1368,-3.1368,-3.1368,-3.1368,-3.1368,-3.1368,-3.1368,-3.1368,-3.1368,-3.1368,-3.1368,-3.1368,-3.1686,-2.0754,0.0,-2.4658,-2.4039,-2.3448,-2.2737,0.0,-2.0712,-2.0189,-1.9832,-1.9683,-1.959,-1.9457,-1.9178,-1.9067,-1.9383,-1.9492,-2.0238,-2.2365,-2.5569,-2.8188,-2.9609,-3.0605,-3.1211,-3.1211,-3.1406,-3.1523,-3.1523,-3.1211,-3.0996,-3.0898,-3.0898,-3.0898,-3.0898,-3.0898,-3.0898,-3.0898,-3.0898,-3.0898,-3.0898,-3.0898,-3.0644,-3.0195,-3.0195,-2.9902,-2.9414,-2.9414,-2.918,-2.8769,-2.8769,-2.8574,-2.8301,-2.8354,-2.8461,-2.8601,-2.8654,-2.8761,-2.892,-2.892,-2.892,-2.9059,-3.0224,-3.1103,-3.1869,-3.2655,-3.397,-3.5163,-3.5163,-3.5163,-3.5163,-3.5163,-3.5307,-3.5475,-3.5544,-3.5434,-3.5248,-3.5136,-3.4781,-3.45,-3.4349,-3.4324,-3.4324,-3.4324,-3.4324,-3.4198,-3.3771,-3.3696,-3.3495,-3.2943,-3.2867,-3.2817,-3.2692,-3.229,-3.1964,-3.1838,-3.12,-3.0636,-3.0203,-3.0177,-3.0177,-3.0177,-3.0177,-3.0177,-3.0177,-3.0177,-3.0177,-3.0177,-3.0177,-3.0177,-3.0177,-3.0177,-3.0483,-1.8165,-1.9839,-2.1507,-2.1204,-2.0852,-2.036,-1.9509,-1.9035,-1.8702,-1.8451,-1.8399,-1.8346,-1.8154,-1.7922,-1.7904,-1.8266,-1.8533,-1.9981,-2.3517,-2.672,-2.9279,-3.0918,-3.1855,-3.2246,-3.1855,-3.1816,-3.166,-3.1269,-3.1016,-3.0898,-3.0898,-3.0898,-3.0898,-3.0898,-3.0898,-3.0898,-3.0898,-3.0898,-3.0898,-3.0898,-3.0898,-3.0762,-3.0508,-3.0508,-3.0273,-2.9863,-2.9863,-2.9492,-2.8926,-2.8926,-2.8672,-2.8301,-2.8301,-2.8301,-2.8301,-2.8301,-2.8301,-2.8301,-2.8301,-2.8408,-2.8654,-2.9618,-3.0245,-3.0764,-3.141,-3.2246,-3.3051,-3.3549,-3.3624,-3.3624,-3.3624,-3.3944,-3.4409,-3.4896,-3.5136,-3.5246,-3.5465,-3.5257,-3.4981,-3.4731,-3.468,-3.468,-3.468,-3.468,-3.4525,-3.3972,-3.3897,-3.3696,-3.3144,-3.3111,-3.3111,-3.3111,-3.2792,-3.2491,-3.224,-3.1687,-3.111,-3.0557,-3.0532,-3.0532,-3.0532,-3.0532,-3.0532,-3.0532,-3.0532,-3.0532,-3.0532,-3.0532,-3.0532,-3.0532,-3.0532,-3.0809,-1.6756,-1.7648,-1.8568,-1.8596,-1.8462,-1.8213,-1.7764,-1.7439,-1.7253,-1.7253,-1.7253,-1.7115,-1.6806,-1.675,-1.6871,-1.716,-1.8083,-2.0342,-2.4863,-2.7433,-2.9549,-3.1745,-3.2637,-3.2773,-3.2002,-3.1905,-3.1556,-3.0645,-3.0645,-3.0704,-3.0762,-3.0762,-3.082,-3.0898,-3.082,-3.0762,-3.0762,-3.084,-3.0898,-3.0898,-3.0898,-3.0898,-3.0898,-3.0898,-3.0684,-3.0293,-3.0293,-2.9805,-2.9023,-2.9023,-2.873,-2.8301,-2.8301,-2.8301,-2.8301,-2.8301,-2.8301,-2.8301,-2.8301,-2.8461,-2.8727,-2.9164,-2.9533,-2.9848,-3.0266,-3.0422,-3.0608,-3.144,-3.1876,-3.2101,-3.2101,-3.2527,-3.3151,-3.3944,-3.4581,-3.5065,-3.5335,-3.5401,-3.5251,-3.4778,-3.4703,-3.4703,-3.4703,-3.4703,-3.4504,-3.4,-3.397,-3.377,-3.3308,-3.3201,-3.3151,-3.3194,-3.3162,-3.2867,-3.239,-3.234,-3.2139,-3.1687,-3.1486,-3.1386,-3.1386,-3.1386,-3.1386,-3.1386,-3.1386,-3.1386,-3.1386,-3.1386,-3.1386,-3.1386,-3.1386,-3.1687,-1.5322,-1.5617,-1.625,-1.7417,-1.7857,-1.7827,-1.7198,-1.7014,-1.6967,-1.6967,-1.6967,-1.6952,-1.6906,-1.7092,-1.7369,-1.7659,-1.9706,-2.2139,-2.4726,-2.6929,-2.8878,-3.0696,-3.1402,-3.1365,-3.0612,-3.0538,-3.0143,-2.9346,-2.9509,-2.9726,-3.0039,-3.0333,-3.0645,-3.0898,-3.0645,-3.0333,-3.0039,-3.0645,-3.0898,-3.0898,-3.0898,-3.0898,-3.0898,-3.0898,-3.0859,-3.0781,-3.0781,-3.0293,-2.9473,-2.9473,-2.9004,-2.8301,-2.8301,-2.8301,-2.8301,-2.8301,-2.8301,-2.8301,-2.8301,-2.8354,-2.8354,-2.8441,-2.8495,-2.8601,-2.8654,-2.8654,-2.8708,-2.8847,-2.9953,-3.1021,-3.1021,-3.1432,-3.2044,-3.2851,-3.3449,-3.4019,-3.4751,-3.4897,-3.4872,-3.48,-3.4776,-3.4776,-3.4776,-3.4776,-3.4606,-3.4074,-3.4165,-3.4203,-3.3847,-3.3603,-3.3551,-3.3771,-3.3345,-3.3043,-3.2943,-3.2943,-3.296,-3.2817,-3.1913,-3.1386,-3.1386,-3.1386,-3.1386,-3.1386,-3.1386,-3.1386,-3.1386,-3.1386,-3.1386,-3.1386,-3.1386,-3.1687,-1.4763,-1.5057,-1.5575,-1.6204,-1.671,-1.6933,-1.6649,-1.6451,-1.6324,-1.6324,-1.6196,-1.6126,-1.6296,-1.6451,-1.6829,-1.7781,-1.9744,-2.182,-2.3693,-2.5578,-2.731,-2.8806,-2.9414,-2.9344,-2.8581,-2.8494,-2.8244,-2.7461,-2.7829,-2.8385,-2.9039,-2.9589,-3.0157,-3.0898,-3.0411,-2.9785,-2.9116,-2.9431,-2.9863,-3.0352,-3.0528,-3.0704,-3.0898,-3.0898,-3.0898,-3.0898,-3.0898,-3.0391,-2.9646,-2.9805,-2.9414,-2.8652,-2.8887,-2.8848,-2.8613,-2.8379,-2.8301,-2.8301,-2.8301,-2.8301,-2.8301,-2.8301,-2.8301,-2.8301,-2.8301,-2.8301,-2.8301,-2.8301,-2.8867,-2.9428,-2.9428,-2.9848,-3.0453,-3.1257,-3.1869,-3.2527,-3.3277,-3.3476,-3.3476,-3.3476,-3.3476,-3.3476,-3.3476,-3.3476,-3.3264,-3.2755,-3.3025,-3.3268,-3.326,-3.3409,-3.3572,-3.3878,-3.3671,-3.3395,-3.3093,-3.3111,-3.3111,-3.3111,-3.2634,-3.229,-3.229,-3.229,-3.229,-3.229,-3.229,-3.229,-3.229,-3.229,-3.229,-3.229,-3.229,-3.2441,-1.4683,-1.495,-1.5324,-1.5471,-1.5939,-1.638,-1.638,-1.6299,-1.6233,-1.6233,-1.6126,-1.6059,-1.6219,-1.6406,-1.6917,-1.8195,-1.9836,-2.1431,-2.3027,-2.4459,-2.5825,-2.7003,-2.749,-2.7442,-2.6727,-2.6662,-2.6354,-2.5623,-2.6183,-2.6987,-2.7889,-2.8564,-2.9431,-3.0411,-2.9745,-2.8879,-2.7949,-2.7924,-2.848,-2.9549,-2.9962,-3.0392,-3.0898,-3.0898,-3.0898,-3.0898,-3.0898,-3.0391,-2.9609,-3.0019,-2.9687,-2.8965,-2.9394,-2.9297,-2.8867,-2.8437,-2.8301,-2.8301,-2.8301,-2.8301,-2.8301,-2.8301,-2.8301,-2.8301,-2.8301,-2.8301,-2.8301,-2.8301,-2.8301,-2.8301,-2.8301,-2.8654,-2.9185,-2.9911,-3.0557,-3.1124,-3.1796,-3.1949,-3.1949,-3.1949,-3.1949,-3.1949,-3.1949,-3.1949,-3.1816,-3.139,-3.1793,-3.2248,-3.2698,-3.3078,-3.3492,-3.3876,-3.3816,-3.3518,-3.2972,-3.2922,-3.2916,-3.2766,-3.2982,-3.3111,-3.3111,-3.3111,-3.3111,-3.3111,-3.3111,-3.3111,-3.3111,-3.3111,-3.3111,-3.3111,-3.3111,-3.3111,-1.4981,-1.5008,-1.5169,-1.5658,-1.6233,-1.6673,-1.6673,-1.7074,-1.7448,-1.7448,-1.7662,-1.7716,-1.7502,-1.8143,-1.8918,-1.9573,-2.0733,-2.2026,-2.34,-2.4145,-2.4959,-2.609,-2.6218,-2.5957,-2.5282,-2.5221,-2.493,-2.4301,-2.4871,-2.5668,-2.6581,-2.7263,-2.8122,-2.9094,-2.8182,-2.7323,-2.6641,-2.6355,-2.7021,-2.8545,-2.9176,-2.9962,-3.0898,-3.0898,-3.0898,-3.0898,-3.0898,-3.0391,-2.9609,-3.0019,-2.9687,-2.8965,-2.9394,-2.9297,-2.8867,-2.8437,-2.8301,-2.8301,-2.8301,-2.8301,-2.8301,-2.8301,-2.8301,-2.8301,-2.8301,-2.8301,-2.8301,-2.8301,-2.8301,-2.8301,-2.8301,-2.8514,-2.8887,-2.9428,-2.9848,-3.0266,-3.0785,-3.094,-3.094,-3.094,-3.094,-3.094,-3.094,-3.094,-3.0867,-3.0845,-3.1338,-3.1927,-3.271,-3.2843,-3.317,-3.3933,-3.3523,-3.3017,-3.2488,-3.244,-3.2292,-3.1829,-3.2636,-3.3111,-3.3111,-3.3111,-3.3111,-3.3111,-3.3111,-3.3111,-3.3111,-3.3111,-3.3111,-3.3111,-3.3111,-3.3111,-1.4736,-1.4683,-1.479,-1.519,-1.6005,-1.6807,-1.7168,-1.7716,-1.825,-1.8611,-1.8931,-1.8985,-1.8504,-1.8998,-1.9599,-2.0,-2.1088,-2.2051,-2.2789,-2.3239,-2.3676,-2.406,-2.4074,-2.3834,-2.3215,-2.3145,-2.2891,-2.2272,-2.2841,-2.3651,-2.461,-2.5301,-2.6156,-2.7108,-2.6382,-2.5529,-2.4671,-2.4579,-2.4826,-2.5452,-2.7306,-2.8719,-2.9705,-2.9705,-2.9705,-2.9705,-2.9705,-2.9367,-2.8859,-2.9428,-2.9508,-2.9182,-2.9789,-2.9863,-2.9668,-2.9238,-2.9082,-2.9082,-2.9082,-2.9082,-2.9082,-2.9082,-2.8906,-2.8672,-2.8672,-2.8496,-2.8301,-2.8301,-2.8301,-2.8301,-2.8301,-2.8408,-2.8514,-2.8708,-2.8867,-2.9026,-2.9185,-2.9237,-2.9237,-2.9237,-2.9237,-2.9237,-2.9237,-2.9237,-2.9237,-2.9237,-2.9691,-3.0349,-3.1154,-3.1563,-3.1995,-3.2394,-3.1961,-3.1546,-3.134,-3.134,-3.1157,-3.0698,-3.1639,-3.2245,-3.2245,-3.2245,-3.2245,-3.2245,-3.2245,-3.2245,-3.2245,-3.2245,-3.2245,-3.2245,-3.2245,-3.2372,-1.4856,-1.4723,-1.475,-1.5137,-1.5979,-1.6941,-1.7809,-1.8544,-1.9185,-1.9679,-1.9933,-1.992,-1.9426,-1.9746,-2.0174,-2.0468,-2.1336,-2.2124,-2.2498,-2.2739,-2.2928,-2.2928,-2.2928,-2.2632,-2.2044,-2.1991,-2.1737,-2.1149,-2.1614,-2.2355,-2.3216,-2.3837,-2.4548,-2.5491,-2.478,-2.4115,-2.3425,-2.3212,-2.3168,-2.334,-2.5178,-2.6779,-2.8044,-2.8044,-2.8115,-2.8162,-2.8162,-2.7942,-2.7712,-2.8457,-2.902,-2.937,-2.9968,-3.0195,-3.0137,-2.9726,-2.9626,-2.9626,-2.9626,-2.9626,-2.9626,-2.9626,-2.9375,-2.9121,-2.9121,-2.8926,-2.8691,-2.8691,-2.8594,-2.8496,-2.8496,-2.8398,-2.8301,-2.8301,-2.8301,-2.8301,-2.8301,-2.8301,-2.8301,-2.8301,-2.8301,-2.8301,-2.8301,-2.8301,-2.8301,-2.8301,-2.8654,-2.9217,-2.9964,-3.0505,-3.0944,-3.1256,-3.0954,-3.0663,-3.051,-3.0488,-3.029,-2.9785,-3.0511,-3.0925,-3.0958,-3.0958,-3.0958,-3.0958,-3.0958,-3.0958,-3.0958,-3.0958,-3.0958,-3.0958,-3.0958,-3.1241,-1.5391,-1.5177,-1.511,-1.5685,-1.6286,-1.7114,-1.8597,-1.9554,-2.0334,-2.0641,-2.0695,-2.0601,-2.0294,-2.0481,-2.0775,-2.1069,-2.1603,-2.2191,-2.2847,-2.2928,-2.2928,-2.2928,-2.2928,-2.2632,-2.2044,-2.1991,-2.1737,-2.1149,-2.1425,-2.1866,-2.2543,-2.2918,-2.3503,-2.4462,-2.3595,-2.3078,-2.3014,-2.2398,-2.2244,-2.262,-2.2933,-2.4131,-2.5984,-2.5984,-2.6121,-2.6389,-2.6389,-2.6326,-2.6264,-2.7086,-2.8182,-2.9453,-2.9968,-3.0195,-3.0156,-2.9726,-2.959,-2.959,-2.959,-2.959,-2.959,-2.959,-2.959,-2.957,-2.957,-2.957,-2.957,-2.957,-2.9258,-2.8871,-2.8871,-2.8613,-2.8301,-2.8301,-2.8301,-2.8301,-2.8301,-2.8301,-2.8301,-2.8301,-2.8301,-2.8301,-2.8301,-2.8301,-2.8301,-2.8301,-2.8514,-2.8887,-2.9428,-2.9796,-3.0214,-3.0733,-3.0785,-3.0542,-3.0045,-3.0003,-2.9791,-2.9324,-2.9282,-2.9343,-2.9417,-2.9418,-2.9418,-2.9418,-2.9418,-2.9418,-2.9418,-2.9418,-2.9418,-2.9418,-2.9418,-2.9641,-1.5142,-1.5223,-1.5404,-1.5992,-1.7061,-1.8237,-1.9292,-2.0227,-2.1229,-2.2579,-2.2352,-2.175,-2.1256,-2.1293,-2.1256,-2.1122,-2.1777,-2.2418,-2.2806,-2.2928,-2.2928,-2.2928,-2.2928,-2.2632,-2.2044,-2.1991,-2.1737,-2.1149,-2.1172,-2.1362,-2.1551,-2.1677,-2.1941,-2.2438,-2.2162,-2.213,-2.2301,-2.2089,-2.2005,-2.1929,-2.2199,-2.3148,-2.4671,-2.4875,-2.4984,-2.5093,-2.5327,-2.5372,-2.542,-2.6615,-2.7624,-2.8496,-2.9116,-2.9381,-2.9362,-2.925,-2.9212,-2.9212,-2.9212,-2.9212,-2.9212,-2.9212,-2.8948,-2.8706,-2.8706,-2.85,-2.8257,-2.8257,-2.8164,-2.8015,-2.7734,-2.7957,-2.8271,-2.8276,-2.8301,-2.8301,-2.8301,-2.8301,-2.8301,-2.8301,-2.8301,-2.8301,-2.8301,-2.8301,-2.8301,-2.8301,-2.8354,-2.8461,-2.8654,-2.8761,-2.8867,-2.9026,-2.9026,-2.8966,-2.8846,-2.8773,-2.8645,-2.8204,-2.8184,-2.8512,-2.9316,-2.9343,-2.9343,-2.9343,-2.9343,-2.9343,-2.9343,-2.9343,-2.9343,-2.9343,-2.9343,-2.958,-1.5284,-1.5605,-1.6086,-1.6794,-1.7996,-1.9359,-2.0708,-2.1336,-2.1964,-2.3166,-2.2886,-2.2271,-2.1804,-2.1789,-2.167,-2.1483,-2.1991,-2.2525,-2.2819,-2.2928,-2.2928,-2.2928,-2.2928,-2.2632,-2.2044,-2.1991,-2.1737,-2.1149,-2.1109,-2.1162,-2.1283,-2.1283,-2.147,-2.1884,-2.1777,-2.1857,-2.2151,-2.2044,-2.1897,-2.1789,-2.1897,-2.2442,-2.3281,-2.342,-2.358,-2.3659,-2.4043,-2.4247,-2.4428,-2.5689,-2.6402,-2.6872,-2.7678,-2.7928,-2.7787,-2.7787,-2.7787,-2.7787,-2.7787,-2.7787,-2.7787,-2.7787,-2.7628,-2.7375,-2.7375,-2.7217,-2.7006,-2.7006,-2.69,-2.6667,-2.6439,-2.68,-2.7411,-2.8057,-2.8401,-2.8645,-2.8809,-2.8809,-2.8809,-2.8809,-2.8809,-2.8809,-2.8809,-2.8809,-2.8809,-2.8809,-2.8652,-2.8535,-2.8535,-2.8398,-2.8301,-2.8301,-2.8301,-2.8301,-2.8301,-2.8301,-2.8184,-2.793,-2.791,-2.8212,-2.8891,-2.8592,-2.8407,-2.8407,-2.8407,-2.8407,-2.8407,-2.8407,-2.8407,-2.8407,-2.8407,-2.8633,-1.5604,-1.6162,-1.6903,-1.7782,-1.9011,-2.0468,-2.2418,-2.2645,-2.2552,-2.2886,-2.2712,-2.2418,-2.2124,-2.2071,-2.2058,-2.2031,-2.2271,-2.2552,-2.2887,-2.2928,-2.2914,-2.2887,-2.2819,-2.2592,-2.2004,-2.1951,-2.171,-2.1149,-2.1136,-2.1269,-2.1601,-2.1641,-2.1844,-2.2405,-2.2164,-2.2164,-2.2458,-2.2191,-2.2058,-2.2031,-2.2058,-2.2031,-2.1991,-2.2017,-2.2191,-2.2472,-2.2739,-2.3107,-2.3451,-2.4392,-2.486,-2.4983,-2.5861,-2.6052,-2.5802,-2.5802,-2.5802,-2.5802,-2.5802,-2.5802,-2.5802,-2.5802,-2.5802,-2.5802,-2.5802,-2.5802,-2.5802,-2.5802,-2.5496,-2.5174,-2.5142,-2.5418,-2.6048,-2.7586,-2.8482,-2.9122,-2.9514,-2.9626,-2.9626,-2.9626,-2.9626,-2.9626,-2.9626,-2.9626,-2.9626,-2.9626,-2.9199,-2.8926,-2.8926,-2.8555,-2.8301,-2.8301,-2.8301,-2.8301,-2.8301,-2.8301,-2.8301,-2.8301,-2.8301,-2.8301,-2.8301,-2.7539,-2.7129,-2.7129,-2.7129,-2.7129,-2.7129,-2.7129,-2.7129,-2.7129,-2.7129,-2.7344,-1.4705,-1.5624,-1.6704,-1.783,-1.9668,-2.1534,-2.2673,-2.2819,-2.2926,-2.346,-2.334,-2.3033,-2.2726,-2.274,-2.2592,-2.2365,-2.2579,-2.2792,-2.2928,-2.2928,-2.2779,-2.2539,-2.2512,-2.2285,-2.1762,-2.1708,-2.1496,-2.1136,-2.1323,-2.1547,-2.1614,-2.1764,-2.2058,-2.2405,-2.2352,-2.2472,-2.2766,-2.2767,-2.2552,-2.2325,-2.2565,-2.2432,-2.1991,-2.2218,-2.2485,-2.2766,-2.2901,-2.3092,-2.3419,-2.3908,-2.4174,-2.4248,-2.4744,-2.4735,-2.4486,-2.4486,-2.4486,-2.4486,-2.4486,-2.4486,-2.4486,-2.4486,-2.4486,-2.4486,-2.4486,-2.4486,-2.4486,-2.4486,-2.444,-2.4254,-2.4006,-2.4569,-2.5419,-2.626,-2.7395,-2.854,-2.9402,-2.9626,-2.9626,-2.9626,-2.9626,-2.9626,-2.9626,-2.9626,-2.9626,-2.9626,-2.9199,-2.8926,-2.8926,-2.8555,-2.8301,-2.8301,-2.8301,-2.8301,-2.8301,-2.8301,-2.8301,-2.8301,-2.8301,-2.8301,-2.8301,-2.8125,-2.8027,-2.8027,-2.8027,-2.8027,-2.8027,-2.8027,-2.8027,-2.8027,-2.8027,-2.8066,-1.4046,-1.5257,-1.6809,-1.9194,-2.0793,-2.2016,-2.2767,-2.2928,-2.3021,-2.3273,-2.3207,-2.306,-2.2954,-2.2928,-2.2806,-2.2659,-2.2766,-2.2928,-2.2928,-2.2739,-2.2592,-2.2432,-2.2298,-2.2031,-2.1655,-2.1614,-2.143,-2.1136,-2.139,-2.1681,-2.175,-2.2031,-2.2325,-2.2619,-2.2632,-2.2712,-2.2928,-2.2928,-2.2779,-2.2632,-2.2792,-2.2767,-2.2405,-2.2418,-2.2579,-2.2928,-2.2928,-2.2996,-2.3188,-2.3364,-2.3317,-2.321,-2.3292,-2.3171,-2.2869,-2.2711,-2.2654,-2.2654,-2.2654,-2.2654,-2.2654,-2.2654,-2.2654,-2.2654,-2.2654,-2.2654,-2.2654,-2.2654,-2.2654,-2.2611,-2.2391,-2.2974,-2.3854,-2.465,-2.6381,-2.8082,-2.9086,-2.9335,-2.9335,-2.9335,-2.9335,-2.9335,-2.9335,-2.9335,-2.9374,-2.9489,-2.924,-2.9159,-2.9327,-2.9124,-2.8906,-2.8906,-2.8711,-2.8594,-2.8594,-2.8398,-2.8301,-2.8301,-2.8301,-2.8301,-2.8301,-2.8301,-2.8301,-2.8301,-2.8301,-2.8301,-2.8301,-2.8301,-2.8301,-2.8301,-2.8301,-2.8301,-1.3331,-1.4906,-1.7106,-2.043,-2.1527,-2.1925,-2.2457,-2.2684,-2.2724,-2.2792,-2.2887,-2.2928,-2.2928,-2.2928,-2.2928,-2.2928,-2.2928,-2.2914,-2.2792,-2.2579,-2.2378,-2.2285,-2.2058,-2.1804,-2.1574,-2.1534,-2.1376,-2.1122,-2.143,-2.1802,-2.1977,-2.2311,-2.2605,-2.2928,-2.2928,-2.2928,-2.2928,-2.2928,-2.2928,-2.2928,-2.2806,-2.2819,-2.2914,-2.2552,-2.2579,-2.2928,-2.2928,-2.2928,-2.2928,-2.2928,-2.2686,-2.2392,-2.2098,-2.1804,-2.1574,-2.1216,-2.1109,-2.1109,-2.1109,-2.1109,-2.1109,-2.1109,-2.1109,-2.1109,-2.1109,-2.1109,-2.1109,-2.1109,-2.1109,-2.1109,-2.1109,-2.1551,-2.223,-2.3216,-2.5117,-2.7082,-2.8241,-2.848,-2.848,-2.848,-2.848,-2.848,-2.848,-2.848,-2.86,-2.8938,-2.9018,-2.9219,-2.968,-2.9715,-2.9668,-2.9668,-2.9297,-2.9004,-2.8926,-2.8535,-2.8301,-2.8301,-2.8301,-2.8301,-2.8301,-2.8301,-2.8301,-2.8301,-2.8301,-2.8301,-2.8301,-2.8301,-2.8301,-2.8301,-2.8301,-2.8301,-1.2049,-1.4586,-1.7433,-1.9459,-2.031,-2.0784,-2.1183,-2.1641,-2.2148,-2.2404,-2.2686,-2.2928,-2.2928,-2.2928,-2.2928,-2.2928,-2.2928,-2.2779,-2.2512,-2.2445,-2.2231,-2.1724,-2.1695,-2.1561,-2.1203,-2.1162,-2.1149,-2.1109,-2.1617,-2.1951,-2.1977,-2.2498,-2.2819,-2.2928,-2.2928,-2.2928,-2.2928,-2.2928,-2.2928,-2.2928,-2.2605,-2.2619,-2.2914,-2.2552,-2.2579,-2.2928,-2.2928,-2.2928,-2.2928,-2.2928,-2.2686,-2.2392,-2.2098,-2.1804,-2.1574,-2.1216,-2.1109,-2.1109,-2.1109,-2.1109,-2.1109,-2.1109,-2.1109,-2.1109,-2.1109,-2.1109,-2.1109,-2.1109,-2.1109,-2.1109,-2.1109,-2.1362,-2.1853,-2.2543,-2.323,-2.4209,-2.6001,-2.6409,-2.6409,-2.6409,-2.6409,-2.6409,-2.6409,-2.6409,-2.6608,-2.7211,-2.773,-2.8327,-2.9359,-2.9853,-3.0117,-3.0117,-2.9726,-2.9336,-2.8945,-2.8535,-2.8301,-2.8301,-2.8301,-2.8301,-2.8301,-2.8301,-2.8301,-2.8301,-2.8301,-2.8301,-2.8301,-2.8301,-2.8301,-2.8301,-2.8301,-2.8301,-1.2301,-1.4482,-1.6447,-1.8491,-1.924,-1.9545,-2.0013,-2.0609,-2.1232,-2.2045,-2.2285,-2.2472,-2.2874,-2.2928,-2.2928,-2.2928,-2.2726,-2.2565,-2.2432,-2.2138,-2.1844,-2.1641,-2.1403,-2.1256,-2.1122,-2.1109,-2.1176,-2.1349,-2.175,-2.2058,-2.2218,-2.2632,-2.2928,-2.2928,-2.2928,-2.2928,-2.2928,-2.2928,-2.2928,-2.2928,-2.2726,-2.2739,-2.2928,-2.2726,-2.2739,-2.2928,-2.2928,-2.2928,-2.2928,-2.2928,-2.2779,-2.2632,-2.2338,-2.2044,-2.1764,-2.147,-2.1256,-2.1109,-2.1109,-2.1109,-2.1109,-2.1109,-2.1109,-2.1109,-2.1109,-2.1109,-2.1109,-2.1109,-2.1109,-2.1109,-2.1109,-2.1235,-2.1425,-2.1664,-2.1853,-2.223,-2.3062,-2.4163,-2.4962,-2.4962,-2.4962,-2.4962,-2.4962,-2.4962,-2.5162,-2.5835,-2.6796,-2.7686,-2.8588,-2.9504,-3.0065,-2.982,-2.9425,-2.9011,-2.8597,-2.8182,-2.7938,-2.7938,-2.7938,-2.7938,-2.7938,-2.7938,-2.7938,-2.7938,-2.8211,-2.8301,-2.8301,-2.8301,-2.8301,-2.8301,-2.8301,-2.8301,-1.2251,-1.3773,-1.4966,-1.6997,-1.7588,-1.7839,-1.8323,-1.909,-2.0047,-2.1097,-2.1477,-2.1793,-2.2295,-2.2578,-2.2645,-2.2645,-2.2458,-2.2285,-2.2205,-2.183,-2.1588,-2.1443,-2.1243,-2.1109,-2.1109,-2.1109,-2.1229,-2.1601,-2.1817,-2.2111,-2.2405,-2.2699,-2.2928,-2.2928,-2.2928,-2.2928,-2.2928,-2.2928,-2.2928,-2.2928,-2.2928,-2.2928,-2.2928,-2.2928,-2.2928,-2.2928,-2.2928,-2.2928,-2.2928,-2.2928,-2.2928,-2.2901,-2.2539,-2.2245,-2.1951,-2.1722,-2.1363,-2.1109,-2.1109,-2.1109,-2.1109,-2.1109,-2.1109,-2.1109,-2.1109,-2.1109,-2.1122,-2.1203,-2.1216,-2.1243,-2.1309,-2.1336,-2.1336,-2.1336,-2.1336,-2.1296,-2.1136,-2.2278,-2.334,-2.334,-2.3399,-2.3458,-2.3458,-2.3458,-2.3738,-2.4454,-2.5531,-2.6645,-2.7452,-2.8664,-2.9315,-2.8994,-2.862,-2.8229,-2.7778,-2.7387,-2.7102,-2.7071,-2.7071,-2.7018,-2.6928,-2.6911,-2.6911,-2.6911,-2.7197,-2.75,-2.8007,-2.791,-2.7853,-2.7853,-2.7853,-2.7853,-1.1017,-1.214,-1.3118,-1.4385,-1.507,-1.5451,-1.5828,-1.6926,-1.8144,-1.916,-2.003,-2.0668,-2.1038,-2.1647,-2.2031,-2.2031,-2.2017,-2.1911,-2.1695,-2.1641,-2.1443,-2.1162,-2.1122,-2.1109,-2.1109,-2.1109,-2.1229,-2.1601,-2.1817,-2.2111,-2.2405,-2.2699,-2.2928,-2.2928,-2.2928,-2.2928,-2.2928,-2.2928,-2.2928,-2.2928,-2.2928,-2.2928,-2.2928,-2.2928,-2.2928,-2.2928,-2.2928,-2.2928,-2.2928,-2.2928,-2.2928,-2.2901,-2.2539,-2.2245,-2.1951,-2.1722,-2.1363,-2.1109,-2.1109,-2.1109,-2.1109,-2.1109,-2.1109,-2.1109,-2.1109,-2.1109,-2.1162,-2.1443,-2.1601,-2.1655,-2.1871,-2.1937,-2.1937,-2.1937,-2.1937,-2.179,-2.1229,-2.1172,-2.1235,-2.1235,-2.1528,-2.1717,-2.1717,-2.1717,-2.207,-2.2995,-2.3685,-2.4659,-2.6015,-2.7004,-2.765,-2.7634,-2.7256,-2.6813,-2.6372,-2.5949,-2.5605,-2.5261,-2.5228,-2.514,-2.4853,-2.4853,-2.4853,-2.4853,-2.4646,-2.5388,-2.7179,-2.6847,-2.6718,-2.6718,-2.6718,-2.6718,-0.9776,-1.0593,-1.1189,-1.2105,-1.2655,-1.3063,-1.3495,-1.4411,-1.5503,-1.6667,-1.7513,-1.8337,-1.9225,-2.0666,-2.1727,-2.1991,-2.183,-2.1735,-2.1628,-2.139,-2.1296,-2.139,-2.1229,-2.1189,-2.1376,-2.1216,-2.1309,-2.179,-2.1924,-2.2191,-2.2672,-2.2806,-2.2928,-2.2928,-2.2928,-2.2928,-2.2928,-2.2928,-2.2928,-2.2928,-2.2928,-2.2928,-2.2928,-2.2928,-2.2928,-2.2928,-2.2928,-2.2928,-2.2928,-2.2928,-2.2928,-2.2914,-2.2739,-2.2405,-2.1977,-2.1871,-2.1523,-2.1109,-2.1109,-2.1109,-2.1109,-2.1109,-2.1109,-2.1109,-2.1109,-2.1243,-2.148,-2.1588,-2.1748,-2.1857,-2.1964,-2.1991,-2.1991,-2.1991,-2.1991,-2.1924,-2.171,-2.167,-2.167,-2.167,-2.175,-2.183,-2.183,-2.183,-2.2067,-2.2621,-2.3426,-2.4276,-2.4973,-2.5978,-2.6471,-2.6236,-2.6111,-2.5843,-2.5436,-2.5296,-2.5171,-2.5046,-2.5046,-2.4984,-2.4922,-2.4703,-2.4594,-2.4594,-2.4032,-2.4279,-2.5292,-2.4971,-2.4782,-2.4782,-2.4782,-2.4782,-0.8658,-0.915,-0.9529,-1.018,-1.0648,-1.1062,-1.146,-1.224,-1.3268,-1.4398,-1.5327,-1.6318,-1.7509,-1.9071,-2.051,-2.1553,-2.1537,-2.1403,-2.1403,-2.1323,-2.1336,-2.1601,-2.147,-2.1483,-2.1683,-2.1523,-2.1603,-2.2098,-2.2124,-2.2352,-2.2832,-2.2928,-2.2928,-2.2928,-2.2928,-2.2928,-2.2928,-2.2928,-2.2928,-2.2928,-2.2928,-2.2928,-2.2928,-2.2928,-2.2928,-2.2928,-2.2928,-2.2928,-2.2928,-2.2928,-2.2928,-2.2928,-2.2928,-2.2565,-2.2124,-2.2124,-2.1817,-2.1403,-2.1403,-2.1403,-2.1403,-2.1403,-2.1403,-2.1403,-2.1403,-2.1537,-2.1724,-2.1817,-2.1977,-2.2151,-2.2258,-2.2285,-2.2285,-2.2285,-2.2285,-2.2285,-2.2285,-2.2124,-2.1991,-2.1991,-2.2071,-2.2164,-2.2258,-2.2285,-2.2378,-2.2754,-2.3252,-2.3711,-2.3912,-2.4554,-2.4935,-2.4648,-2.4619,-2.4546,-2.4342,-2.4327,-2.4284,-2.4101,-2.4101,-2.4108,-2.4006,-2.3802,-2.3685,-2.3685,-2.3145,-2.2957,-2.3225,-2.3399,-2.352,-2.352,-2.352,-2.352,0.0,0.0,0.0,-0.8644,-0.9057,-0.9443,-0.9763,-1.0609,-1.152,-1.2314,-1.3481,-1.4712,-1.5886,-1.6818,-1.8203,-2.0589,-2.0982,-2.1046,-2.1046,-2.1363,-2.1614,-2.1628,-2.1804,-2.1977,-2.1991,-2.1977,-2.2084,-2.2298,-2.2338,-2.2539,-2.2901,-2.2859,-2.2928,-2.2928,-2.2928,-2.2859,-2.2859,-2.2859,-2.2859,-2.2859,-2.2859,-2.2859,-2.2859,-2.2859,-2.2859,-2.2859,-2.2859,-2.2859,-2.2859,-2.2859,-2.2928,-2.2928,-2.2928,-2.2686,-2.2418,-2.2418,-2.2231,-2.1991,-2.1991,-2.1991,-2.1991,-2.1991,-2.1991,-2.1991,-2.1991,-2.1991,-2.2058,-2.2338,-2.2432,-2.2498,-2.2792,-2.2928,-2.2928,-2.2928,-2.2928,-2.2928,-2.2928,-2.2418,-2.2017,-2.2017,-2.2245,-2.2525,-2.2819,-2.2873,-2.2979,-2.3287,-2.3073,-2.2941,-2.2928,-2.2928,-2.2928,-2.2928,-2.2928,-2.2928,-2.2928,-2.2928,-2.2739,-2.2445,-2.2432,-2.2311,-2.2017,-2.2004,-2.2004,-2.2004,-2.1775,-2.1416,-2.1122,-2.234,-2.2915,-2.2899,-2.2899,-2.2899,-0.6812,0.0,0.0,0.0,0.0,0.0,-0.8266,-0.8808,-0.9384,-1.0126,-1.1043,-1.2178,-1.3698,-1.4565,-1.5549,-1.7119,-1.8844,-2.0081,-2.0335,-2.0667,-2.1133,-2.1817,-2.1555,-2.1293,-2.1251,-2.1083,-2.0928,-2.1005,-2.1463,-2.1965,-2.2525,-2.2739,-2.2928,-2.2928,-2.2928,-2.2791,-2.2448,-2.2242,-2.1966,-2.1691,-2.1415,-2.1289,-2.1289,-2.1289,-2.1289,-2.1289,-2.1289,-2.1289,-2.1427,-2.2448,-2.2928,-2.2928,-2.2928,-2.2686,-2.2418,-2.2418,-2.2231,-2.1991,-2.1991,-2.1991,-2.1991,-2.1991,-2.1991,-2.1991,-2.1991,-2.2138,-2.2311,-2.2392,-2.2579,-2.2752,-2.2914,-2.2928,-2.2928,-2.2928,-2.2928,-2.2928,-2.2928,-2.2807,-2.2619,-2.2619,-2.2686,-2.2832,-2.314,-2.3193,-2.322,-2.3313,-2.3247,-2.3113,-2.2886,-2.2928,-2.2928,-2.2928,-2.2928,-2.2928,-2.2928,-2.2928,-2.2832,-2.2739,-2.2739,-2.2699,-2.2619,-2.2418,-2.2298,-2.2298,-2.1804,-2.1574,-2.1494,-2.1389,-2.1221,-2.0939,-2.0939,-2.1124,-0.6546,-0.6614,-0.6688,-0.6803,0.0,0.0,-0.7394,-0.7726,-0.8147,-0.871,-0.9539,-1.0631,-1.1996,-1.2721,-1.3492,-1.4543,-1.6149,-1.7845,-1.9242,-1.9978,-2.0747,-2.1858,-2.1476,-2.0987,-2.0526,-2.0347,-2.0145,-2.0022,-2.08,-2.1628,-2.2592,-2.2766,-2.2928,-2.2928,-2.2928,-2.2654,-2.2104,-2.1402,-2.078,-2.0225,-1.9588,-1.9239,-1.9239,-1.9239,-1.9239,-1.9239,-1.9239,-1.9239,-1.9309,-2.0201,-2.1183,-2.2242,-2.2379,-2.2411,-2.2402,-2.2538,-2.2498,-2.2352,-2.2352,-2.2352,-2.2352,-2.2352,-2.2352,-2.2352,-2.2352,-2.2472,-2.2605,-2.2605,-2.2726,-2.2928,-2.2928,-2.2928,-2.2928,-2.2928,-2.2928,-2.2928,-2.2928,-2.2928,-2.2928,-2.2928,-2.2928,-2.3006,-2.3434,-2.3514,-2.3554,-2.3674,-2.3688,-2.3581,-2.3273,-2.3316,-2.3316,-2.3316,-2.3316,-2.3193,-2.3073,-2.306,-2.3006,-2.2941,-2.2928,-2.2928,-2.2928,-2.2699,-2.2605,-2.2605,-2.2151,-2.1857,-2.1802,-2.1149,-2.0762,-2.0601,-2.0601,-2.0762,-0.677,-0.6865,0.0,-0.6783,-0.6919,0.0,-0.6889,-0.721,-0.759,-0.7874,-0.8692,-0.9636,-1.0573,-1.1176,-1.1741,-1.249,-1.3259,-1.4829,-1.7805,-1.9052,-2.0201,-2.1569,-2.1232,-2.0552,-1.9581,-1.9469,-1.9308,-1.9084,-2.016,-2.1361,-2.2572,-2.2654,-2.2654,-2.2654,-2.2654,-2.231,-2.1484,-2.0421,-1.9437,-1.86,-1.7469,-1.6977,-1.6977,-1.6977,-1.6977,-1.6977,-1.6977,-1.6977,-1.6977,-1.6977,-1.853,-2.0931,-2.144,-2.1854,-2.2242,-2.2762,-2.2954,-2.2928,-2.2928,-2.2928,-2.2928,-2.2928,-2.2928,-2.2928,-2.2928,-2.2928,-2.2928,-2.2928,-2.2928,-2.2928,-2.2928,-2.2928,-2.2928,-2.2928,-2.2928,-2.2928,-2.2928,-2.2928,-2.2928,-2.2928,-2.2928,-2.3115,-2.3621,-2.3754,-2.3861,-2.4115,-2.4182,-2.4102,-2.3808,-2.3768,-2.3768,-2.3768,-2.3768,-2.3647,-2.3354,-2.3327,-2.3193,-2.2954,-2.2928,-2.2928,-2.2928,-2.2928,-2.2928,-2.2928,-2.2565,-2.2271,-2.1991,-2.1456,-2.1189,-2.1162,-2.1162,-2.1296,-0.7204,-0.717,-0.7051,-0.7018,-0.6919,0.0,-0.6749,-0.681,-0.7027,-0.757,-0.7917,-0.8387,-0.9175,-0.93,-0.9446,-0.9867,-1.0628,-1.2379,-1.5959,-1.7193,-1.8297,-1.9809,-1.9107,-1.8271,-1.7541,-1.7219,-1.7058,-1.7076,-1.8924,-2.0417,-2.1126,-2.1151,-2.1151,-2.1151,-2.1151,-2.0653,-1.9588,-1.867,-1.776,-1.6715,-1.5867,-1.5443,-1.5443,-1.5443,-1.5443,-1.5443,-1.5443,-1.5443,-1.5443,-1.5443,-1.6846,-1.9041,-2.0286,-2.1032,-2.1578,-2.2793,-2.3073,-2.2928,-2.2928,-2.2928,-2.2928,-2.2928,-2.2928,-2.2928,-2.2928,-2.2928,-2.2928,-2.2928,-2.2928,-2.2928,-2.2928,-2.2928,-2.2928,-2.2928,-2.2928,-2.2928,-2.2928,-2.2928,-2.2928,-2.2928,-2.2928,-2.2979,-2.3354,-2.3607,-2.3794,-2.3848,-2.4062,-2.4102,-2.3808,-2.3768,-2.3768,-2.3768,-2.3768,-2.3647,-2.3354,-2.3327,-2.3193,-2.2954,-2.2928,-2.2928,-2.2928,-2.2928,-2.2928,-2.2928,-2.2565,-2.2271,-2.1991,-2.1871,-2.1697,-2.1534,-2.1534,-2.1561,-0.755,-0.7482,-0.7353,-0.7278,-0.7088,0.0,0.0,-0.6702,-0.6898,-0.7204,-0.7502,-0.7841,-0.8296,-0.8377,-0.8425,-0.8574,-0.9219,-1.054,-1.291,-1.4587,-1.6107,-1.7607,-1.7052,-1.6227,-1.5317,-1.5092,-1.5243,-1.559,-1.7275,-1.8451,-1.8818,-1.8894,-1.896,-1.896,-1.896,-1.853,-1.7549,-1.6625,-1.5646,-1.4742,-1.3753,-1.3325,-1.3325,-1.3325,-1.3325,-1.3333,-1.3411,-1.3377,-1.3377,-1.3543,-1.4438,-1.602,-1.8389,-1.9665,-2.0261,-2.1657,-2.2014,-2.176,-2.176,-2.176,-2.176,-2.176,-2.176,-2.176,-2.176,-2.176,-2.176,-2.176,-2.176,-2.176,-2.176,-2.176,-2.176,-2.176,-2.176,-2.176,-2.176,-2.176,-2.176,-2.176,-2.176,-2.2138,-2.3134,-2.3447,-2.3607,-2.3754,-2.4022,-2.4155,-2.4008,-2.4115,-2.4209,-2.4209,-2.4209,-2.4088,-2.3794,-2.3768,-2.3634,-2.334,-2.318,-2.31,-2.31,-2.2939,-2.2928,-2.2928,-2.2712,-2.2565,-2.2418,-2.2418,-2.2191,-2.1614,-2.1614,-2.1614,-0.7909,-0.7834,-0.7685,-0.7502,-0.7319,-0.7075,0.0,0.0,0.0,-0.6883,-0.7217,-0.7522,-0.7692,-0.7801,-0.7826,-0.7853,-0.8334,-0.9049,-0.9939,-1.1728,-1.3551,-1.5272,-1.4966,-1.4259,-1.3288,-1.3293,-1.3601,-1.4364,-1.5443,-1.6183,-1.6509,-1.6629,-1.6767,-1.6767,-1.6746,-1.6413,-1.5717,-1.4716,-1.3808,-1.3111,-1.2043,-1.1619,-1.1619,-1.1619,-1.1619,-1.1626,-1.1769,-1.183,-1.1843,-1.1999,-1.2508,-1.3386,-1.6487,-1.7929,-1.8557,-1.9872,-2.0215,-2.0028,-2.0028,-2.0028,-2.0028,-2.0028,-2.0028,-2.0028,-2.0028,-2.0028,-2.0028,-2.0028,-2.0028,-2.0028,-2.0028,-2.0028,-2.0028,-2.0028,-2.0028,-2.0028,-2.0028,-2.0028,-2.0028,-2.0028,-2.0028,-2.0656,-2.2497,-2.2867,-2.2986,-2.3222,-2.3497,-2.3681,-2.3826,-2.4024,-2.4242,-2.4316,-2.4442,-2.4436,-2.4142,-2.4168,-2.4062,-2.3701,-2.346,-2.33,-2.3247,-2.306,-2.2979,-2.3033,-2.3033,-2.3033,-2.3033,-2.2979,-2.2498,-2.1695,-2.1762,-2.1722,-0.8397,-0.8303,-0.8126,-0.7834,-0.755,-0.7265,-0.6946,0.0,-0.6763,-0.6856,0.0,-0.7088,-0.7366,0.0,0.0,-0.7428,-0.7637,-0.7945,-0.8487,-0.8976,-1.0321,-1.3033,-1.2891,-1.2378,-1.2012,-1.198,-1.2251,-1.292,-1.3664,-1.4297,-1.4678,-1.4913,-1.5041,-1.5041,-1.5211,-1.4884,-1.4181,-1.3682,-1.3039,-1.2338,-1.1835,-1.1619,-1.1619,-1.1619,-1.1619,-1.1626,-1.1769,-1.183,-1.1843,-1.1999,-1.2284,-1.2887,-1.4852,-1.5865,-1.6362,-1.7711,-1.796,-1.7609,-1.7609,-1.7609,-1.7609,-1.7609,-1.7609,-1.7609,-1.7609,-1.7609,-1.7609,-1.7609,-1.7609,-1.7609,-1.7609,-1.7609,-1.7609,-1.7609,-1.7609,-1.7609,-1.7609,-1.7609,-1.7609,-1.7609,-1.7609,-1.832,-2.0632,-2.1187,-2.1346,-2.1383,-2.1616,-2.1931,-2.2291,-2.2603,-2.2988,-2.3288,-2.3885,-2.4142,-2.3848,-2.4062,-2.3968,-2.3407,-2.334,-2.3207,-2.2926,-2.314,-2.3394,-2.3661,-2.3674,-2.3674,-2.3661,-2.3407,-2.2819,-2.1937,-2.2205,-2.2044,-0.875,-0.8574,-0.8323,-0.8018,-0.7719,-0.74,-0.697,-0.6903,-0.693,-0.6997,0.0,0.0,0.0,0.0,0.0,0.0,-0.7428,-0.7563,-0.7841,-0.8058,-0.8808,-1.0593,-1.071,-1.0694,-1.0671,-1.0544,-1.0681,-1.1021,-1.1277,-1.1657,-1.2096,-1.2467,-1.275,-1.285,-1.2955,-1.2896,-1.2545,-1.2308,-1.2094,-1.1835,-1.1603,-1.1531,-1.1619,-1.1701,-1.1742,-1.1755,-1.1993,-1.2094,-1.2108,-1.2257,-1.2394,-1.2623,-1.3359,-1.416,-1.5044,-1.6141,-1.6358,-1.6016,-1.5975,-1.5929,-1.5947,-1.5988,-1.6109,-1.6211,-1.6211,-1.6211,-1.6211,-1.6211,-1.6211,-1.6211,-1.6211,-1.6211,-1.6211,-1.6211,-1.6211,-1.6211,-1.6211,-1.6211,-1.6211,-1.6211,-1.6211,-1.6509,-1.7518,-1.8304,-1.8823,-1.8823,-1.9091,-1.9542,-2.0115,-2.1031,-2.1857,-2.2456,-2.3445,-2.3901,-2.3781,-2.3888,-2.3848,-2.3607,-2.342,-2.3273,-2.314,-2.326,-2.3541,-2.4008,-2.3861,-2.3848,-2.4022,-2.3728,-2.3207,-2.2498,-2.2445,-2.2205,-0.9022,-0.8777,-0.8465,-0.8076,-0.7821,-0.7502,-0.7136,-0.7129,-0.7179,-0.726,-0.7414,0.0,0.0,0.0,0.0,0.0,0.0,-0.7453,-0.7522,-0.759,-0.7929,-0.875,-0.9191,-0.9469,-0.9571,-0.9523,-0.953,-0.9632,-0.9639,-0.9836,-1.0283,-1.0772,-1.1111,-1.1267,-1.1497,-1.1619,-1.1619,-1.1511,-1.1511,-1.1619,-1.1504,-1.1511,-1.1626,-1.1769,-1.183,-1.185,-1.2155,-1.2291,-1.2298,-1.244,-1.2501,-1.2501,-1.2501,-1.3054,-1.3889,-1.4464,-1.4457,-1.4268,-1.4096,-1.4063,-1.4129,-1.4309,-1.4457,-1.4572,-1.4572,-1.4605,-1.4646,-1.4646,-1.4679,-1.4711,-1.4711,-1.4711,-1.4711,-1.4711,-1.4711,-1.4711,-1.4711,-1.4711,-1.4703,-1.4654,-1.4646,-1.4629,-1.458,-1.5786,-1.6729,-1.6729,-1.6936,-1.7394,-1.8114,-1.9349,-2.0445,-2.1186,-2.2342,-2.3067,-2.3067,-2.3145,-2.3158,-2.308,-2.28,-2.2722,-2.28,-2.2878,-2.3151,-2.3645,-2.3463,-2.345,-2.3658,-2.3517,-2.3235,-2.2941,-2.2709,-2.2472,-0.9282,-0.8927,-0.8594,-0.8103,-0.7821,-0.7556,-0.7439,-0.7405,-0.7448,-0.7733,-0.7794,-0.7841,-0.7948,0.0,0.0,0.0,0.0,0.0,0.0,-0.7251,-0.7341,-0.7955,-0.8548,-0.8905,-0.8912,-0.9089,-0.9228,-0.9228,-0.9228,-0.9367,-0.9822,-1.0412,-1.0806,-1.0887,-1.1389,-1.1619,-1.1619,-1.1613,-1.1613,-1.1619,-1.1613,-1.1613,-1.1626,-1.1769,-1.183,-1.185,-1.2155,-1.2291,-1.2298,-1.244,-1.2501,-1.2501,-1.2501,-1.2494,-1.2531,-1.2313,-1.2113,-1.1882,-1.1739,-1.178,-1.1923,-1.2155,-1.2203,-1.221,-1.221,-1.2313,-1.2436,-1.2436,-1.2532,-1.2565,-1.2565,-1.2565,-1.2565,-1.2565,-1.2565,-1.2565,-1.2565,-1.2565,-1.2524,-1.2457,-1.2436,-1.2388,-1.2237,-1.4046,-1.558,-1.558,-1.5588,-1.5809,-1.6608,-1.7536,-1.8481,-1.9195,-2.0426,-2.1217,-2.1217,-2.1448,-2.1485,-2.1229,-2.1135,-2.116,-2.1414,-2.174,-2.2019,-2.2235,-2.2235,-2.2235,-2.2235,-2.2423,-2.2641,-2.298,-2.3214,-2.2979,-0.968,-0.9456,-0.9171,-0.8621,-0.833,-0.8092,-0.774,-0.774,-0.7868,-0.8072,-0.8187,-0.8336,-0.8534,0.0,0.0,0.0,0.0,0.0,0.0,-0.7132,-0.7206,-0.7563,-0.8038,-0.8332,-0.8486,-0.854,-0.8661,-0.8757,-0.8675,-0.8852,-0.9496,-1.01,-1.0588,-1.0873,-1.1382,-1.1619,-1.1619,-1.1518,-1.1518,-1.1619,-1.1619,-1.1667,-1.1769,-1.202,-1.2135,-1.2149,-1.2345,-1.2427,-1.2433,-1.2481,-1.2501,-1.2501,-1.2501,-1.2501,-1.2467,-1.2169,-1.2094,-1.2115,-1.1965,-1.2013,-1.2142,-1.2196,-1.2277,-1.2352,-1.2352,-1.2461,-1.2583,-1.2583,-1.2691,-1.2807,-1.2807,-1.2807,-1.2807,-1.2807,-1.2807,-1.2807,-1.2807,-1.2725,-1.2637,-1.2589,-1.2501,-1.2413,-1.2366,-1.3032,-1.3415,-1.3275,-1.3245,-1.3542,-1.4284,-1.5203,-1.6164,-1.6874,-1.7886,-1.8509,-1.8509,-1.8573,-1.8659,-1.8724,-1.8735,-1.8835,-1.9221,-1.9318,-1.9468,-1.979,-1.9801,-1.9801,-1.9801,-2.04,-2.1094,-2.1824,-2.2453,-2.2789,-0.9985,-0.9795,-0.9564,-0.9069,-0.8798,-0.8554,-0.8208,-0.8208,-0.8336,-0.8593,-0.8703,-0.8893,-0.9198,0.0,0.0,0.0,0.0,0.0,0.0,-0.7018,-0.7058,-0.7204,-0.7651,-0.7997,-0.8099,-0.8208,-0.8361,-0.8397,-0.8374,-0.8547,-0.9191,-0.9795,-1.0324,-1.0772,-1.1274,-1.1565,-1.1619,-1.1518,-1.1545,-1.1694,-1.1694,-1.1769,-1.1925,-1.2176,-1.2291,-1.2298,-1.244,-1.2501,-1.2501,-1.2501,-1.2501,-1.2501,-1.2501,-1.2501,-1.2467,-1.2169,-1.2128,-1.221,-1.2216,-1.2318,-1.2454,-1.2508,-1.2589,-1.2664,-1.2664,-1.2773,-1.2888,-1.2888,-1.2996,-1.3119,-1.3119,-1.3119,-1.3119,-1.3119,-1.3119,-1.3105,-1.3051,-1.2956,-1.2854,-1.2752,-1.2651,-1.2562,-1.2508,-1.2501,-1.2433,-1.2244,-1.2216,-1.2443,-1.3047,-1.3937,-1.4702,-1.5281,-1.612,-1.6573,-1.6573,-1.6573,-1.663,-1.6755,-1.6831,-1.6994,-1.7272,-1.7358,-1.7538,-1.7749,-1.7749,-1.7749,-1.7749,-1.8592,-1.95,-2.0541,-2.1211,-2.1969]},{"header":{"parameterUnit":"m.s-1","parameterCategory":1,"la1":30.6,"la2":29.2853,"lo1":-89.7004,"lo2":-87.6739,"dy":0.0162,"dx":0.0183,"nx":112,"ny":82,"refTime":"2026-04-08T00:00:00:Z","depth":0,"parameterNumber":3,"parameterNumberName":"V-component_of_WINDS"},"data":[0.0,0.0,0.0,0.0,0.0,0.0,0.0,0.0,0.0,0.0,0.0,0.0,0.0,0.0,0.0,0.0,0.0,0.0,0.0,0.0,0.0,0.0,0.0,0.0,0.0,0.0,0.0,0.0,0.0,0.0,0.0,0.0,0.0,0.0,0.0,0.0,0.0,0.0,0.0,0.0,0.0,0.0,0.0,0.0,0.0,0.0,0.0,0.0,0.0,0.0,0.0,0.0,0.0,0.0,0.0,0.0,0.0,0.0,0.0,0.0,0.0,0.0,0.0,0.0,0.0,0.0,0.0,0.0,0.0,0.0,0.0,0.0,0.0,0.0,0.0,0.0,0.0,0.0,0.0,0.0,0.0,0.0,0.0,0.0,0.0,0.0,0.0,0.0,0.0,0.0,0.5175,0.5365,0.5902,0.6179,0.5935,0.5878,0.5556,0.4966,0.0,0.0,0.0,0.0,0.0,0.0,0.0,0.0,0.0,0.0,0.0,0.0,0.0,0.0,0.0,0.0,0.0,0.0,0.0,0.0,0.0,0.0,0.0,0.0,0.0,0.0,0.0,0.0,0.0,0.0,0.0,0.0,0.0,0.0,0.0,0.0,0.0,0.0,0.0,0.0,0.0,0.0,0.0,0.0,0.0,0.0,0.0,0.0,0.0,0.0,0.0,0.0,0.0,0.0,0.0,0.0,0.0,0.0,0.0,0.0,0.0,0.0,0.0,0.0,0.0,0.0,0.0,0.0,0.0,0.0,0.0,0.0,0.0,0.0,0.0,0.0,0.0,0.0,0.0,0.0,0.0,0.0,0.0,0.0,0.0,0.0,0.0,0.0,0.0,0.0,0.0,0.0,0.0,0.0,0.0,0.0,0.0,0.0,0.0,0.0,0.0,0.0,0.0,0.0,0.6461,0.7417,0.7755,0.7942,0.7896,0.7489,0.7015,0.6411,0.0,0.0,0.0,0.0,0.0,0.0,0.0,0.0,0.0,0.0,0.0,0.0,0.0,0.0,0.0,0.0,0.0,0.0,0.0,0.0,0.0,0.0,0.0,0.0,0.0,0.0,0.0,0.0,0.0,0.0,0.0,0.0,0.0,0.0,0.0,0.0,0.0,0.0,0.0,0.0,0.0,0.0,0.0,0.0,0.0,0.0,0.0,0.0,0.0,0.0,0.0,0.0,0.0,0.0,0.0,0.0,0.0,0.0,0.0,0.0,0.0,0.0,0.0,0.0,0.0,0.0,0.0,0.0,0.0,0.0,0.0,0.0,0.0,0.0,0.0,0.0,0.0,0.0,0.0,0.0,0.0,0.0,0.0,0.0,0.0,0.0,0.0,0.0,0.0,0.0,0.0,0.0,0.0,0.0,0.0,0.0,0.0,0.0,0.0,0.0,0.0,0.0,0.0,0.6532,0.7136,0.7841,0.8126,0.8201,0.8038,0.776,0.7305,0.662,0.5507,0.0,0.0,0.0,0.0,0.0,0.0,0.0,0.0,0.0,0.0,0.0,0.0,0.0,0.0,0.0,0.0,0.0,0.0,0.0,0.0,0.0,0.0,0.0,0.0,0.0,0.0,0.0,0.0,0.0,0.0,0.0,0.0,0.0,0.0,0.0,0.0,0.0,0.0,0.0,0.0,0.0,0.0,0.0,0.0,0.0,0.0,0.0,0.0,0.0,0.0,0.0,0.0,0.0,0.0,0.0,0.0,0.0,0.0,0.0,0.0,0.0,0.0,0.0,0.0,0.0,0.0,0.0,0.0,0.0,0.0,0.0,0.0,0.0,0.0,0.0,0.0,0.0,0.0,0.0,0.0,0.0,0.0,0.0,0.0,0.0,0.0,0.0,0.0,0.0,0.0,0.0,0.0,0.0,0.0,0.0,0.0,0.0,0.0,0.0,0.0,0.0,0.0,0.7098,0.7536,0.7834,0.8079,0.8092,0.7787,0.7563,0.7136,0.641,0.5813,0.0,0.0,0.0,0.0,0.0,0.0,0.0,0.0,0.0,0.0,0.0,0.0,0.0,0.0,0.0,0.0,0.0,0.0,0.0,0.0,0.0,0.0,0.0,0.0,0.0,0.0,0.0,0.0,0.0,0.0,0.0,0.0,0.0,0.0,0.0,0.0,0.0,0.0,0.0,0.0,0.0,0.0,0.0,0.0,0.0,0.0,0.0,0.0,0.0,0.0,0.0,0.0,0.0,0.0,0.0,0.0,0.0,0.0,0.0,0.0,0.0,0.0,0.0,0.0,0.0,0.0,0.0,0.0,0.0,0.0,0.0,0.0,0.0,0.0,0.0,0.0,0.0,0.0,0.0,0.0,0.0,0.0,0.0,0.0,0.0,0.0,0.0,0.0,0.0,0.0,0.0,0.0,0.0,0.0,0.0,0.0,0.0,0.0,0.0,0.0,0.0,0.0,0.721,0.7699,0.7941,0.7995,0.7887,0.7638,0.7224,0.6674,0.606,0.546,0.0,0.0,0.0,0.0,0.0,0.0,0.0,0.0,0.0,0.0,0.0,0.0,0.0,0.0,0.0,0.0,0.0,0.0,0.0,0.0,0.0,0.0,0.0,0.0,0.0,0.0,0.0,0.0,0.0,0.0,0.0,0.0,0.0,0.0,0.0,0.0,0.0,0.0,0.0,0.0,0.0,0.0,0.0,0.0,0.0,0.0,0.0,0.0,0.0,0.0,0.0,0.0,0.0,0.0,0.0,0.0,0.0,0.0,0.0,0.0,0.0,0.0,0.0,0.0,0.0,0.0,0.0,0.0,0.0,0.0,0.0,0.0,0.0,0.0,0.0,0.0,0.0,0.0,0.0,0.0,0.0,0.0,0.0,0.0,0.0,0.0,0.0,0.0,0.0,0.0,0.0,0.0,0.0,0.0,0.0,0.0,0.0,0.0,0.0,0.0,0.0,0.0,0.765,0.8051,0.8126,0.8033,0.7916,0.7806,0.745,0.7005,0.6409,0.0,0.0,0.0,0.0,0.0,0.0,0.0,0.0,0.0,0.0,0.0,0.0,0.0,0.0,0.0,0.0,0.0,0.0,0.0,0.0,0.0,0.0,0.0,0.0,0.0,0.0,0.0,0.0,0.0,0.0,0.0,0.0,0.0,0.0,0.0,0.0,0.0,0.0,0.0,0.0,0.0,0.0,0.0,0.0,0.0,0.0,0.0,0.0,0.0,0.0,0.0,0.0,0.0,0.0,0.0,0.0,0.0,0.0,0.0,0.0,0.0,0.0,0.0,0.0,0.0,0.0,0.0,0.0,0.0,0.0,0.0,0.0,0.0,0.0,0.0,0.0,0.0,0.0,0.0,0.0,0.0,0.0,0.0,0.0,0.0,0.0,0.0,0.0,0.0,0.0,0.0,0.0,0.0,0.0,0.0,0.0,0.0,0.0,0.0,0.0,0.0,0.0,0.7816,0.821,0.8481,0.8427,0.8146,0.7993,0.797,0.7811,0.7425,0.6734,0.0,0.0,0.0,0.0,0.0,0.0,0.0,0.0,0.0,0.0,0.0,0.0,0.0,0.0,0.0,0.0,0.0,0.0,0.0,0.0,0.0,0.0,0.0,0.0,0.0,0.0,0.0,0.0,0.0,0.0,0.0,0.0,0.0,0.0,0.0,0.0,0.0,0.0,0.0,0.0,0.0,0.0,0.0,0.0,0.0,0.0,0.0,0.0,0.0,0.0,0.0,0.0,0.0,0.0,0.0,0.0,0.0,0.0,0.0,0.0,0.0,0.0,0.0,0.0,0.0,0.0,0.0,0.0,0.0,0.0,0.0,0.0,0.0,0.0,0.0,0.0,0.0,0.0,0.0,0.0,0.0,0.0,0.0,0.0,0.0,0.0,0.0,0.0,0.0,0.0,0.0,0.0,0.0,0.0,0.0,0.0,0.0,0.0,0.0,0.0,0.0,0.0,0.8766,0.8871,0.8896,0.8933,0.8392,0.8049,0.8132,0.8188,0.7861,0.0,0.0,0.0,0.0,0.0,0.0,0.0,0.0,0.0,0.0,0.0,0.0,0.0,0.0,0.0,0.0,0.0,0.0,0.0,0.0,0.0,0.0,0.0,0.0,0.0,0.0,0.0,0.0,0.0,0.0,0.0,0.0,0.0,0.0,0.0,0.0,0.0,0.0,0.0,0.0,0.0,0.0,0.0,0.0,0.0,0.0,0.0,0.0,0.0,0.0,0.0,0.0,0.0,0.0,0.0,0.0,0.0,0.0,0.0,0.0,0.0,0.0,0.0,0.0,0.0,0.0,0.0,0.0,0.0,0.0,0.0,0.0,0.0,0.0,0.0,0.0,0.0,0.0,0.0,0.0,0.0,0.0,0.0,0.0,0.0,0.0,0.0,0.0,0.0,0.0,0.0,0.0,0.0,0.0,0.0,0.0,0.0,0.0,0.0,0.0,0.0,0.0,0.0,0.9432,0.9766,0.9904,0.9745,0.9389,0.9211,0.9503,0.9374,0.8972,0.8167,0.0,0.0,0.0,0.0,0.0,0.0,0.0,0.0,0.0,0.0,0.0,0.0,0.0,0.0,0.0,0.0,0.0,0.0,0.0,0.0,0.0,0.0,0.0,0.0,0.0,0.0,0.0,0.0,0.0,0.0,0.0,0.0,0.0,0.0,0.0,0.0,0.0,0.0,0.0,0.0,0.0,0.0,0.0,0.0,0.0,0.0,0.0,0.0,0.0,0.0,0.0,0.0,0.0,0.0,0.0,0.0,0.0,0.0,0.0,0.0,0.0,0.0,0.0,0.0,0.0,0.0,0.0,0.0,0.0,0.0,0.0,0.0,0.0,0.0,0.0,0.0,0.0,0.0,0.0,0.0,0.0,0.0,0.0,0.0,0.0,0.0,0.0,0.0,0.0,0.0,0.0,0.0,0.0,0.0,0.0,0.0,0.0,0.0,0.0,0.0,0.0,0.0,1.0281,1.0683,1.0906,1.0814,1.0453,1.0319,1.0644,1.0582,1.0147,0.9211,0.0,0.0,0.0,0.0,0.0,0.0,0.0,0.0,0.0,0.0,0.0,0.0,0.0,0.0,0.0,0.0,0.0,0.0,0.0,0.0,0.0,0.0,0.0,0.0,0.0,0.0,0.0,0.0,0.0,0.0,0.0,0.0,0.0,0.0,0.0,0.0,0.0,0.0,0.0,0.0,0.0,0.0,0.0,0.0,0.0,0.0,0.0,0.0,0.0,0.0,0.0,0.0,0.0,0.0,0.0,0.0,0.0,0.0,0.0,0.0,0.0,0.0,0.0,0.0,0.0,0.0,0.0,0.0,0.0,0.0,0.0,0.0,0.0,0.0,0.0,0.0,0.0,0.0,0.0,0.0,0.0,0.0,0.0,0.0,0.0,0.0,0.0,0.0,0.0,0.0,0.0,0.0,0.0,0.0,0.0,0.0,0.0,0.0,0.0,0.0,0.0,0.0,1.1169,1.1582,1.182,1.1971,1.1549,1.1364,1.1638,1.1699,1.131,1.0207,0.0,0.0,0.0,0.0,0.0,0.0,0.0,0.0,0.0,0.0,0.0,0.0,0.0,0.0,0.0,0.0,0.0,0.0,0.0,0.0,0.0,0.0,0.0,0.0,0.0,0.0,0.0,0.0,0.0,0.0,0.0,0.0,0.0,0.0,0.0,0.0,0.0,0.0,0.0,0.0,0.0,0.0,0.0,0.0,0.0,0.0,0.0,0.0,0.0,0.0,0.0,0.0,0.0,0.0,0.0,0.0,0.0,0.0,0.0,0.0,1.7922,1.675,0.0,0.0,0.0,0.0,0.0,0.0,0.0,0.0,0.0,0.0,0.0,0.0,0.0,0.0,0.0,0.0,0.0,0.0,0.0,0.0,0.0,0.0,0.0,0.0,0.0,0.0,0.0,0.0,0.0,0.0,0.0,0.0,0.0,0.0,0.0,0.0,0.0,0.0,0.0,0.0,1.1663,1.2137,1.2422,1.2742,1.2473,1.2383,1.2636,1.2475,1.1949,1.1066,1.0032,0.0,0.0,0.0,0.0,0.0,0.0,0.0,0.0,0.0,0.0,0.0,0.0,0.0,0.0,0.0,0.0,0.0,0.0,0.0,0.0,0.0,0.0,0.0,0.0,0.0,0.0,0.0,0.0,0.0,0.0,0.0,0.0,0.0,0.0,0.0,0.0,0.0,0.0,0.0,0.0,0.0,0.0,0.0,0.0,0.0,0.0,0.0,0.0,0.0,0.0,0.0,0.0,0.0,0.0,0.0,0.0,0.0,0.0,0.0,2.1016,1.9469,0.0,0.0,0.0,0.0,0.0,0.0,0.0,0.0,0.0,0.0,0.0,0.0,0.0,0.0,0.0,0.0,0.0,0.0,0.0,0.0,0.0,0.0,0.0,0.0,0.0,0.0,0.0,0.0,0.0,0.0,0.0,0.0,0.0,0.0,0.0,0.0,0.0,0.0,0.0,0.0,1.1774,1.2492,1.2985,1.3471,1.3386,1.3367,1.3503,1.3099,1.253,1.184,1.0718,0.0,0.0,0.0,0.0,0.0,0.0,0.0,0.0,0.0,0.0,0.0,0.0,0.0,0.0,0.0,0.0,0.0,0.0,0.0,0.0,0.0,0.0,0.0,0.0,0.0,0.0,0.0,0.0,0.0,0.0,0.0,0.0,0.0,0.0,0.0,0.0,0.0,0.0,0.0,0.0,0.0,0.0,0.0,0.0,0.0,0.0,0.0,0.0,0.0,0.0,0.0,0.0,0.0,2.7315,2.7801,2.7891,2.7416,2.7276,2.7286,2.4596,2.3029,2.2353,2.2183,0.0,0.0,0.0,0.0,0.0,0.0,0.0,0.0,0.0,0.0,0.0,0.0,0.0,0.0,0.0,0.0,0.0,0.0,0.0,0.0,0.0,0.0,1.7148,1.7075,1.7057,1.6531,1.4533,0.0,0.0,0.0,0.0,0.0,0.0,0.0,0.0,0.0,0.0,0.0,1.1995,1.2906,1.3628,1.4266,1.4334,1.4307,1.4225,1.3723,1.314,1.2566,1.1539,1.0557,0.0,0.0,0.0,0.0,0.0,0.0,0.0,0.0,0.0,0.0,0.0,0.0,0.0,0.0,0.0,0.0,0.0,0.0,0.0,0.0,0.0,0.0,0.0,0.0,0.0,0.0,0.0,0.0,0.0,0.0,0.0,0.0,2.2819,2.2869,0.0,0.0,0.0,0.0,0.0,0.0,0.0,0.0,0.0,0.0,0.0,0.0,0.0,2.5991,2.6456,2.7683,2.8537,2.9021,2.9313,2.9388,2.9245,2.8807,2.8998,2.9558,2.8961,0.0,2.5409,2.5039,0.0,0.0,0.0,0.0,0.0,0.0,0.0,0.0,0.0,0.0,0.0,0.0,0.0,0.0,0.0,0.0,0.0,0.0,0.0,0.0,0.0,0.0,1.9385,1.9018,1.8921,1.8863,1.8537,1.6961,1.5385,1.4606,1.3322,1.2122,0.0,0.0,0.0,0.0,0.0,0.0,1.3085,1.3843,1.4493,1.517,1.5228,1.5126,1.4825,1.4464,1.3988,1.3389,1.27,1.2036,1.1307,1.077,0.0,0.0,0.0,0.0,0.0,0.0,0.0,0.0,0.0,0.0,0.0,0.0,0.0,0.0,0.0,0.0,0.0,0.0,0.0,0.0,0.0,0.0,0.0,0.0,0.0,0.0,0.0,0.0,0.0,2.3226,2.4148,2.4481,2.4531,2.4274,0.0,0.0,0.0,0.0,0.0,0.0,0.0,0.0,0.0,2.7137,2.853,2.949,2.997,3.1141,3.1796,3.1964,3.2373,3.2524,3.2439,3.2244,3.2326,3.2635,3.2549,3.1529,2.9825,2.7786,2.5805,2.377,0.0,0.0,0.0,0.0,2.0571,2.1394,2.2325,2.262,2.262,2.262,0.0,0.0,0.0,0.0,0.0,0.0,0.0,1.9022,1.9956,2.0771,2.1343,2.1326,2.1229,2.0995,2.0679,1.9733,1.8487,1.7031,1.5671,1.4484,1.3699,1.2307,0.0,0.0,0.0,1.3043,1.4588,1.5144,1.567,1.6374,1.6265,1.6093,1.5912,1.5397,1.4959,1.4699,1.4112,1.3565,1.3124,1.2471,1.1703,0.0,0.0,0.0,0.0,0.0,0.0,0.0,0.0,0.0,0.0,0.0,0.0,0.0,0.0,0.0,0.0,0.0,0.0,0.0,0.0,0.0,0.0,0.0,0.0,0.0,0.0,0.0,0.0,2.4625,2.5711,2.6364,2.6314,2.6138,0.0,0.0,0.0,0.0,0.0,0.0,2.753,2.8549,2.9553,3.0382,3.1461,3.224,3.2641,3.3621,3.4123,3.4123,3.4525,3.468,3.468,3.468,3.468,3.468,3.468,3.4098,3.2918,3.0282,2.8187,2.6388,2.4338,2.3741,2.4019,2.3637,2.4083,2.4968,2.5877,2.6058,2.5901,2.5901,2.4766,2.3149,2.1894,0.0,0.0,0.0,0.0,2.119,2.227,2.2892,2.3221,2.3301,2.3041,2.2595,2.203,2.153,2.0663,1.8912,1.7661,1.6628,1.58,1.4435,0.0,1.411,1.4185,1.4646,1.595,1.6434,1.6901,1.7433,1.7231,1.6941,1.6757,1.6238,1.5886,1.5786,1.5372,1.4934,1.4543,1.3896,1.3041,1.2006,0.0,0.0,0.0,0.0,0.0,0.0,0.0,0.0,0.0,0.0,0.0,0.0,0.0,0.0,0.0,0.0,0.0,0.0,0.0,0.0,0.0,0.0,0.0,0.0,0.0,0.0,0.0,0.0,0.0,2.8587,2.8298,0.0,0.0,0.0,0.0,2.8612,2.9729,3.0382,3.0407,3.1411,3.2039,3.2089,3.3194,3.3796,3.3822,3.4399,3.4675,3.4675,3.47,3.468,3.468,3.468,3.468,3.468,3.468,3.4098,3.3018,3.2298,3.0867,2.8997,2.7796,2.7062,2.675,2.7157,2.7579,2.8145,2.9172,2.9176,2.8687,2.8687,2.6854,2.4526,2.401,2.2861,0.0,0.0,2.3309,2.3818,2.4228,2.4693,2.4943,2.4517,2.3902,2.3343,2.2899,2.199,2.0897,1.9831,1.903,1.817,1.7102,0.0,1.5267,1.5224,1.5545,1.6047,1.6848,1.7574,1.7997,1.7972,1.7972,1.7617,1.6861,1.6773,1.658,1.6281,1.6228,1.5909,1.5183,1.4741,1.3962,1.2767,1.2075,0.0,0.0,0.0,0.0,0.0,0.0,0.0,0.0,0.0,0.0,0.0,0.0,0.0,0.0,0.0,0.0,0.0,0.0,0.0,0.0,0.0,0.0,0.0,0.0,0.0,0.0,0.0,0.0,3.0432,3.0984,0.0,3.106,3.0859,3.0834,3.1035,3.2416,3.3269,3.3269,3.4625,3.5403,3.5403,3.6157,3.6533,3.6533,3.6734,3.6835,3.6835,3.6835,3.6659,3.6307,3.6307,3.6107,3.578,3.578,3.5353,3.465,3.4405,3.2796,3.0381,2.9349,2.9147,2.9373,2.9059,2.9429,3.0158,3.0678,3.0683,3.0367,2.9549,2.8002,2.6323,2.5612,2.4933,2.4437,2.4717,2.5148,2.5611,2.6085,2.6325,2.6378,2.6262,2.5747,2.5025,2.4337,2.3266,2.2231,2.1448,2.029,1.933,1.8912,1.8094,1.7548,1.7834,1.7723,1.795,1.8767,1.8881,1.8957,1.9184,1.8713,1.828,1.7979,1.747,1.7147,1.7029,1.6732,1.6449,1.6166,1.5487,1.4799,1.41,1.3055,1.222,0.0,0.0,0.0,0.0,0.0,0.0,0.0,0.0,0.0,0.0,0.0,0.0,0.0,0.0,0.0,0.0,0.0,0.0,0.0,0.0,0.0,0.0,0.0,0.0,0.0,3.0318,3.1898,3.2638,3.3403,3.3785,3.3581,3.3403,3.3428,3.3811,3.506,3.5856,3.608,3.7104,3.7744,3.7873,3.7931,3.801,3.8114,3.8064,3.8015,3.8015,3.8015,3.7713,3.7186,3.7186,3.6933,3.6405,3.6405,3.6056,3.5508,3.5508,3.4215,3.2237,3.1653,3.1561,3.1769,3.1314,3.1397,3.1772,3.1696,3.1662,3.1486,3.0248,2.9245,2.836,2.7643,2.7248,2.7099,2.7099,2.7327,2.7627,2.7912,2.8008,2.7963,2.7884,2.7325,2.6594,2.5654,2.4588,2.3578,2.2817,2.1418,2.0287,2.0054,1.947,1.9121,1.9258,1.916,1.9241,1.9844,1.9805,1.9707,1.9707,1.9199,1.8695,1.8422,1.7773,1.7383,1.7383,1.6973,1.6629,1.6504,1.5937,1.5293,1.457,1.332,1.252,1.2203,0.0,0.0,0.0,0.0,0.0,0.0,0.0,0.0,0.0,0.0,0.0,0.0,0.0,0.0,0.0,0.0,0.0,0.0,0.0,0.0,0.0,0.0,0.0,3.1241,3.2699,3.4181,3.5404,3.5562,3.5798,3.6332,3.593,3.6061,3.7164,3.7749,3.83,3.8824,3.883,3.895,3.9232,3.8405,3.8117,3.8434,3.8188,3.8065,3.8065,3.8065,3.7764,3.7236,3.7236,3.6935,3.643,3.643,3.6081,3.5533,3.5533,3.5207,3.4731,3.468,3.4374,3.3897,3.3897,3.3545,3.2993,3.2441,3.224,3.2039,3.1009,3.0633,3.0507,2.998,2.9804,2.9804,2.9804,2.9804,2.9804,2.9804,2.9804,2.9663,2.9209,2.8609,2.7862,2.6869,2.5773,2.477,2.3821,2.2356,2.1064,2.0377,2.0072,1.9805,1.9394,1.9668,0.0,1.9941,2.0293,2.0273,1.9394,1.9277,1.8926,1.8105,1.7617,1.7363,1.7363,1.6902,1.6484,1.6085,1.6046,1.541,1.4114,1.2886,1.2262,1.2223,0.0,0.0,0.0,0.0,0.0,0.0,0.0,0.0,0.0,0.0,0.0,0.0,0.0,0.0,0.0,0.0,0.0,0.0,0.0,0.0,0.0,3.3848,3.4517,3.4386,3.629,3.792,3.8671,3.9519,4.0121,4.024,4.0148,4.0175,4.0458,4.1059,4.1259,4.0941,4.123,4.1132,4.0469,4.0044,3.9748,3.9488,3.9323,3.922,3.922,3.922,3.8944,3.8417,3.8417,3.7864,3.696,3.696,3.6659,3.6132,3.6132,3.6056,3.583,3.5027,3.4374,3.3897,3.3897,3.3545,3.3086,3.2893,3.2566,3.2164,3.1863,3.1235,3.0583,3.0432,3.0105,2.9804,2.9804,2.9804,2.9804,2.9804,2.9804,2.9702,2.9404,2.8949,2.8409,2.7567,2.662,2.5662,2.474,2.357,2.2397,2.1329,2.0736,2.039,2.0273,2.0351,2.0429,2.0429,2.0215,2.0,1.9766,1.918,1.8695,1.8442,1.7486,1.6882,1.6882,1.5918,1.541,1.5586,1.5,1.4328,1.3691,1.3607,1.3295,0.0,0.0,0.0,0.0,0.0,0.0,0.0,0.0,0.0,0.0,0.0,0.0,0.0,0.0,0.0,0.0,0.0,0.0,0.0,0.0,0.0,0.0,3.7086,3.8352,3.8774,3.9593,4.0463,4.1293,4.198,4.243,4.243,4.243,4.2514,4.2795,4.316,4.3283,4.3125,4.2912,4.2638,4.2296,4.141,4.0904,4.092,4.0538,4.0389,4.0389,4.0389,4.0108,3.9571,3.9571,3.8883,3.7715,3.7571,3.7146,3.6546,3.6452,3.6405,3.6355,0.0,0.0,0.0,0.0,3.3696,3.3395,3.3169,3.2842,3.2541,3.229,3.1788,3.121,3.0758,3.0382,3.008,2.9854,2.9804,2.9804,2.9804,2.9804,2.974,2.9599,2.9404,2.9022,2.8366,2.76,2.678,2.5846,2.4755,0.0,2.2846,2.1814,2.1069,2.0992,2.0915,2.0799,2.0741,2.0428,2.0117,1.9941,1.9473,1.8987,1.8637,1.7759,0.0,0.0,0.0,1.5459,1.5664,1.4863,0.0,0.0,0.0,0.0,0.0,0.0,0.0,0.0,1.3042,1.31,0.0,0.0,0.0,0.0,0.0,0.0,0.0,0.0,0.0,0.0,0.0,0.0,0.0,0.0,0.0,0.0,4.0008,4.2073,4.3439,4.2655,4.2393,4.3502,4.3703,4.3732,4.3732,4.3732,4.3962,4.4509,4.4566,4.4723,4.5211,4.4132,0.0,0.0,0.0,4.1953,4.2539,4.1887,4.1544,4.1544,4.1544,4.1308,4.0834,4.0834,4.0057,3.8673,3.8364,3.7672,3.6756,3.6499,3.6405,3.6405,3.6355,3.5981,3.5357,3.4299,3.3897,3.3822,3.3269,0.0,0.0,3.2491,3.2265,3.2014,3.1009,3.0658,3.0507,2.9955,2.9804,2.9804,2.9804,2.9804,2.9804,2.9804,2.9804,2.9628,2.9013,2.8549,2.7912,2.6928,2.5876,2.4992,2.4564,2.3106,2.1911,2.1683,2.1474,2.1205,2.0974,2.0741,2.0449,2.0019,1.9941,0.0,1.8812,1.8266,1.7676,1.6902,1.6406,1.6144,1.6085,1.542,1.5156,1.5469,1.4757,1.459,1.495,1.498,1.5195,1.5547,1.4699,1.4551,0.0,0.0,0.0,0.0,0.0,0.0,0.0,0.0,0.0,0.0,0.0,0.0,0.0,0.0,0.0,4.1003,4.2282,4.3559,4.5442,4.5513,4.5433,4.57,4.6205,4.6502,4.6502,4.6502,4.6561,4.668,4.6709,4.6531,4.6073,4.5806,4.5368,4.4631,4.4062,4.3709,4.3434,4.3208,4.3074,4.3074,4.3074,0.0,4.291,4.291,4.2018,4.0441,3.9832,3.8689,3.7315,3.6687,3.6405,3.6355,3.5881,3.5583,3.5357,3.4299,3.3897,3.3822,3.3269,3.3111,3.3068,3.2943,3.2591,3.2089,3.1436,3.0959,0.0,2.9955,2.9804,2.9804,2.9804,2.9804,2.9804,2.9804,2.9804,2.9628,2.9013,2.8813,2.8399,2.7182,2.6491,2.5913,2.523,2.4059,2.3047,2.2675,2.2188,2.1718,2.1436,2.0915,2.0566,2.0488,2.0117,1.9844,1.965,1.8652,1.7949,1.7773,1.7031,1.6445,1.6105,1.625,1.623,1.5968,1.6133,1.6094,1.585,1.6172,1.6375,1.6434,1.5937,1.5772,0.0,0.0,0.0,0.0,0.0,0.0,0.0,0.0,0.0,0.0,0.0,3.6357,3.7704,0.0,4.0943,4.2581,4.3658,4.4796,4.61,4.6621,4.68,4.68,4.71,4.7309,4.7309,4.7309,4.7309,4.7309,4.7309,4.716,4.683,4.6459,4.6152,4.5779,4.5157,4.4744,4.4748,4.4468,4.4284,4.4284,4.4284,4.4284,4.4284,4.4284,4.338,4.1736,4.102,3.9773,3.8141,3.7407,3.7083,3.7057,3.6775,3.6349,3.583,3.4726,3.4299,3.4198,3.337,3.3111,3.3111,3.3111,3.2893,3.2541,3.1964,3.1612,3.1235,3.0432,3.0206,3.0131,2.9854,2.9804,2.9804,2.9804,2.9804,2.9704,2.9428,2.9088,2.8712,2.805,2.7356,2.6706,2.6364,2.5575,2.4648,2.3708,2.3032,2.2531,2.2138,2.1568,2.1185,2.1185,2.0984,2.0762,2.0578,1.9314,1.8449,1.8227,1.7584,1.7253,1.7264,1.7253,1.7253,1.7264,1.7253,1.7253,1.7264,1.7454,1.7664,1.7918,1.7676,1.7296,0.0,0.0,0.0,0.0,0.0,0.0,0.0,3.3424,3.4023,3.6058,3.7793,3.926,4.0187,4.1683,4.3,4.3738,4.4915,4.5873,4.6441,4.707,4.7459,4.7309,4.7309,4.7309,4.7309,4.7309,4.7309,4.7309,4.7309,4.7309,4.7309,4.68,4.6655,4.6945,4.6093,4.5757,4.6106,4.5718,4.5537,4.5537,4.5537,4.5537,4.5537,4.5537,4.4576,4.2887,4.1803,4.0539,3.906,3.8432,3.8206,3.8206,3.8206,3.775,3.6882,3.5421,3.4906,3.4684,3.3532,3.3111,3.3111,3.3111,3.3111,3.3011,3.239,3.2215,3.2014,3.1035,3.0683,3.0507,3.0055,2.988,2.9804,2.9804,2.9804,2.9804,2.9804,2.9428,2.9038,2.8913,2.8222,2.7544,2.7354,2.6952,2.6183,2.4754,2.4009,2.346,2.3091,2.2494,2.2138,2.2138,2.2138,2.1907,2.1397,2.0302,1.9417,1.8849,1.8501,1.8511,1.8807,1.8501,1.8511,1.8807,1.8501,1.8501,1.8828,1.8828,1.9017,1.9396,1.9396,1.8812,3.2767,3.369,3.5516,3.5991,3.643,3.6776,0.0,3.6866,3.7434,3.9439,4.0487,4.1594,4.3419,4.3958,4.4496,4.5741,4.6591,4.71,4.7189,4.7758,4.7967,4.7369,4.7309,4.7309,4.7309,4.7309,4.7309,4.7309,4.7309,4.7309,4.7309,4.7249,4.7219,4.7266,4.7133,4.7089,4.7135,4.7062,4.7062,4.7062,4.7062,4.7062,4.7062,4.7062,4.6089,4.432,4.1953,4.0501,3.9782,3.9694,3.9694,3.9694,3.9694,3.9579,3.9179,3.6603,3.555,3.5219,3.3835,3.324,3.3111,3.3111,3.3111,3.3011,3.239,3.2215,3.2089,3.1486,3.0959,3.0608,3.0532,3.0156,2.9804,2.9804,2.9804,2.9804,2.9804,2.9754,2.9553,2.8988,2.8787,2.8423,2.7444,2.7243,2.6876,2.5854,2.5194,2.4636,2.4276,2.3672,2.3305,2.3305,2.3305,2.2928,2.1996,2.1774,2.1285,2.0408,2.0296,2.0328,2.0341,2.0296,2.0296,2.0341,2.0296,2.0296,2.0341,2.0341,2.0385,2.043,2.043,1.989,3.6353,3.7002,3.8374,3.9603,4.0124,4.0397,4.0756,4.0808,4.1167,4.2432,4.3509,4.4377,4.4796,4.5214,4.5783,4.6741,4.713,4.7578,4.8327,4.8356,4.8177,4.7908,4.7189,4.689,4.7279,4.695,4.689,4.7279,4.7309,4.7309,4.7309,4.7309,4.7309,4.7309,4.7309,4.7309,4.7309,4.7309,4.7309,4.7309,4.7309,4.71,4.6741,4.6741,4.5696,4.3805,4.2215,4.1239,4.0731,4.0731,4.0731,4.0731,4.0731,4.0731,4.0392,3.7725,3.6462,3.587,3.4323,3.3496,3.3111,3.3111,3.3111,3.3043,3.2792,3.2717,3.2591,3.2039,3.1712,3.1411,3.0783,3.0432,3.0181,2.9854,2.9804,2.9804,2.9804,2.9804,2.9729,2.9478,2.9113,2.8737,2.8323,2.772,2.7157,2.6756,2.5942,2.5229,2.4981,2.4492,2.4181,2.4181,2.4181,2.3904,2.3225,2.2868,2.2418,2.1735,2.138,2.1164,2.1164,2.1164,2.1164,2.1164,2.1164,2.1164,2.1164,2.1527,2.1721,2.1689,2.2022,2.193,3.9582,4.0133,4.1137,4.271,4.3213,4.3452,4.3997,4.3948,4.3938,4.4588,4.5406,4.5903,4.5394,4.5873,4.6488,4.7189,4.7608,4.8177,4.9179,4.8865,4.8506,4.8297,4.695,4.6292,4.698,4.6548,4.6531,4.701,4.7219,4.7309,4.7309,4.7309,4.7309,4.7309,4.7309,4.7309,4.7309,4.7309,4.7309,4.7309,4.7309,4.695,4.6279,4.5933,4.4923,4.3519,4.2679,4.217,4.1852,4.1852,4.1852,4.1852,4.1852,4.1852,4.1583,3.9408,3.7865,3.669,3.52,3.415,3.3454,3.3454,3.3454,3.3454,3.3454,3.3454,3.3352,3.2862,3.2566,3.2205,3.1382,3.0874,3.0507,3.0105,2.9905,2.9804,2.9804,2.9804,2.9804,2.9804,2.9453,2.9088,2.8913,2.8273,2.7645,2.7318,2.659,2.5952,2.5676,2.537,2.5194,2.5194,2.5194,2.4978,2.4486,2.4102,2.3598,2.2959,2.2495,2.2176,2.2032,2.2002,2.2002,2.2002,2.2002,2.2002,2.2032,2.2615,2.2911,2.2935,2.3463,2.3703,4.1996,4.3072,4.3968,4.5101,4.549,4.5711,4.611,4.5574,4.5061,4.5565,4.547,4.5304,4.5304,4.5873,4.6488,4.7189,4.8386,4.9269,4.9299,4.9299,4.906,4.8356,4.6531,4.5603,4.6249,4.6279,4.6279,4.6309,4.695,4.7309,4.7309,4.7309,4.7309,4.7309,4.7309,4.7309,4.7309,4.7309,4.7309,4.7309,4.7309,4.695,4.6249,4.4934,4.4306,4.4246,4.3519,4.325,4.325,4.325,4.325,4.325,4.325,4.325,4.3121,4.207,4.0048,3.7687,3.6616,3.5429,3.4356,3.4356,3.4356,3.4356,3.4356,3.4356,3.4314,3.4105,3.3482,3.2838,3.2606,3.1574,3.0608,3.0583,3.0181,2.9804,2.9804,2.9804,2.9804,2.9804,2.9779,2.9578,2.8988,2.8863,2.8524,2.7444,2.7268,2.7067,2.6515,2.6465,2.6465,2.6465,2.6465,2.618,2.5603,2.5553,2.5076,2.4023,2.3948,2.3666,2.306,2.3035,2.3035,2.3035,2.3035,2.3035,2.3065,2.3666,2.3973,2.3973,2.4493,2.4743,4.3946,4.5271,4.6577,4.769,4.8083,4.8256,4.8553,4.8044,4.7384,4.6864,4.5615,4.4646,4.4646,4.4466,4.4814,4.6411,4.8117,4.9404,4.9853,4.9912,4.9673,4.906,4.677,4.5394,4.5603,4.5244,4.5323,4.6219,4.6488,4.683,4.7279,4.7309,4.7309,4.7309,4.7309,4.7309,4.7309,4.7309,4.7309,4.7309,4.6411,4.5843,4.5603,4.4257,4.3618,4.3618,4.3379,4.329,4.329,4.329,4.329,4.329,4.329,4.329,4.322,4.2743,4.1573,3.9963,3.8187,3.7,3.6185,3.5737,3.5601,3.5601,3.5601,3.5601,3.5521,3.5183,3.46,3.3938,3.3204,3.2311,3.1486,3.0783,3.0482,3.0231,2.988,2.9804,2.9804,2.9804,2.9804,2.9729,2.9528,2.9176,2.8549,2.7444,2.7002,2.67,2.6524,2.6499,2.6499,2.6499,2.6499,2.6424,2.6223,2.5812,2.5435,2.5084,2.4732,2.4424,2.4224,2.4224,2.4224,2.4224,2.4224,2.4224,2.4224,2.4808,2.5059,2.5084,2.5636,2.5946,4.6791,4.8293,4.9587,5.0495,5.0685,5.0618,5.0678,4.9734,4.8542,4.7274,4.5379,4.3935,4.3693,4.3482,4.4025,4.6018,4.8084,4.9686,5.0593,5.0457,5.02,4.9821,4.7401,4.5757,4.5675,4.478,4.4599,4.5514,4.601,4.6501,4.692,4.7189,4.7309,4.7309,4.7309,4.7309,4.7309,4.7309,4.7309,4.7279,4.5933,4.5304,4.5244,4.3888,4.329,4.329,4.329,4.329,4.329,4.329,4.329,4.329,4.329,4.329,4.329,4.317,4.2674,4.1794,3.965,3.8377,3.7618,3.6934,3.671,3.671,3.671,3.671,3.6593,3.6188,3.5628,3.5007,3.4214,3.3364,3.2485,3.1592,3.117,3.089,3.0253,3.0049,2.9972,2.9934,2.9856,2.9804,2.9804,2.9302,2.8662,2.7971,2.7243,2.6725,2.6524,2.6499,2.6499,2.6499,2.6499,2.6499,2.6499,2.6147,2.5812,2.5611,2.5285,2.5008,2.48,2.48,2.48,2.48,2.48,2.48,2.48,2.5335,2.5586,2.5611,2.6223,2.6499,5.0382,5.1933,5.2959,5.3413,5.3218,5.2782,5.2335,5.0633,4.8624,4.6855,4.4781,4.3162,4.2546,4.2946,4.4055,4.608,4.8245,5.0136,5.1387,5.1079,5.0722,5.066,4.8317,4.6674,4.6435,4.5035,4.4234,4.4398,4.5544,4.6249,4.6339,4.695,4.7309,4.7309,4.7309,4.7309,4.7309,4.7279,4.7249,4.7249,4.5873,4.5244,4.5185,4.3888,4.329,4.329,4.329,4.329,4.329,4.329,4.329,4.329,4.329,4.329,4.329,4.329,4.329,4.3031,4.091,3.9555,3.8638,3.7911,3.7682,3.7682,3.7682,3.7682,3.7606,3.7144,3.657,3.5976,3.5588,3.4592,3.3592,3.2975,3.2397,3.1808,3.1005,3.0622,3.0368,3.0177,2.9934,2.9804,2.9804,2.9327,2.8938,2.8888,2.8047,2.7203,2.66,2.6524,2.6499,2.6499,2.6499,2.6499,2.6499,2.6499,2.6273,2.5661,2.5636,2.541,2.4901,2.4876,2.4876,2.4876,2.4876,2.4876,2.4876,2.541,2.5636,2.5661,2.6223,2.6499,5.2335,5.426,5.5639,5.5198,5.4623,5.3876,5.2919,5.1062,4.8858,4.6528,4.3574,4.1365,4.1175,4.1399,4.2412,4.5005,4.8523,5.1064,5.1403,5.2194,5.2394,5.1308,4.9709,4.8554,4.8231,4.6944,4.6041,4.5818,4.5623,4.5992,4.701,4.7219,4.7309,4.7309,4.7309,4.7309,4.7309,4.68,4.6561,4.6561,4.5214,4.4556,4.4526,4.3678,4.329,4.329,4.329,4.329,4.329,4.329,4.329,4.329,4.329,4.329,4.329,4.329,4.329,4.311,4.1602,4.0923,4.0482,3.9328,3.8943,3.8943,3.8943,3.8943,3.8833,3.8435,3.7843,3.7242,3.6855,3.6129,3.538,3.4847,3.4246,3.3533,3.2664,3.1697,3.0895,3.0545,3.0101,2.9804,2.9804,2.9679,2.9428,2.8963,2.8662,2.8172,2.7228,2.6751,2.6499,2.6499,2.6499,2.6499,2.6499,2.6499,2.6424,2.6273,2.6273,2.6223,2.6072,2.6072,2.6072,2.6072,2.6072,2.6072,2.6072,2.6197,2.6273,2.6273,2.6424,2.6499,5.4634,5.6325,5.7611,5.6867,5.5886,5.4734,5.3379,5.0959,4.8233,4.5437,4.2127,3.9886,4.0208,4.0303,4.1428,4.4623,4.8175,5.079,5.1403,5.2437,5.2863,5.2056,5.0806,4.9821,4.9405,4.82,4.7379,4.7291,4.6345,4.6082,4.683,4.716,4.7309,4.7309,4.7309,4.7309,4.7309,4.6651,4.6279,4.6279,4.4945,4.4317,4.4287,4.3589,4.329,4.329,4.329,4.329,4.329,4.329,4.329,4.329,4.329,4.329,4.329,4.329,4.329,4.311,4.1833,4.1422,4.1175,3.9858,3.9373,3.9373,3.9373,3.9373,3.9337,3.9017,3.8509,3.8023,3.7729,3.7242,3.6687,3.6097,3.5676,3.5153,3.4196,3.3254,3.2257,3.1365,3.0663,3.0164,3.0088,2.9972,2.9794,2.9352,2.9063,2.8662,2.8072,2.7318,2.6776,2.6524,2.6499,2.6499,2.6499,2.6499,2.6499,2.6499,2.6499,2.6499,2.6499,2.6499,2.6499,2.6499,2.6499,2.6499,2.6499,2.6499,2.6499,2.6499,2.6499,2.6499,5.6934,5.8118,5.893,5.7983,5.6664,5.5073,5.3179,5.0256,4.6958,4.3713,4.0545,3.8554,3.9177,3.9499,4.0779,4.4384,4.7473,4.9871,5.1218,5.2141,5.2635,5.2635,5.1622,5.0788,5.0525,4.9323,4.8674,4.885,4.7599,4.6749,4.6611,4.7152,4.7452,4.7452,4.7452,4.7452,4.7452,4.6731,4.6341,4.6341,4.4989,4.4328,4.4328,4.3718,4.3409,4.3369,4.3369,4.3329,4.329,4.329,4.329,4.329,4.329,4.329,4.329,4.329,4.329,4.311,4.1923,4.1444,4.1175,3.9858,3.9373,3.9373,3.9373,3.9373,3.9337,3.9192,3.89,3.8604,3.8389,3.8127,3.7719,3.7181,3.7008,3.6667,3.5756,3.4966,3.4005,3.2414,3.1532,3.0927,3.0558,3.033,3.0088,2.9818,2.9377,2.8988,2.8888,2.8021,2.7253,2.6776,2.665,2.66,2.66,2.6524,2.6499,2.6499,2.6499,2.6499,2.6499,2.6499,2.6499,2.6499,2.6499,2.6499,2.6499,2.6499,2.6499,2.6499,2.6575,2.66,5.8592,5.9268,5.9438,5.7476,5.5886,5.4059,5.1252,4.8284,4.5086,4.1418,3.8773,3.7167,3.7302,3.8311,4.0135,4.3194,4.6754,4.9377,5.0252,5.153,5.2371,5.2371,5.2169,5.2135,5.2392,5.1693,5.112,5.0843,5.0122,4.9251,4.8243,4.8293,4.8355,4.8355,4.8355,4.8355,4.8355,4.716,4.6548,4.6517,4.5209,4.4565,4.4565,4.425,4.4065,4.3871,4.3714,4.3518,4.329,4.329,4.329,4.329,4.329,4.329,4.329,4.329,4.329,4.32,4.25,4.1871,4.1175,3.9858,3.9373,3.9373,3.9373,3.9373,3.9373,3.9337,3.9301,3.9228,3.9192,3.9156,3.9053,3.8971,3.8495,3.8009,3.7533,3.628,3.4908,3.3569,3.2972,3.2337,3.1235,3.0771,3.0343,2.9856,2.9704,2.9478,2.8938,2.8373,2.7921,2.7821,2.7419,2.7178,2.7178,2.6751,2.6499,2.6499,2.6499,2.6499,2.6499,2.6499,2.6499,2.6499,2.6499,2.6499,2.6499,2.6499,2.6499,2.6499,2.6952,2.7178,5.9133,5.9539,5.9674,5.7814,5.5683,5.3247,5.0202,4.6616,4.2963,3.9648,3.684,3.525,3.6028,3.6772,3.8328,4.1711,4.5094,4.7665,4.8815,5.0574,5.1894,5.2266,5.23,5.2504,5.3009,5.2557,5.2134,5.1846,5.1369,5.0621,4.9599,4.9559,4.9559,4.9559,4.9559,4.9559,4.9559,4.8176,4.7485,4.7453,4.607,4.5447,4.541,4.5147,4.4805,4.4389,4.4112,4.3723,4.329,4.329,4.329,4.329,4.329,4.329,4.329,4.329,4.329,4.32,4.262,4.2201,4.1782,4.0756,3.9978,3.9373,3.9373,3.9373,3.9373,3.9373,3.9373,3.9373,3.9373,3.9373,3.9373,3.9373,3.9098,3.865,3.8289,3.7252,3.6192,3.5373,3.4379,3.3376,3.2479,3.1739,3.1033,3.0508,3.0432,3.0329,3.0047,2.9653,2.9122,2.8209,2.7871,2.7595,2.7293,2.7077,2.6801,2.6524,2.6499,2.6499,2.6499,2.6499,2.6499,2.6499,2.6499,2.6499,2.6499,2.6499,2.6499,2.6499,2.7052,2.7293,5.9438,5.9776,5.9911,5.8118,5.5446,5.2367,4.9052,4.4823,4.073,3.7787,3.5047,3.3525,3.4687,3.5025,3.6309,3.9918,4.2895,4.5331,4.6989,4.912,5.0845,5.1725,5.1961,5.2436,5.3416,5.3242,5.2964,5.2788,5.2338,5.1696,5.0735,5.0697,5.0697,5.0697,5.0697,5.0697,5.0697,4.9443,4.8799,4.8804,4.7387,4.6711,4.6676,4.6159,4.5624,4.5036,4.4624,4.412,4.3566,4.3566,4.3566,4.3566,4.3527,4.3488,4.3448,4.3409,4.3329,4.323,4.2761,4.253,4.2321,4.1811,4.0786,3.9828,3.9828,3.9828,3.9798,3.9679,3.9619,3.9589,3.9469,3.9373,3.9373,3.9373,3.9265,3.9083,3.8752,3.8194,3.7602,3.7134,3.5942,3.4739,3.3871,3.2992,3.2127,3.1458,3.1357,3.1357,3.1357,3.1161,3.0448,2.8929,2.8532,2.8133,2.767,2.7519,2.7268,2.6876,2.6851,2.6851,2.6851,2.6851,2.6851,2.6851,2.6851,2.6851,2.6851,2.6851,2.6851,2.6851,2.7369,2.7645,6.0216,6.0588,6.052,5.7611,5.4634,5.1285,4.6989,4.2523,3.843,3.5419,3.3546,3.2429,3.2598,3.3152,3.4607,3.7719,4.0121,4.2388,4.4615,4.6819,4.8748,5.0135,5.0913,5.2164,5.4296,5.4464,5.443,5.4362,5.372,5.2834,5.1623,5.1586,5.1586,5.1586,5.1586,5.1586,5.1586,5.0838,5.0481,5.0481,4.8973,4.8286,4.8253,4.7188,4.641,4.5877,4.5478,4.4993,4.4458,4.4458,4.4458,4.4458,4.4266,4.4104,4.391,4.3714,4.3518,4.329,4.323,4.2851,4.2381,4.2321,4.1811,4.1205,4.1205,4.1205,4.1085,4.0487,4.0307,4.0157,3.9589,3.9373,3.9373,3.9373,3.9373,3.9337,3.9337,3.9271,3.9032,3.837,3.7849,3.6986,3.5165,3.4512,3.3859,3.2632,3.2478,3.2478,3.2478,3.2182,3.1719,3.0998,2.9814,2.9012,2.8775,2.8323,2.8021,2.7971,2.7946,2.7946,2.7946,2.7946,2.7946,2.7946,2.7946,2.7946,2.7946,2.7946,2.7946,2.7971,2.8524,2.8737,5.8727,5.9336,5.9336,5.6765,5.3551,4.9932,4.594,4.1204,3.7066,3.4945,3.297,3.1785,3.2226,3.253,3.3558,3.6073,3.843,4.0663,4.2895,4.5162,4.7293,4.9221,4.9695,5.0777,5.301,5.3653,5.4126,5.4566,5.3923,5.328,5.2799,5.2799,5.2799,5.2799,5.2799,5.2799,5.2799,5.203,5.1663,5.1629,5.0593,4.9892,4.9424,4.8763,4.7933,4.6932,4.6588,4.6095,4.5556,4.5556,4.5556,4.5556,4.5258,4.488,4.4427,4.412,4.3723,4.329,4.329,4.311,4.294,4.294,4.2761,4.2402,4.1624,4.1422,4.1324,4.1055,4.0696,4.0427,4.0576,4.0307,4.0008,4.0008,3.9709,3.9373,3.9373,3.9373,3.9313,3.905,3.8513,3.7783,3.6733,3.6006,3.5339,3.4618,3.4171,3.3917,3.3917,3.3289,3.2605,3.1992,3.0786,2.9743,2.895,2.8687,2.8448,2.8122,2.8097,2.8097,2.8097,2.8097,2.8097,2.8097,2.8097,2.8097,2.8097,2.8097,2.8097,2.8122,2.8637,2.8888,5.7306,5.8423,5.8761,5.6325,5.2875,4.912,4.5461,4.0553,3.6423,3.5115,3.3254,3.2002,3.253,3.2632,3.3288,3.5261,3.7144,3.9106,4.1339,4.3606,4.5771,4.78,4.8206,4.9289,5.1758,5.3112,5.4126,5.4871,5.4228,5.3721,5.3518,5.3518,5.3518,5.3518,5.3518,5.3518,5.3518,5.2942,5.2672,5.2638,5.1894,5.115,5.0405,4.9883,4.8991,4.777,4.7472,4.7035,4.6555,4.6555,4.6555,4.6521,4.6166,4.566,4.511,4.4699,4.4197,4.3684,4.3684,4.3684,4.3684,4.3606,4.3566,4.3337,4.2368,4.203,4.1923,4.1782,4.1205,4.0786,4.1265,4.1025,4.0636,4.0457,4.0038,3.9649,3.9469,3.9373,3.9373,3.9373,3.8943,3.8383,3.7925,3.7304,3.6775,3.6351,3.5874,3.5497,3.5323,3.4606,3.3782,3.2988,3.2037,3.0924,2.9617,2.9516,2.9339,2.8994,2.8969,2.8969,2.8969,2.8969,2.8969,2.8969,2.8969,2.8969,2.8969,2.8969,2.8969,2.8969,2.9376,2.9516,5.6427,5.8423,5.937,5.6461,5.2875,4.912,4.5461,4.0553,3.6592,3.5769,3.4416,3.3389,3.3389,3.3389,3.3875,3.5363,3.6299,3.7608,3.9792,4.2023,4.3984,4.5568,4.638,4.797,5.0947,5.3247,5.4905,5.5614,5.5006,5.4262,5.3551,5.3518,5.3518,5.3518,5.3518,5.3518,5.3518,5.3484,5.3484,5.3484,5.2672,5.1894,5.1151,5.0281,4.9251,4.8194,4.8,4.7704,4.7371,4.7371,4.7371,4.7337,4.6931,4.648,4.5949,4.5551,4.5067,4.4572,4.4572,4.4572,4.4534,4.4343,4.4181,4.3949,4.3754,4.3488,4.314,4.256,4.1931,4.1422,4.1422,4.1384,4.1205,4.0546,4.0397,4.0217,3.9559,3.9373,3.9373,3.9373,3.9373,3.92,3.8512,3.8392,3.8153,3.746,3.737,3.7131,3.6567,3.6145,3.5375,3.4133,3.3665,3.2791,3.1123,3.0973,3.0973,3.0973,3.0973,3.0973,3.0973,3.0973,3.0973,3.0973,3.0973,3.0973,3.0973,3.0973,3.0973,3.0973,3.0973,3.0973,5.257,5.4262,5.5006,5.2503,4.983,4.6853,4.3132,3.9436,3.6423,3.5115,3.4066,3.3423,3.3423,3.2983,3.3119,3.4607,3.5047,3.6366,3.9623,4.1576,4.3606,4.6143,4.8443,5.0608,5.2604,5.3416,5.4363,5.5615,5.4566,5.3754,5.3518,5.3518,5.3518,5.3518,5.3518,5.3518,5.3518,5.3518,5.3518,5.3518,5.3247,5.2469,5.1185,5.0916,5.001,4.8736,4.8673,4.861,4.8515,4.8515,4.8515,4.8483,4.8097,4.7605,4.7069,4.6692,4.6202,4.567,4.567,4.567,4.5665,4.5369,4.4924,4.4503,4.412,4.3684,4.314,4.259,4.2521,4.2611,4.2201,4.2081,4.2021,4.1841,4.1055,4.0337,4.0127,3.9738,3.9373,3.9373,3.9373,3.9313,3.914,3.908,3.902,3.8811,3.8392,3.8003,3.7823,3.7233,3.6537,3.5851,3.5166,3.4044,3.2245,3.2083,3.2083,3.2083,3.2083,3.2083,3.2083,3.2083,3.2083,3.2083,3.2083,3.2083,3.2083,3.2083,3.2083,3.2083,3.2083,3.2083,4.8948,5.0642,5.1251,4.8984,4.6955,4.4688,4.1508,3.87,3.6524,3.5577,3.4776,3.4167,3.3863,3.3423,3.3444,3.4336,3.4742,3.6028,3.9242,4.1441,4.3944,4.7225,4.9999,5.1995,5.2942,5.3585,5.4296,5.5243,5.4431,5.3788,5.3518,5.3518,5.3518,5.3518,5.3518,5.3518,5.3518,5.3518,5.3518,5.3518,5.3518,5.2841,5.1623,5.1623,5.0811,4.9424,4.9424,4.9255,0.0,4.9018,4.9018,4.8954,4.8704,4.829,4.777,4.7505,4.7069,4.6625,4.6625,4.6625,4.659,4.6202,4.5624,4.4924,4.4503,4.3849,4.32,4.2851,4.303,4.32,4.2851,4.2731,4.2671,4.244,4.1782,4.0995,4.0516,4.0068,3.9709,3.9433,3.9373,3.9373,3.9373,3.9373,3.9373,3.9373,3.905,3.8691,3.8422,3.7963,3.7461,3.695,3.6463,3.5589,3.4203,3.3466,3.3045,3.3045,3.3045,3.3045,3.3045,3.3045,3.3045,3.3045,3.3045,3.3045,3.3045,3.3045,3.3045,3.3045,3.3045,3.3185,0.0,4.7484,4.8165,4.6065,4.4406,4.2719,4.0485,3.8343,0.0,3.6774,3.6175,3.543,3.4752,3.4605,3.4571,3.4638,3.5193,3.648,3.8851,4.1907,4.5229,4.8815,5.115,5.2469,5.2469,5.3754,5.46,5.46,5.4532,5.4228,5.3551,5.3518,5.3518,5.3518,5.3518,5.3518,5.3518,5.3518,5.3518,5.3518,5.3518,5.3078,5.23,5.23,5.1522,5.0168,5.0168,4.9763,4.9086,4.9086,4.9052,4.9018,4.8863,4.8578,4.8226,4.8065,4.777,4.7505,4.7505,4.7505,4.7438,4.6999,4.6237,4.5405,4.488,4.4112,4.3369,4.3369,4.3369,4.3369,4.3369,4.3369,4.3219,4.2659,4.2479,4.2081,4.0816,4.0487,4.0277,3.9679,3.9559,3.9559,3.9559,3.9559,3.9559,3.9499,3.9463,3.923,3.8542,3.8452,3.8212,3.7614,3.7494,3.7255,3.6656,3.5005,3.3991,3.3934,3.3934,3.3934,3.3934,3.3934,3.3934,3.3934,3.3934,3.3934,3.3934,3.3934,3.3934,3.3934,3.3934,3.4278,4.1855,0.0,4.5062,4.3931,4.2963,4.166,0.0,3.8048,3.7087,3.6526,3.6251,3.6079,3.5929,3.5414,3.5208,3.5792,3.6088,3.7372,4.0661,4.5539,4.9443,5.1285,5.301,5.4059,5.4059,5.4397,5.46,5.46,5.4059,5.3687,5.3518,5.3518,5.3518,5.3518,5.3518,5.3518,5.3518,5.3518,5.3518,5.3518,5.3518,5.3078,5.23,5.23,5.1792,5.0947,5.0947,5.0541,4.983,4.983,4.9492,4.9018,4.8987,4.8925,4.8798,4.8767,4.8704,4.861,4.861,4.861,4.8482,4.7671,4.7103,4.6588,4.5992,4.5079,4.4305,4.4305,4.4305,4.4305,4.4305,4.4189,4.4004,4.3698,4.3081,4.2475,4.2059,4.1542,4.1115,4.0935,4.0905,4.0905,4.0905,4.0905,4.0756,4.0247,4.0157,3.9918,3.926,3.917,3.911,3.896,3.8482,3.8093,3.7943,3.6692,3.5633,3.5129,3.51,3.51,3.51,3.51,3.51,3.51,3.51,3.51,3.51,3.51,3.51,3.51,3.51,3.5455,4.0444,4.1476,4.2439,4.2068,4.137,4.0393,3.881,3.7868,3.7205,3.6806,3.6701,3.6596,3.6212,3.5848,3.5813,3.6636,3.7376,3.9534,4.4345,4.8831,5.2147,5.3687,5.5175,5.5852,5.5175,5.5108,5.4837,5.416,5.3721,5.3518,5.3518,5.3518,5.3518,5.3518,5.3518,5.3518,5.3518,5.3518,5.3518,5.3518,5.3518,5.3281,5.2841,5.2841,5.2435,5.1725,5.1725,5.1082,5.0101,5.0101,4.9661,4.9018,4.9018,4.9018,4.9018,4.9018,4.9018,4.9018,4.9018,4.8956,4.8767,4.8096,4.7704,4.7372,4.6898,4.6375,4.5805,4.5442,4.5337,4.5337,4.5337,4.5147,4.4843,4.4465,4.3876,4.3235,4.2548,4.2111,4.1782,4.1482,4.1422,4.1422,4.1422,4.1422,4.1145,4.0487,4.0397,4.0157,3.9499,3.9373,3.9373,3.9373,3.908,3.8721,3.8422,3.7764,3.7075,3.6417,3.6387,3.6387,3.6387,3.6387,3.6387,3.6387,3.6387,3.6387,3.6387,3.6387,3.6387,3.6387,3.6387,3.6716,4.0329,4.0587,4.0862,4.0806,4.0395,3.9736,3.8867,3.8157,3.764,3.764,3.764,3.7446,3.6771,3.6754,3.7128,3.7983,3.9795,4.301,4.8533,5.1731,5.4141,5.5824,5.7248,5.7486,5.5992,5.5822,5.5212,5.3753,5.3618,5.3584,5.3551,5.3551,5.3517,5.3518,5.3517,5.3551,5.3551,5.3551,5.3518,5.3518,5.3518,5.3518,5.3518,5.3518,5.3145,5.2469,5.2469,5.1623,5.027,5.027,4.9763,4.9018,4.9018,4.9018,4.9018,4.9018,4.9018,4.9018,4.9018,4.8925,4.8769,4.8418,4.8194,4.8,4.7737,4.7638,4.7472,4.6831,4.6488,4.6381,4.6381,4.6131,4.5733,4.5147,4.4662,4.4083,4.296,4.2754,4.2573,4.2002,4.1912,4.1912,4.1912,4.1912,4.1671,4.0972,4.0845,4.0604,3.9871,3.9655,3.9595,3.9559,3.9433,3.917,3.8601,3.8542,3.8302,3.7764,3.7524,3.7404,3.7404,3.7404,3.7404,3.7404,3.7404,3.7404,3.7404,3.7404,3.7404,3.7404,3.7404,3.7764,4.0979,4.1494,4.1922,4.1408,4.1688,4.1743,4.0271,3.9839,3.9732,3.9732,3.9732,3.9696,3.9588,4.0146,4.0919,4.173,4.5187,4.8721,5.1262,5.4011,5.622,5.7428,5.829,5.8221,5.6675,5.6537,5.5952,5.4473,5.4207,5.4044,5.3915,5.375,5.3618,5.3518,5.3618,5.375,5.3915,5.3618,5.3518,5.3518,5.3518,5.3518,5.3518,5.3518,5.345,5.3315,5.3315,5.2469,5.1048,5.1048,5.0236,4.9018,4.9018,4.9018,4.9018,4.9018,4.9018,4.9018,4.9018,4.8987,4.8987,4.8892,4.8861,4.8798,4.8767,4.8767,4.8736,4.8608,4.7934,4.7203,4.7203,4.6931,4.6515,4.5949,4.5515,4.5042,4.438,4.4266,4.4235,4.4143,4.4113,4.4113,4.4113,4.4113,4.3898,4.3223,4.2952,4.2521,4.1704,4.0945,4.0431,4.0247,3.9738,3.9379,3.926,3.926,3.9194,3.911,3.8033,3.7404,3.7404,3.7404,3.7404,3.7404,3.7404,3.7404,3.7404,3.7404,3.7404,3.7404,3.7404,3.7764,4.0561,4.1368,4.2219,4.1939,4.2832,4.3542,4.2814,4.2304,4.1977,4.1977,4.1649,4.1467,4.1904,4.2304,4.3415,4.602,4.9488,5.2354,5.3846,5.6126,5.7906,5.8573,5.9319,5.9179,5.7639,5.7464,5.6803,5.5229,5.4913,5.4672,5.4328,5.4074,5.3849,5.3518,5.3751,5.4011,5.433,5.4205,5.4013,5.3784,5.3685,5.3584,5.3518,5.3518,5.3518,5.3518,5.3518,5.2638,5.1219,5.1623,5.0947,4.9627,5.0033,4.9965,4.956,4.9154,4.9018,4.9018,4.9018,4.9018,4.9018,4.9018,4.9018,4.9018,4.9018,4.9018,4.9018,4.9018,4.8642,4.8258,4.8258,4.8,4.7572,4.7001,4.6588,4.6131,4.5593,4.5447,4.5447,4.5447,4.5447,4.5447,4.5447,4.5447,4.5263,4.4571,4.4225,4.365,4.2571,4.1906,4.1273,4.0464,4.0127,3.9798,3.9439,3.9373,3.9373,3.9373,3.8805,3.8482,3.8482,3.8482,3.8482,3.8482,3.8482,3.8482,3.8482,3.8482,3.8482,3.8482,3.8482,3.8661,4.0341,4.1075,4.2103,4.2506,4.3791,4.5002,4.5002,4.4782,4.4599,4.4599,4.4305,4.4121,4.4562,4.5076,4.6636,5.0161,5.3054,5.5288,5.6461,5.8151,5.9394,5.9769,6.032,6.0042,5.8478,5.8336,5.7661,5.6063,5.5674,5.5332,5.4883,5.4579,5.4205,5.3751,5.4078,5.4457,5.4852,5.4953,5.471,5.4141,5.3913,5.3717,5.3518,5.3518,5.3518,5.3518,5.3518,5.2638,5.1285,5.1995,5.142,5.0168,5.0913,5.0744,4.9999,4.9255,4.9018,4.9018,4.9018,4.9018,4.9018,4.9018,4.9018,4.9018,4.9018,4.9018,4.9018,4.9018,4.9018,4.9018,4.9018,4.8767,4.8452,4.7868,4.7505,4.7135,4.659,4.6486,4.6486,4.6486,4.6486,4.6486,4.6486,4.6486,4.6293,4.578,4.5405,4.4795,4.3689,4.3107,4.2389,4.1277,4.1023,4.0661,3.9998,3.9938,3.9841,3.9661,3.9481,3.9373,3.9373,3.9373,3.9373,3.9373,3.9373,3.9373,3.9373,3.9373,3.9373,3.9373,3.9373,3.9373,4.1022,4.1095,4.1535,4.302,4.4599,4.581,4.581,4.6911,4.7939,4.7939,4.8526,4.8839,4.8086,4.9848,5.1977,5.3775,5.6012,5.7947,5.9216,6.0139,6.082,6.1279,6.1394,6.0783,5.9202,5.9059,5.8376,5.6733,5.6357,5.5999,5.5572,5.5284,5.4896,5.4431,5.4865,5.5254,5.5543,5.5722,5.5402,5.4544,5.4299,5.3913,5.3518,5.3518,5.3518,5.3518,5.3518,5.2638,5.1285,5.1995,5.142,5.0168,5.0913,5.0744,4.9999,4.9255,4.9018,4.9018,4.9018,4.9018,4.9018,4.9018,4.9018,4.9018,4.9018,4.9018,4.9018,4.9018,4.9018,4.9018,4.9018,4.8894,4.8675,4.8258,4.8,4.7737,4.7404,4.7303,4.7303,4.7303,4.7303,4.7303,4.7303,4.7303,4.7304,4.7272,4.69,4.6454,4.5857,4.4894,4.4018,4.3433,4.2811,4.2166,4.1489,4.1427,4.1146,4.0466,3.9768,3.9373,3.9373,3.9373,3.9373,3.9373,3.9373,3.9373,3.9373,3.9373,3.9373,3.9373,3.9373,3.9373,4.0487,4.0341,4.0634,4.1735,4.3975,4.6177,4.7168,4.8673,5.0141,5.1132,5.2013,5.216,5.0839,5.2197,5.3849,5.495,5.7547,5.9773,6.0749,6.154,6.2084,6.2271,6.2308,6.1688,6.0085,5.9903,5.9247,5.7644,5.7252,5.6923,5.643,5.6166,5.5773,5.5273,5.5623,5.6019,5.6403,5.6528,5.642,5.6012,5.5219,5.4586,5.4145,5.4145,5.4145,5.4145,5.4145,5.3528,5.2603,5.3227,5.2825,5.1843,5.1857,5.1725,5.1386,5.0642,5.0371,5.0371,5.0371,5.0371,5.0371,5.0371,5.0067,4.9661,4.9661,4.9357,4.9018,4.9018,4.9018,4.9018,4.9018,4.8956,4.8894,4.8736,4.8642,4.8547,4.8452,4.842,4.842,4.842,4.842,4.842,4.842,4.842,4.842,4.842,4.8097,4.7638,4.7069,4.6465,4.5693,4.4689,4.399,4.3519,4.3234,4.3234,4.2884,4.2155,4.0862,4.0086,4.0086,4.0086,4.0086,4.0086,4.0086,4.0086,4.0086,4.0086,4.0086,4.0086,4.0086,4.0335,4.0818,4.0451,4.0524,4.1589,4.3901,4.6544,4.893,5.0949,5.2711,5.4069,5.4766,5.473,5.3371,5.4252,5.5427,5.6235,5.8621,6.0786,6.1814,6.2475,6.278,6.278,6.278,6.2181,6.0566,6.0419,5.9722,5.8107,5.781,5.7486,5.7102,5.6845,5.6626,5.6423,5.6483,5.6812,5.7438,5.7272,5.7163,5.7051,5.6221,5.5519,5.4892,5.4892,5.5031,5.527,5.527,5.4987,5.4535,5.4811,5.4293,5.3259,5.2565,5.23,5.2198,5.1488,5.1185,5.1185,5.1185,5.1185,5.1185,5.1185,5.0879,5.0439,5.0439,5.0101,4.9695,4.9695,4.9526,4.9357,4.9357,4.9187,4.9018,4.9018,4.9018,4.9018,4.9018,4.9018,4.9018,4.9018,4.9018,4.9018,4.9018,4.9018,4.9018,4.9018,4.8767,4.8386,4.7836,4.7539,4.6974,4.6013,4.5462,4.5141,4.4914,4.4882,4.4591,4.3848,4.2676,4.1698,4.099,4.099,4.099,4.099,4.099,4.099,4.099,4.099,4.099,4.099,4.099,4.1364,4.2286,4.1699,4.1515,4.3094,4.4745,4.7021,5.1096,5.3907,5.5868,5.6712,5.6859,5.6602,5.5757,5.6271,5.7079,5.7886,5.9355,6.097,6.256,6.278,6.278,6.278,6.278,6.2181,6.0566,6.0419,5.9722,5.8107,5.7881,5.7715,5.7412,5.7264,5.7448,5.798,5.7495,5.7663,5.8612,5.7972,5.7571,5.7424,5.73,5.6678,5.5724,5.5724,5.6177,5.6914,5.6914,5.6943,5.6972,5.6629,5.561,5.4104,5.2835,5.23,5.2232,5.1488,5.1251,5.1251,5.1251,5.1251,5.1251,5.1251,5.1251,5.1217,5.1217,5.1217,5.1217,5.1217,5.0676,5.0132,5.0132,4.956,4.9018,4.9018,4.9018,4.9018,4.9018,4.9018,4.9018,4.9018,4.9018,4.9018,4.9018,4.9018,4.9018,4.9018,4.8894,4.8675,4.8258,4.8032,4.777,4.7438,4.7404,4.7143,4.6487,4.6422,4.6094,4.5372,4.5306,4.4333,4.211,4.2013,4.2013,4.2013,4.2013,4.2013,4.2013,4.2013,4.2013,4.2013,4.2013,4.243,4.1462,4.1682,4.2323,4.3938,4.6874,5.0105,5.3004,5.5574,5.8327,6.2034,6.141,5.9758,5.84,5.8304,5.84,5.8033,5.9832,6.1594,6.2658,6.278,6.278,6.278,6.278,6.2181,6.0566,6.0419,5.9722,5.8107,5.7973,5.7904,5.7834,5.7786,5.8104,5.8835,5.8689,5.8993,5.9847,5.9676,5.9249,5.8652,5.9176,5.8391,5.6403,5.7038,5.7459,5.771,5.8248,5.8526,5.8462,5.724,5.6325,5.5626,5.433,5.3832,5.3798,5.3592,5.3524,5.3524,5.3524,5.3524,5.3524,5.3524,5.3178,5.2732,5.2732,5.2355,5.1909,5.1909,5.1737,5.1463,5.0948,5.096,5.0741,4.9348,4.9018,4.9018,4.9018,4.9018,4.9018,4.9018,4.9018,4.9018,4.9018,4.9018,4.9018,4.9018,4.8987,4.8925,4.8767,4.8704,4.8642,4.8547,4.8547,4.8446,4.8245,4.8243,4.791,4.7172,4.7139,4.63,4.4397,4.4333,4.4333,4.4333,4.4333,4.4333,4.4333,4.4333,4.4333,4.4333,4.4333,4.4691,4.1992,4.2873,4.4195,4.614,4.9444,5.3188,5.6895,5.8621,6.0346,6.3649,6.2879,6.119,5.9905,5.9661,5.9538,5.9024,6.0419,6.1887,6.2695,6.278,6.278,6.278,6.278,6.2181,6.0566,6.0419,5.9722,5.8107,5.7997,5.8143,5.8474,5.8474,5.8988,6.0126,5.9832,6.0052,6.086,6.0566,6.0162,5.9661,6.0162,5.9627,5.817,5.8704,5.9103,5.9491,6.0264,6.0392,5.9897,5.8729,5.7768,5.6817,5.5819,5.5257,5.4978,5.4978,5.4978,5.4978,5.4978,5.4978,5.4978,5.4978,5.4665,5.4311,5.4311,5.3997,5.3579,5.3579,5.3369,5.305,5.2596,5.2457,5.1963,5.01,4.9817,4.9992,4.9898,4.9898,4.9898,4.9898,4.9898,4.9898,4.9898,4.9898,4.9898,4.9898,4.9627,4.9424,4.9424,4.9187,4.9018,4.9018,4.9018,4.9018,4.9018,4.9018,4.8815,4.8376,4.8342,4.7894,4.6801,4.6205,4.5906,4.5906,4.5906,4.5906,4.5906,4.5906,4.5906,4.5906,4.5906,4.6271,4.3164,4.4707,4.6599,4.9023,5.2234,5.6235,6.1594,6.2218,6.1961,6.2879,6.2401,6.1594,6.0786,6.0639,6.0603,6.0529,6.119,6.1961,6.267,6.278,6.2743,6.267,6.2695,6.2071,6.0456,6.0309,5.9648,5.8107,5.807,5.8437,5.9148,5.9258,6.0015,6.1557,6.0896,6.0896,6.1704,6.097,6.0603,6.0529,6.0603,6.0529,6.0419,6.0493,6.097,6.1741,6.2475,6.2215,6.1292,6.0755,5.9466,5.7801,5.7242,5.651,5.5808,5.5808,5.5808,5.5808,5.5808,5.5808,5.5808,5.5808,5.5808,5.5808,5.5808,5.5808,5.5808,5.5808,5.5304,5.4764,5.4693,5.4048,5.2965,5.1339,5.125,5.1473,5.1249,5.1185,5.1185,5.1185,5.1185,5.1185,5.1185,5.1185,5.1185,5.1185,5.0574,5.0101,5.0101,4.9458,4.9018,4.9018,4.9018,4.9018,4.9018,4.9018,4.9018,4.9018,4.9018,4.9018,4.9018,4.7699,4.6989,4.6989,4.6989,4.6989,4.6989,4.6989,4.6989,4.6989,4.6989,4.7361,4.2405,4.4898,4.7666,5.0002,5.4406,5.8964,6.2083,6.2695,6.2989,6.4457,6.4127,6.3282,6.2438,6.2266,6.2071,6.1447,6.2034,6.2622,6.278,6.278,6.2585,6.1924,6.1851,6.1227,5.9588,5.9441,5.9061,5.807,5.8584,5.9001,5.9184,5.9795,6.0603,6.1557,6.141,6.1741,6.2548,6.234,6.1961,6.1337,6.1998,6.163,6.0419,6.1043,6.1777,6.2548,6.2707,6.2595,6.2223,6.1282,6.0211,5.9085,5.8116,5.7227,5.6483,5.6483,5.6483,5.6483,5.6483,5.6483,5.6483,5.6483,5.6483,5.6483,5.6483,5.6483,5.6483,5.6483,5.6376,5.6115,5.5542,5.5509,5.5297,5.3991,5.2765,5.1754,5.1314,5.1185,5.1185,5.1185,5.1185,5.1185,5.1185,5.1185,5.1185,5.1185,5.0574,5.0101,5.0101,4.9458,4.9018,4.9018,4.9018,4.9018,4.9018,4.9018,4.9018,4.9018,4.9018,4.9018,4.9018,4.8714,4.8545,4.8545,4.8545,4.8545,4.8545,4.8545,4.8545,4.8545,4.8545,4.8612,4.2752,4.5931,4.9695,5.3829,5.7322,6.0285,6.234,6.278,6.3037,6.3943,6.3759,6.3356,6.2853,6.278,6.2658,6.2254,6.2548,6.278,6.278,6.2475,6.2071,6.163,6.1263,6.0529,5.9294,5.9184,5.8877,5.807,5.8767,5.9368,5.9758,6.0529,6.1337,6.2144,6.2181,6.2401,6.278,6.278,6.2585,6.2181,6.2622,6.234,6.1557,6.1594,6.2034,6.278,6.278,6.2755,6.2643,6.2077,6.1343,6.0464,5.951,5.8635,5.7872,5.7472,5.7327,5.7327,5.7327,5.7327,5.7327,5.7327,5.7327,5.7327,5.7327,5.7327,5.7327,5.7327,5.7327,5.7218,5.6843,5.6862,5.6711,5.5857,5.4541,5.3376,5.288,5.2787,5.2787,5.2787,5.2787,5.2787,5.2787,5.2787,5.2721,5.2656,5.1945,5.1407,5.1312,5.0572,5.0067,5.0067,4.9729,4.9526,4.9526,4.9187,4.9018,4.9018,4.9018,4.9018,4.9018,4.9018,4.9018,4.9018,4.9018,4.9018,4.9018,4.9018,4.9018,4.9018,4.9018,4.9018,4.3266,4.7276,5.2067,5.7493,5.9549,6.0651,6.212,6.2536,6.2646,6.2622,6.267,6.278,6.278,6.278,6.278,6.278,6.278,6.2743,6.2622,6.2034,6.1484,6.1227,6.0603,5.9905,5.9074,5.8964,5.8731,5.8033,5.8877,5.9698,6.0382,6.13,6.2108,6.278,6.278,6.278,6.278,6.278,6.278,6.278,6.2658,6.2695,6.2743,6.1961,6.2034,6.278,6.278,6.278,6.278,6.278,6.2328,6.152,6.0713,5.9905,5.9074,5.829,5.7997,5.7997,5.7997,5.7997,5.7997,5.7997,5.7997,5.7997,5.7997,5.7997,5.7997,5.7997,5.7997,5.7997,5.7997,5.7834,5.7534,5.7102,5.6248,5.5373,5.4834,5.471,5.471,5.471,5.471,5.471,5.471,5.471,5.4648,5.4425,5.3584,5.2985,5.2863,5.199,5.1386,5.1386,5.0744,5.0236,5.0101,4.9424,4.9018,4.9018,4.9018,4.9018,4.9018,4.9018,4.9018,4.9018,4.9018,4.9018,4.9018,4.9018,4.9018,4.9018,4.9018,4.9018,4.2545,4.8274,5.4055,5.6715,5.857,5.9936,6.0872,6.154,6.1899,6.1765,6.2328,6.278,6.278,6.278,6.278,6.278,6.278,6.2585,6.1851,6.1667,6.108,5.9685,5.9404,5.9038,5.8253,5.8143,5.8107,5.7997,5.9391,6.0309,6.0382,6.1814,6.2695,6.278,6.278,6.278,6.278,6.278,6.278,6.278,6.2108,6.2144,6.2743,6.1961,6.2034,6.278,6.278,6.278,6.278,6.278,6.2328,6.152,6.0713,5.9905,5.9074,5.829,5.7997,5.7997,5.7997,5.7997,5.7997,5.7997,5.7997,5.7997,5.7997,5.7997,5.7997,5.7997,5.7997,5.7997,5.7997,5.7904,5.7679,5.7412,5.7138,5.6688,5.5759,5.5524,5.5524,5.5524,5.5524,5.5524,5.5524,5.5524,5.5472,5.5179,5.4131,5.3556,5.3933,5.29,5.2164,5.2164,5.1488,5.0811,5.0135,4.9424,4.9018,4.9018,4.9018,4.9018,4.9018,4.9018,4.9018,4.9018,4.9018,4.9018,4.9018,4.9018,4.9018,4.9018,4.9018,4.9018,4.4544,4.9283,5.3587,5.7121,5.8561,5.9489,6.0692,6.1152,6.1228,6.0981,6.1227,6.1741,6.2633,6.278,6.278,6.278,6.2438,6.1998,6.163,6.0823,6.0015,5.9258,5.8804,5.84,5.8033,5.7997,5.818,5.8657,5.9758,6.0603,6.1043,6.2181,6.278,6.278,6.278,6.278,6.278,6.278,6.278,6.278,6.2438,6.2475,6.278,6.2438,6.2475,6.278,6.278,6.278,6.278,6.278,6.2585,6.2181,6.1374,6.0566,5.9795,5.8988,5.84,5.7997,5.7997,5.7997,5.7997,5.7997,5.7997,5.7997,5.7997,5.7997,5.7997,5.7997,5.7997,5.7997,5.7997,5.795,5.7881,5.775,5.7679,5.7534,5.708,5.658,5.6232,5.6232,5.6232,5.6232,5.6232,5.6232,5.6185,5.5879,5.5555,5.5379,5.5359,5.5053,5.466,5.4215,5.3496,5.2743,5.199,5.1237,5.0792,5.0792,5.0792,5.0792,5.0792,5.0792,5.0792,5.0792,4.961,4.9018,4.9018,4.9018,4.9018,4.9018,4.9018,4.9018,4.5327,4.904,5.2193,5.6033,5.7528,5.8349,5.9468,6.0087,6.0351,5.9992,6.0231,6.0906,6.2095,6.2242,6.2218,6.2218,6.1704,6.1227,6.1006,5.9979,5.9111,5.8914,5.8364,5.7997,5.7997,5.7997,5.8327,5.9148,5.9942,6.075,6.1557,6.2365,6.278,6.278,6.278,6.278,6.278,6.278,6.278,6.278,6.278,6.278,6.278,6.278,6.278,6.278,6.278,6.278,6.278,6.278,6.278,6.2707,6.1924,6.1117,6.0309,5.9478,5.8694,5.7997,5.7997,5.7997,5.7997,5.7997,5.7997,5.7997,5.7997,5.7997,5.8033,5.8253,5.829,5.8364,5.8547,5.8621,5.8621,5.8621,5.8621,5.851,5.807,5.7474,5.7051,5.7051,5.7195,5.734,5.734,5.734,5.7309,5.7262,5.7176,5.714,5.7233,5.7335,5.7225,5.6599,5.5869,5.5104,5.437,5.3604,5.3048,5.2844,5.2844,5.274,5.2566,5.2532,5.2532,5.2532,5.075,4.974,4.9501,4.9331,4.9229,4.9229,4.9229,4.9229,4.2986,4.673,5.027,5.187,5.4112,5.5952,5.5888,5.7604,5.9114,5.8751,5.9863,6.0885,6.0882,6.0709,6.0529,6.0529,6.0493,6.0199,5.9404,5.9258,5.8914,5.8143,5.8033,5.7997,5.7997,5.7997,5.8327,5.9148,5.9942,6.075,6.1557,6.2365,6.278,6.278,6.278,6.278,6.278,6.278,6.278,6.278,6.278,6.278,6.278,6.278,6.278,6.278,6.278,6.278,6.278,6.278,6.278,6.2707,6.1924,6.1117,6.0309,5.9478,5.8694,5.7997,5.7997,5.7997,5.7997,5.7997,5.7997,5.7997,5.7997,5.7997,5.8143,5.8914,5.9148,5.9294,6.0089,6.0272,6.0272,6.0272,6.0272,5.9869,5.8327,5.7973,5.795,5.795,5.855,5.9064,5.9064,5.9064,5.9225,5.9709,5.8808,5.8448,5.9652,5.9426,5.9128,5.9092,5.845,5.7665,5.6879,5.6127,5.5383,5.4638,5.4567,5.4221,5.345,5.345,5.345,5.345,5.2555,5.1766,5.0981,5.0228,4.9854,4.9854,4.9854,4.9854,4.0718,4.3494,4.6605,4.9237,5.1475,5.3386,5.4889,5.6229,5.7356,5.8126,5.8652,5.9054,5.9388,6.0018,6.0515,6.0419,5.9979,5.9515,5.9221,5.8767,5.851,5.8767,5.8327,5.8217,5.8731,5.829,5.8547,5.9869,6.0236,6.097,6.2291,6.2658,6.278,6.278,6.278,6.278,6.278,6.278,6.278,6.278,6.278,6.278,6.278,6.278,6.278,6.278,6.278,6.278,6.278,6.278,6.278,6.2743,6.2475,6.1557,6.0382,6.0089,5.9134,5.7997,5.7997,5.7997,5.7997,5.7997,5.7997,5.7997,5.7997,5.8364,5.8817,5.9111,5.9551,6.0052,6.0346,6.0419,6.0419,6.0419,6.0419,6.0236,5.9648,5.9538,5.9538,5.9538,5.9758,5.9979,5.9979,5.9979,6.0017,6.0103,6.0045,6.0086,6.0476,6.0647,6.0518,5.9982,5.9695,5.9258,5.8498,5.8176,5.7889,5.7603,5.7603,5.7459,5.7146,5.6644,5.6394,5.6394,5.5105,5.3584,5.1856,5.1056,5.067,5.067,5.067,5.067,3.8852,4.1063,4.366,4.6156,4.8533,5.0682,5.2234,5.3821,5.5265,5.6434,5.7201,5.786,5.8408,5.9355,5.9989,5.9622,5.9171,5.8804,5.8804,5.8584,5.8621,5.9148,5.8988,5.9024,5.9575,5.9134,5.9355,6.0713,6.0786,6.141,6.2732,6.278,6.278,6.278,6.278,6.278,6.278,6.278,6.278,6.278,6.278,6.278,6.278,6.278,6.278,6.278,6.278,6.278,6.278,6.278,6.278,6.278,6.278,6.1998,6.0786,6.0786,5.9942,5.8804,5.8804,5.8804,5.8804,5.8804,5.8804,5.8804,5.8804,5.9171,5.9685,5.9942,6.0382,6.086,6.1153,6.1227,6.1227,6.1227,6.1227,6.1227,6.1227,6.0786,6.0419,6.0419,6.0639,6.0896,6.1153,6.1227,6.1276,6.1471,6.1576,6.1568,6.1491,6.1742,6.1716,6.1199,6.1127,6.0946,6.0438,6.0402,6.0293,6.003,6.003,5.9859,5.9605,5.9098,5.8808,5.8808,5.7467,5.5941,5.422,5.2865,5.2213,5.2213,5.2213,5.2213,0.0,0.0,0.0,4.2489,4.5275,4.7747,4.7722,5.018,5.2781,5.3604,5.5616,5.7402,5.8021,5.8652,5.885,5.8142,5.8042,5.802,5.802,5.8694,5.9184,5.9221,5.9905,6.0382,6.0419,6.0382,6.0676,6.1471,6.1581,6.1924,6.2707,6.2805,6.278,6.278,6.278,6.2805,6.2805,6.2805,6.2805,6.2805,6.2805,6.2805,6.2805,6.2805,6.2805,6.2805,6.2805,6.2805,6.2805,6.2805,6.278,6.278,6.278,6.2328,6.1594,6.1594,6.108,6.0419,6.0419,6.0419,6.0419,6.0419,6.0419,6.0419,6.0419,6.0419,6.0603,6.1374,6.163,6.1814,6.2622,6.278,6.278,6.278,6.278,6.278,6.278,6.1594,6.0493,6.0493,6.1117,6.1887,6.2695,6.2842,6.3135,6.398,6.3392,6.2817,6.278,6.278,6.278,6.278,6.278,6.278,6.278,6.278,6.2475,6.1667,6.163,6.13,6.0493,6.0456,6.0456,6.0456,5.9625,5.8841,5.8033,5.5644,5.4478,5.4442,5.4442,5.4442,3.6757,0.0,0.0,0.0,0.0,0.0,4.487,4.6954,4.9429,5.2708,5.4279,5.5796,5.8174,5.8688,5.8799,5.8972,5.8648,5.8319,5.8231,5.8363,5.886,5.9942,5.9829,5.9923,6.0642,6.0163,5.9927,6.0149,6.0609,6.1176,6.1887,6.2475,6.278,6.278,6.278,6.283,6.2953,6.3026,6.3123,6.3218,6.3312,6.3396,6.3396,6.3396,6.3396,6.3396,6.3396,6.3396,6.3349,6.2953,6.278,6.278,6.278,6.2328,6.1594,6.1594,6.108,6.0419,6.0419,6.0419,6.0419,6.0419,6.0419,6.0419,6.0419,6.0823,6.13,6.152,6.2034,6.2511,6.2743,6.278,6.278,6.278,6.278,6.278,6.278,6.245,6.2144,6.2144,6.2328,6.2732,6.3576,6.3723,6.3796,6.4053,6.387,6.3503,6.2879,6.278,6.278,6.278,6.278,6.278,6.278,6.278,6.2732,6.2475,6.2475,6.2365,6.2144,6.1594,6.1263,6.1263,5.9905,5.9074,5.8854,5.7018,5.5829,5.5268,5.5268,5.5574,3.7123,3.7507,3.793,3.8584,0.0,0.0,4.1931,4.3816,4.6201,4.9394,5.1467,5.3445,5.5835,5.6796,5.73,5.7526,5.7502,5.7694,5.8354,5.8643,5.9204,6.026,6.0438,6.0734,6.1345,6.1033,6.0648,6.0277,6.0839,6.1503,6.2071,6.2548,6.278,6.278,6.278,6.288,6.3075,6.3275,6.3482,6.3661,6.3819,6.3925,6.3925,6.3925,6.3925,6.3925,6.3925,6.3925,6.3904,6.3587,6.3308,6.3026,6.2978,6.2635,6.2181,6.2132,6.1814,6.141,6.141,6.141,6.141,6.141,6.141,6.141,6.141,6.1741,6.2108,6.2108,6.2438,6.278,6.278,6.278,6.278,6.278,6.278,6.278,6.278,6.278,6.278,6.278,6.278,6.3209,6.4383,6.4604,6.4714,6.5044,6.5081,6.4787,6.3943,6.3844,6.3844,6.3844,6.3844,6.3723,6.3392,6.3356,6.3209,6.2817,6.278,6.278,6.278,6.2365,6.2108,6.2108,6.086,6.0052,5.9698,5.8107,5.7042,5.6602,5.6602,5.7042,3.8392,3.8931,0.0,3.8469,3.9238,0.0,3.9323,4.0893,4.3047,4.494,4.777,5.0455,5.2261,5.3733,5.4651,5.4645,5.5227,5.6323,5.8237,5.9074,5.9723,6.0281,6.1228,6.1871,6.2103,6.222,6.1943,6.099,6.1589,6.2258,6.2867,6.288,6.288,6.288,6.288,6.3002,6.3289,6.3557,6.3825,6.4074,6.4351,6.4482,6.4482,6.4482,6.4482,6.4482,6.4482,6.4482,6.4482,6.4482,6.4094,6.3474,6.3386,6.3245,6.3026,6.2965,6.2853,6.278,6.278,6.278,6.278,6.278,6.278,6.278,6.278,6.278,6.278,6.278,6.278,6.278,6.278,6.278,6.278,6.278,6.278,6.278,6.278,6.278,6.278,6.278,6.278,6.3294,6.4897,6.5264,6.5558,6.6256,6.6439,6.6219,6.5411,6.5301,6.5301,6.5301,6.5301,6.4971,6.4163,6.409,6.3723,6.2853,6.278,6.278,6.278,6.278,6.278,6.278,6.1998,6.119,6.0419,5.8951,5.8217,5.8143,5.8143,5.851,4.0854,4.0662,4.0246,4.0054,3.9238,0.0,3.8277,3.8623,3.9854,4.2931,4.4615,4.6674,5.0422,5.0796,5.0968,5.228,5.3127,5.443,5.6825,5.781,5.8699,5.9854,6.0369,6.0708,6.0923,6.1056,6.0736,5.9797,6.0713,6.1916,6.3368,6.3442,6.3442,6.3442,6.3442,6.3565,6.3819,6.4053,6.4311,6.4631,6.4845,6.4947,6.4947,6.4947,6.4947,6.4947,6.4947,6.4947,6.4947,6.4947,6.4557,6.4025,6.4338,6.4016,6.3339,6.3701,6.3392,6.278,6.278,6.278,6.278,6.278,6.278,6.278,6.278,6.278,6.278,6.278,6.278,6.278,6.278,6.278,6.278,6.278,6.278,6.278,6.278,6.278,6.278,6.278,6.278,6.3135,6.4163,6.4861,6.5375,6.5521,6.6109,6.6219,6.5411,6.5301,6.5301,6.5301,6.5301,6.4971,6.4163,6.409,6.3723,6.2853,6.278,6.278,6.278,6.278,6.278,6.278,6.1998,6.119,6.0419,6.0089,5.9612,5.8964,5.8964,5.9038,4.2816,4.2431,4.17,4.1277,4.02,0.0,0.0,3.8007,3.9123,4.0854,4.2547,4.447,4.7048,4.7509,4.7778,4.8625,4.9739,5.1232,5.3262,5.5901,5.8081,5.9439,6.021,6.0559,6.0312,6.0811,6.0854,6.0282,6.0999,6.2041,6.3276,6.3784,6.4009,6.4009,6.4009,6.4094,6.4369,6.4574,6.4858,6.515,6.5405,6.5494,6.5494,6.5494,6.5494,6.5532,6.5915,6.6121,6.6121,6.6566,6.6497,6.6094,6.5474,6.4572,6.3773,6.4261,6.3933,6.3194,6.3194,6.3194,6.3194,6.3194,6.3194,6.3194,6.3194,6.3194,6.3194,6.3194,6.3194,6.3194,6.3194,6.3194,6.3194,6.3194,6.3194,6.3194,6.3194,6.3194,6.3194,6.3194,6.3194,6.3394,6.3994,6.442,6.4861,6.5264,6.5999,6.6366,6.5962,6.6256,6.6512,6.6512,6.6512,6.6182,6.5375,6.5301,6.4934,6.4127,6.3686,6.3466,6.3466,6.3025,6.278,6.278,6.2401,6.1998,6.1594,6.1594,6.0762,5.9184,5.9184,5.9184,4.4855,4.4432,4.3585,4.2547,4.1508,4.0123,0.0,0.0,0.0,3.9284,4.0931,4.2662,4.3624,4.4239,4.4671,4.4825,4.6088,4.7664,4.9401,5.3175,5.6443,5.8266,5.9474,5.9969,5.9631,6.027,6.0722,6.0706,6.1086,6.1742,6.2707,6.3725,6.4254,6.4254,6.4462,6.4628,6.4841,6.5035,6.5314,6.5537,6.5781,6.5897,6.5897,6.5897,6.5897,6.5936,6.6744,6.709,6.7167,6.8052,6.8317,6.8071,6.6744,6.548,6.4452,6.4999,6.4606,6.3764,6.3764,6.3764,6.3764,6.3764,6.3764,6.3764,6.3764,6.3764,6.3764,6.3764,6.3764,6.3764,6.3764,6.3764,6.3764,6.3764,6.3764,6.3764,6.3764,6.3764,6.3764,6.3764,6.3764,6.381,6.3972,6.4131,6.4462,6.5124,6.5897,6.6412,6.636,6.6912,6.729,6.7263,6.7383,6.7136,6.6329,6.6402,6.6109,6.5118,6.4457,6.4016,6.387,6.3356,6.3135,6.3282,6.3282,6.3282,6.3282,6.3135,6.1814,5.9404,5.9588,5.9478,4.7625,4.7086,4.6086,4.4432,4.2816,4.12,3.9392,0.0,3.8354,3.913,0.0,4.02,4.1777,0.0,0.0,4.2124,4.3038,4.4491,4.6934,4.9029,5.1595,5.508,5.6397,5.7311,5.8067,5.8233,5.8576,5.9192,5.9185,5.9839,6.1435,6.3025,6.3878,6.3878,6.46,6.5117,6.5314,6.542,6.5552,6.5767,6.5859,6.5897,6.5897,6.5897,6.5897,6.5936,6.6744,6.709,6.7167,6.8052,6.8358,6.8287,6.8406,6.7376,6.593,6.6389,6.5593,6.4312,6.4312,6.4312,6.4312,6.4312,6.4312,6.4312,6.4312,6.4312,6.4312,6.4312,6.4312,6.4312,6.4312,6.4312,6.4312,6.4312,6.4312,6.4312,6.4312,6.4312,6.4312,6.4312,6.4312,6.4154,6.3736,6.4253,6.4735,6.4846,6.5551,6.6023,6.5902,6.5878,6.5828,6.5764,6.6297,6.6329,6.5521,6.6109,6.5852,6.431,6.4127,6.3759,6.2989,6.3576,6.4273,6.5007,6.5044,6.5044,6.5007,6.431,6.2695,6.0272,6.1006,6.0566,4.9625,4.8625,4.7201,4.547,4.3778,4.197,3.9785,3.94,3.9554,3.9938,0.0,0.0,0.0,0.0,0.0,0.0,4.2124,4.2893,4.447,4.5701,4.8107,5.2656,5.4465,5.5662,5.6541,5.6207,5.6261,5.7031,5.702,5.7941,6.0123,6.232,6.3737,6.4235,6.513,6.558,6.5688,6.5216,6.5256,6.5859,6.5385,6.5397,6.5897,6.6359,6.659,6.6667,6.8013,6.859,6.8667,6.9513,6.9846,6.9805,6.9947,6.8832,6.7164,6.723,6.6534,6.5452,6.4979,6.4789,6.4865,6.5338,6.5831,6.6248,6.6248,6.6248,6.6248,6.6248,6.6248,6.6248,6.6248,6.6248,6.6248,6.6248,6.6248,6.6248,6.6248,6.6248,6.6248,6.6248,6.6248,6.6215,6.5955,6.5174,6.4578,6.4578,6.5232,6.571,6.5537,6.57,6.5801,6.5681,6.575,6.5668,6.5338,6.5632,6.5521,6.4861,6.4347,6.3943,6.3576,6.3906,6.4677,6.5962,6.5558,6.5521,6.5999,6.5191,6.3759,6.1814,6.1667,6.1006,5.1164,4.9779,4.8009,4.6095,4.4355,4.2547,4.0469,4.0431,4.0977,4.1439,4.2047,0.0,0.0,0.0,0.0,0.0,0.0,4.2,4.2662,4.3047,4.497,4.9625,5.2125,5.3703,5.428,5.401,5.4049,5.4626,5.4664,5.578,5.8319,6.1089,6.3012,6.3897,6.5205,6.5897,6.5897,6.5282,6.5282,6.5897,6.5243,6.5282,6.5936,6.6744,6.709,6.7205,6.8936,6.9706,6.9744,7.0552,7.0898,7.0898,7.0898,7.0004,6.8648,6.805,6.7293,6.6414,6.5612,6.5459,6.5765,6.6605,6.7293,6.7827,6.7827,6.798,6.8171,6.8171,6.8324,6.8476,6.8476,6.8476,6.8476,6.8476,6.8476,6.8476,6.8476,6.8476,6.8438,6.8209,6.8171,6.8095,6.7865,6.6391,6.5273,6.5273,6.5784,6.6069,6.5875,6.5849,6.5844,6.5691,6.5349,6.5138,6.5138,6.5359,6.5396,6.5175,6.461,6.4389,6.461,6.4831,6.5605,6.7005,6.6489,6.6452,6.7042,6.618,6.5161,6.3897,6.2818,6.1741,5.2308,5.0625,4.874,4.6249,4.4355,4.2854,4.1923,4.1731,4.2239,4.3855,4.4201,4.447,4.5364,0.0,0.0,0.0,0.0,0.0,0.0,4.1123,4.1901,4.5402,4.8788,5.0827,5.0866,5.1548,5.2,5.2,5.2,5.3126,5.5703,5.905,6.1281,6.2139,6.4589,6.5897,6.5897,6.5859,6.5859,6.5897,6.5859,6.5859,6.5936,6.6744,6.709,6.7205,6.8936,6.9706,6.9744,7.0552,7.0898,7.0898,7.0898,7.086,7.0615,6.8948,6.7833,6.6962,6.6154,6.6385,6.7192,6.8064,6.8333,6.8371,6.8371,6.8948,6.964,6.964,7.0179,7.0808,7.0808,7.0808,7.0808,7.0808,7.0808,7.0808,7.0808,7.0808,7.0577,6.9756,6.964,6.9371,6.8525,6.7898,6.7483,6.7483,6.7521,6.7469,6.7237,6.6314,6.553,6.5324,6.5031,6.4819,6.4819,6.5524,6.5635,6.4856,6.4805,6.5125,6.5905,6.6662,6.7516,6.8431,6.8431,6.8431,6.8431,6.7506,6.6939,6.674,6.4878,6.3135,5.4895,5.3626,5.201,4.8894,4.724,4.5893,4.3893,4.3893,4.4624,4.5778,4.6432,4.7278,4.8711,0.0,0.0,0.0,0.0,0.0,0.0,4.0708,4.1131,4.2893,4.5586,4.7557,4.8125,4.8432,4.8808,4.9346,4.8885,5.0202,5.3857,5.728,6.005,6.2062,6.4551,6.5897,6.5897,6.532,6.532,6.5897,6.5897,6.6167,6.6744,6.8167,6.8821,6.8898,7.0014,7.0475,7.0514,7.0783,7.0898,7.0898,7.0898,7.0898,7.0706,6.9013,6.859,6.8706,6.7859,6.8129,6.8859,6.9167,6.9629,7.0052,7.0052,7.0667,7.136,7.136,7.1975,7.2629,7.2629,7.2629,7.2629,7.2629,7.2629,7.2629,7.2629,7.2168,7.1668,7.1398,7.0898,7.0398,7.0129,6.9889,6.9419,6.8292,6.8139,6.808,6.7928,6.6848,6.6059,6.5841,6.5046,6.4547,6.4547,6.4772,6.5073,6.5298,6.5336,6.5957,6.7309,6.7647,6.8173,6.9015,6.9053,6.9053,6.9053,6.8593,6.7933,6.7168,6.6383,6.5029,5.6626,5.5549,5.4241,5.1433,4.9894,4.8509,4.6547,4.6547,4.7278,4.8423,4.9356,5.0433,5.2164,0.0,0.0,0.0,0.0,0.0,0.0,4.0054,4.0285,4.0854,4.3393,4.5355,4.5932,4.6547,4.7115,4.7625,4.7192,4.8471,5.2125,5.5549,5.855,6.1089,6.3935,6.559,6.5897,6.532,6.5474,6.632,6.632,6.6744,6.7628,6.9052,6.9706,6.9744,7.0552,7.0898,7.0898,7.0898,7.0898,7.0898,7.0898,7.0898,7.0706,6.9013,6.8783,6.9244,6.9283,6.986,7.0629,7.0937,7.1398,7.1822,7.1822,7.2437,7.3091,7.3091,7.3707,7.4399,7.4399,7.4399,7.4399,7.4399,7.4399,7.4322,7.4014,7.3476,7.2899,7.2322,7.1745,7.1245,7.0937,7.0898,7.0514,6.9436,6.9283,6.9242,6.9131,6.812,6.7359,6.719,6.619,6.5555,6.5555,6.5555,6.5782,6.6274,6.6577,6.7221,6.8319,6.866,6.9058,6.9568,6.9568,6.9568,6.9568,6.9388,6.8854,6.798,6.7528,6.6381]}]]